Time,TemperatureF,DewpointF,PressureIn,WindDirection,WindDirectionDegrees,WindSpeedMPH,WindSpeedGustMPH,Humidity,HourlyPrecipIn,Conditions,Clouds,dailyrainin,SoftwareType,DateUTC
2013-08-08 00:00:00,67.6,46.1,29.06,NW,315,2.9,2.9,46,0.00,,---,0.00,VWS V14.01,2013-08-08 04:00:00,
2013-08-08 00:01:00,67.6,46.1,29.06,NW,315,2.9,2.9,46,0.00,,---,0.00,VWS V14.01,2013-08-08 04:01:00,
2013-08-08 00:02:00,67.8,46.9,29.06,WNW,292,0.9,2.9,47,0.00,,---,0.00,VWS V14.01,2013-08-08 04:02:00,
2013-08-08 00:03:00,67.6,47.3,29.06,ENE,68,3.1,3.1,48,0.00,,---,0.00,VWS V14.01,2013-08-08 04:03:00,
2013-08-08 00:04:00,67.6,47.3,29.06,ENE,68,0.0,3.1,48,0.00,,---,0.00,VWS V14.01,2013-08-08 04:04:00,
2013-08-08 00:05:00,67.5,47.1,29.06,ENE,68,1.6,1.6,48,0.00,,---,0.00,VWS V14.01,2013-08-08 04:05:00,
2013-08-08 00:06:00,67.5,47.1,29.06,ENE,68,1.6,1.6,48,0.00,,---,0.00,VWS V14.01,2013-08-08 04:06:00,
2013-08-08 00:07:00,67.8,46.9,29.06,NNE,22,1.6,1.6,47,0.00,,---,0.00,VWS V14.01,2013-08-08 04:07:00,
2013-08-08 00:08:00,67.8,46.9,29.06,ENE,68,0.9,1.6,47,0.00,,---,0.00,VWS V14.01,2013-08-08 04:08:00,
2013-08-08 00:09:00,68.0,47.0,29.06,NE,45,0.0,0.9,47,0.00,,---,0.00,VWS V14.01,2013-08-08 04:09:00,
2013-08-08 00:10:00,68.0,47.0,29.06,NE,45,0.0,0.0,47,0.00,,---,0.00,VWS V14.01,2013-08-08 04:10:00,
2013-08-08 00:11:00,67.6,47.8,29.06,NE,45,1.6,1.6,49,0.00,,---,0.00,VWS V14.01,2013-08-08 04:11:00,
2013-08-08 00:12:00,67.5,48.2,29.06,ENE,68,2.5,2.5,50,0.00,,---,0.00,VWS V14.01,2013-08-08 04:12:00,
2013-08-08 00:13:00,67.5,48.2,29.06,NE,45,0.0,2.5,50,0.00,,---,0.00,VWS V14.01,2013-08-08 04:13:00,
2013-08-08 00:14:00,67.3,48.0,29.06,NE,45,0.0,0.0,50,0.00,,---,0.00,VWS V14.01,2013-08-08 04:14:00,
2013-08-08 00:15:00,67.3,48.0,29.06,NNE,22,1.6,1.6,50,0.00,,---,0.00,VWS V14.01,2013-08-08 04:15:00,
2013-08-08 00:16:00,67.5,47.7,29.06,NNE,22,0.0,1.6,49,0.00,,---,0.00,VWS V14.01,2013-08-08 04:16:00,
2013-08-08 00:17:00,67.5,47.1,29.06,NNE,22,0.0,1.6,48,0.00,,---,0.00,VWS V14.01,2013-08-08 04:17:00,
2013-08-08 00:18:00,67.5,47.1,29.06,NNE,22,0.0,0.0,48,0.00,,---,0.00,VWS V14.01,2013-08-08 04:18:00,
2013-08-08 00:19:00,67.3,48.0,29.06,NNE,22,0.0,0.0,50,0.00,,---,0.00,VWS V14.01,2013-08-08 04:19:00,
2013-08-08 00:20:00,67.3,48.0,29.06,NNE,22,0.0,0.0,50,0.00,,---,0.00,VWS V14.01,2013-08-08 04:20:00,
2013-08-08 00:21:00,67.3,47.5,29.06,North,0,2.5,2.5,49,0.00,,---,0.00,VWS V14.01,2013-08-08 04:21:00,
2013-08-08 00:22:00,67.3,47.5,29.06,North,0,2.5,2.5,49,0.00,,---,0.00,VWS V14.01,2013-08-08 04:22:00,
2013-08-08 00:23:00,67.3,47.5,29.06,North,0,0.0,2.5,49,0.00,,---,0.00,VWS V14.01,2013-08-08 04:23:00,
2013-08-08 00:24:00,67.3,47.5,29.06,North,0,0.0,0.0,49,0.00,,---,0.00,VWS V14.01,2013-08-08 04:24:00,
2013-08-08 00:25:00,67.3,47.5,29.06,North,0,1.3,1.3,49,0.00,,---,0.00,VWS V14.01,2013-08-08 04:25:00,
2013-08-08 00:26:00,67.6,47.3,29.06,North,0,1.3,1.3,48,0.00,,---,0.00,VWS V14.01,2013-08-08 04:26:00,
2013-08-08 00:27:00,67.6,47.3,29.06,NNW,338,1.1,1.3,48,0.00,,---,0.00,VWS V14.01,2013-08-08 04:27:00,
2013-08-08 00:28:00,67.6,47.3,29.06,NNW,338,0.0,1.1,48,0.00,,---,0.00,VWS V14.01,2013-08-08 04:28:00,
2013-08-08 00:29:00,67.6,47.3,29.06,NW,315,2.5,2.5,48,0.00,,---,0.00,VWS V14.01,2013-08-08 04:29:00,
2013-08-08 00:30:00,67.8,46.9,29.06,NW,315,1.3,2.5,47,0.00,,---,0.00,VWS V14.01,2013-08-08 04:30:00,
2013-08-08 00:31:00,67.8,47.4,29.06,NW,315,2.7,2.7,48,0.00,,---,0.00,VWS V14.01,2013-08-08 04:31:00,
2013-08-08 00:32:00,67.8,47.4,29.06,WNW,292,2.0,2.7,48,0.00,,---,0.00,VWS V14.01,2013-08-08 04:32:00,
2013-08-08 00:33:00,67.8,46.9,29.06,WNW,292,2.0,2.0,47,0.00,,---,0.00,VWS V14.01,2013-08-08 04:33:00,
2013-08-08 00:34:00,67.8,46.9,29.06,NW,315,0.0,2.0,47,0.00,,---,0.00,VWS V14.01,2013-08-08 04:34:00,
2013-08-08 00:35:00,67.6,46.7,29.06,WNW,292,2.2,2.2,47,0.00,,---,0.00,VWS V14.01,2013-08-08 04:35:00,
2013-08-08 00:36:00,67.6,46.7,29.06,WNW,292,2.2,2.2,47,0.00,,---,0.00,VWS V14.01,2013-08-08 04:36:00,
2013-08-08 00:37:00,67.6,46.7,29.06,WNW,292,0.0,2.2,47,0.00,,---,0.00,VWS V14.01,2013-08-08 04:37:00,
2013-08-08 00:38:00,67.6,46.7,29.06,WNW,292,0.0,0.0,47,0.00,,---,0.00,VWS V14.01,2013-08-08 04:38:00,
2013-08-08 00:39:00,67.5,47.1,29.06,SSE,158,2.7,2.7,48,0.00,,---,0.00,VWS V14.01,2013-08-08 04:39:00,
2013-08-08 00:40:00,67.6,47.3,29.06,SSE,158,2.7,2.7,48,0.00,,---,0.00,VWS V14.01,2013-08-08 04:40:00,
2013-08-08 00:41:00,67.6,47.3,29.06,SSE,158,2.7,2.7,48,0.00,,---,0.00,VWS V14.01,2013-08-08 04:41:00,
2013-08-08 00:42:00,67.6,47.3,29.06,NW,315,0.0,2.7,48,0.00,,---,0.00,VWS V14.01,2013-08-08 04:42:00,
2013-08-08 00:43:00,67.6,47.3,29.06,NW,315,0.0,0.0,48,0.00,,---,0.00,VWS V14.01,2013-08-08 04:43:00,
2013-08-08 00:44:00,67.6,47.3,29.06,NNW,338,2.7,2.7,48,0.00,,---,0.00,VWS V14.01,2013-08-08 04:44:00,
2013-08-08 00:45:00,67.6,47.3,29.06,West,270,0.0,2.7,48,0.00,,---,0.00,VWS V14.01,2013-08-08 04:45:00,
2013-08-08 00:46:00,67.6,47.3,29.06,NNW,338,2.2,2.2,48,0.00,,---,0.00,VWS V14.01,2013-08-08 04:46:00,
2013-08-08 00:47:00,67.6,47.3,29.06,NW,315,1.6,2.2,48,0.00,,---,0.00,VWS V14.01,2013-08-08 04:47:00,
2013-08-08 00:48:00,67.8,46.9,29.06,NNW,338,2.5,2.5,47,0.00,,---,0.00,VWS V14.01,2013-08-08 04:48:00,
2013-08-08 00:49:00,67.6,47.3,29.06,ESE,112,1.3,2.5,48,0.00,,---,0.00,VWS V14.01,2013-08-08 04:49:00,
2013-08-08 00:50:00,67.6,47.3,29.06,East,90,0.0,1.3,48,0.00,,---,0.00,VWS V14.01,2013-08-08 04:50:00,
2013-08-08 00:51:00,67.6,47.3,29.06,ENE,68,1.3,1.3,48,0.00,,---,0.00,VWS V14.01,2013-08-08 04:51:00,
2013-08-08 00:52:00,67.6,47.3,29.06,ENE,68,2.0,2.0,48,0.00,,---,0.00,VWS V14.01,2013-08-08 04:52:00,
2013-08-08 00:53:00,67.6,47.3,29.06,NNW,338,2.5,2.5,48,0.00,,---,0.00,VWS V14.01,2013-08-08 04:53:00,
2013-08-08 00:54:00,67.8,47.4,29.06,East,90,1.3,2.5,48,0.00,,---,0.00,VWS V14.01,2013-08-08 04:54:00,
2013-08-08 00:55:00,67.8,47.4,29.06,WNW,292,3.1,3.1,48,0.00,,---,0.00,VWS V14.01,2013-08-08 04:55:00,
2013-08-08 00:56:00,67.8,47.4,29.06,NNW,338,2.0,3.1,48,0.00,,---,0.00,VWS V14.01,2013-08-08 04:56:00,
2013-08-08 00:57:00,67.8,47.4,29.06,NW,315,1.3,2.0,48,0.00,,---,0.00,VWS V14.01,2013-08-08 04:57:00,
2013-08-08 00:58:00,67.8,47.4,29.06,NNW,338,1.3,1.3,48,0.00,,---,0.00,VWS V14.01,2013-08-08 04:58:00,
2013-08-08 00:59:00,67.8,47.4,29.06,NNW,338,0.0,1.3,48,0.00,,---,0.00,VWS V14.01,2013-08-08 04:59:00,
2013-08-08 01:00:00,67.6,47.3,29.06,NNE,22,3.1,3.1,48,0.00,,---,0.00,VWS V14.01,2013-08-08 05:00:00,
2013-08-08 01:01:00,67.6,47.3,29.06,NW,315,1.3,3.1,48,0.00,,---,0.00,VWS V14.01,2013-08-08 05:01:00,
2013-08-08 01:02:00,67.6,47.3,29.06,NNE,22,1.3,1.3,48,0.00,,---,0.00,VWS V14.01,2013-08-08 05:02:00,
2013-08-08 01:03:00,67.6,47.3,29.06,NNE,22,1.3,1.3,48,0.00,,---,0.00,VWS V14.01,2013-08-08 05:03:00,
2013-08-08 01:04:00,67.6,47.3,29.06,NNE,22,0.0,1.3,48,0.00,,---,0.00,VWS V14.01,2013-08-08 05:04:00,
2013-08-08 01:05:00,67.5,47.7,29.06,NNE,22,0.0,0.0,49,0.00,,---,0.00,VWS V14.01,2013-08-08 05:05:00,
2013-08-08 01:06:00,67.5,47.7,29.06,WNW,292,1.6,1.6,49,0.00,,---,0.00,VWS V14.01,2013-08-08 05:06:00,
2013-08-08 01:07:00,67.6,47.8,29.06,NW,315,2.5,2.5,49,0.00,,---,0.00,VWS V14.01,2013-08-08 05:07:00,
2013-08-08 01:08:00,67.6,47.8,29.06,NW,315,1.1,2.5,49,0.00,,---,0.00,VWS V14.01,2013-08-08 05:08:00,
2013-08-08 01:09:00,67.6,47.8,29.06,WNW,292,1.1,1.1,49,0.00,,---,0.00,VWS V14.01,2013-08-08 05:09:00,
2013-08-08 01:10:00,67.6,47.8,29.06,SSE,158,2.2,2.2,49,0.00,,---,0.00,VWS V14.01,2013-08-08 05:10:00,
2013-08-08 01:11:00,67.6,47.8,29.06,WSW,248,1.6,2.2,49,0.00,,---,0.00,VWS V14.01,2013-08-08 05:11:00,
2013-08-08 01:12:00,67.6,47.8,29.06,SW,225,0.0,2.0,49,0.00,,---,0.00,VWS V14.01,2013-08-08 05:12:00,
2013-08-08 01:13:00,67.6,47.8,29.06,SW,225,0.0,0.0,49,0.00,,---,0.00,VWS V14.01,2013-08-08 05:13:00,
2013-08-08 01:14:00,67.6,47.3,29.06,SW,225,0.0,0.0,48,0.00,,---,0.00,VWS V14.01,2013-08-08 05:14:00,
2013-08-08 01:15:00,67.6,47.3,29.06,WNW,292,2.2,2.2,48,0.00,,---,0.00,VWS V14.01,2013-08-08 05:15:00,
2013-08-08 01:16:00,67.6,47.8,29.06,WSW,248,0.9,2.2,49,0.00,,---,0.00,VWS V14.01,2013-08-08 05:16:00,
2013-08-08 01:17:00,67.5,47.7,29.06,WSW,248,0.0,0.9,49,0.00,,---,0.00,VWS V14.01,2013-08-08 05:17:00,
2013-08-08 01:18:00,67.5,47.7,29.06,WSW,248,0.0,0.0,49,0.00,,---,0.00,VWS V14.01,2013-08-08 05:18:00,
2013-08-08 01:19:00,67.5,47.7,29.06,WSW,248,0.0,0.0,49,0.00,,---,0.00,VWS V14.01,2013-08-08 05:19:00,
2013-08-08 01:20:00,67.5,47.7,29.06,WSW,248,0.0,0.0,49,0.00,,---,0.00,VWS V14.01,2013-08-08 05:20:00,
2013-08-08 01:21:00,67.5,48.2,29.06,WSW,248,0.0,0.0,50,0.00,,---,0.00,VWS V14.01,2013-08-08 05:21:00,
2013-08-08 01:22:00,67.5,48.2,29.06,WSW,248,0.0,0.0,50,0.00,,---,0.00,VWS V14.01,2013-08-08 05:22:00,
2013-08-08 01:23:00,67.5,48.2,29.06,WSW,248,1.3,1.3,50,0.00,,---,0.00,VWS V14.01,2013-08-08 05:23:00,
2013-08-08 01:24:00,67.5,48.2,29.06,SW,225,1.6,1.6,50,0.00,,---,0.00,VWS V14.01,2013-08-08 05:24:00,
2013-08-08 01:25:00,67.5,47.7,29.06,WSW,248,1.1,1.6,49,0.00,,---,0.00,VWS V14.01,2013-08-08 05:25:00,
2013-08-08 01:26:00,67.5,47.7,29.06,WNW,292,1.3,1.3,49,0.00,,---,0.00,VWS V14.01,2013-08-08 05:26:00,
2013-08-08 01:27:00,67.5,47.7,29.06,WNW,292,0.0,1.3,49,0.00,,---,0.00,VWS V14.01,2013-08-08 05:27:00,
2013-08-08 01:28:00,67.3,48.0,29.06,WNW,292,0.0,0.0,50,0.00,,---,0.00,VWS V14.01,2013-08-08 05:28:00,
2013-08-08 01:29:00,67.3,48.0,29.06,WNW,292,0.0,0.0,50,0.00,,---,0.00,VWS V14.01,2013-08-08 05:29:00,
2013-08-08 01:30:00,67.3,48.0,29.06,WNW,292,0.0,0.0,50,0.00,,---,0.00,VWS V14.01,2013-08-08 05:30:00,
2013-08-08 01:31:00,67.3,48.0,29.06,SSE,158,0.9,0.9,50,0.00,,---,0.00,VWS V14.01,2013-08-08 05:31:00,
2013-08-08 01:32:00,67.1,47.9,29.06,SSE,158,0.0,0.9,50,0.00,,---,0.00,VWS V14.01,2013-08-08 05:32:00,
2013-08-08 01:33:00,67.1,47.9,29.06,ESE,112,0.0,0.0,50,0.00,,---,0.00,VWS V14.01,2013-08-08 05:33:00,
2013-08-08 01:34:00,67.1,47.9,29.06,ESE,112,0.0,0.0,50,0.00,,---,0.00,VWS V14.01,2013-08-08 05:34:00,
2013-08-08 01:35:00,66.9,48.2,29.06,ESE,112,1.3,1.3,51,0.00,,---,0.00,VWS V14.01,2013-08-08 05:35:00,
2013-08-08 01:36:00,66.9,48.2,29.06,ESE,112,0.0,1.3,51,0.00,,---,0.00,VWS V14.01,2013-08-08 05:36:00,
2013-08-08 01:37:00,67.1,48.4,29.06,ESE,112,0.0,0.0,51,0.00,,---,0.00,VWS V14.01,2013-08-08 05:37:00,
2013-08-08 01:38:00,67.1,48.4,29.06,NW,315,3.1,3.1,51,0.00,,---,0.00,VWS V14.01,2013-08-08 05:38:00,
2013-08-08 01:39:00,67.3,48.5,29.06,NW,315,1.6,3.1,51,0.00,,---,0.00,VWS V14.01,2013-08-08 05:39:00,
2013-08-08 01:40:00,67.3,48.5,29.06,West,270,0.0,1.6,51,0.00,,---,0.00,VWS V14.01,2013-08-08 05:40:00,
2013-08-08 01:41:00,67.3,48.0,29.06,NW,315,3.1,3.1,50,0.00,,---,0.00,VWS V14.01,2013-08-08 05:41:00,
2013-08-08 01:42:00,67.5,48.2,29.06,WNW,292,1.1,1.3,50,0.00,,---,0.00,VWS V14.01,2013-08-08 05:42:00,
2013-08-08 01:43:00,67.5,48.2,29.06,WNW,292,0.0,1.1,50,0.00,,---,0.00,VWS V14.01,2013-08-08 05:43:00,
2013-08-08 01:44:00,67.3,48.0,29.06,WNW,292,0.0,0.0,50,0.00,,---,0.00,VWS V14.01,2013-08-08 05:44:00,
2013-08-08 01:45:00,67.3,48.0,29.06,WNW,292,0.0,0.0,50,0.00,,---,0.00,VWS V14.01,2013-08-08 05:45:00,
2013-08-08 01:46:00,67.3,48.5,29.06,WNW,292,0.0,0.0,51,0.00,,---,0.00,VWS V14.01,2013-08-08 05:46:00,
2013-08-08 01:47:00,67.1,48.4,29.06,WNW,292,0.0,0.0,51,0.00,,---,0.00,VWS V14.01,2013-08-08 05:47:00,
2013-08-08 01:48:00,67.1,48.4,29.06,WNW,292,0.0,0.0,51,0.00,,---,0.00,VWS V14.01,2013-08-08 05:48:00,
2013-08-08 01:49:00,67.1,48.4,29.06,WNW,292,1.1,1.1,51,0.00,,---,0.00,VWS V14.01,2013-08-08 05:49:00,
2013-08-08 01:50:00,67.1,48.4,29.06,WNW,292,0.0,1.1,51,0.00,,---,0.00,VWS V14.01,2013-08-08 05:50:00,
2013-08-08 01:51:00,67.1,48.4,29.06,WNW,292,0.0,0.0,51,0.00,,---,0.00,VWS V14.01,2013-08-08 05:51:00,
2013-08-08 01:52:00,67.1,48.4,29.06,WNW,292,0.0,0.0,51,0.00,,---,0.00,VWS V14.01,2013-08-08 05:52:00,
2013-08-08 01:53:00,67.1,48.4,29.06,WNW,292,0.0,0.0,51,0.00,,---,0.00,VWS V14.01,2013-08-08 05:53:00,
2013-08-08 01:54:00,67.1,48.4,29.06,WNW,292,0.0,0.0,51,0.00,,---,0.00,VWS V14.01,2013-08-08 05:54:00,
2013-08-08 01:55:00,67.1,48.4,29.06,NNE,22,0.9,0.9,51,0.00,,---,0.00,VWS V14.01,2013-08-08 05:55:00,
2013-08-08 01:56:00,67.1,48.9,29.06,NNE,22,0.9,0.9,52,0.00,,---,0.00,VWS V14.01,2013-08-08 05:56:00,
2013-08-08 01:57:00,67.1,48.9,29.06,NNE,22,0.0,0.9,52,0.00,,---,0.00,VWS V14.01,2013-08-08 05:57:00,
2013-08-08 01:58:00,67.1,48.4,29.06,NNE,22,3.1,3.1,51,0.00,,---,0.00,VWS V14.01,2013-08-08 05:58:00,
2013-08-08 01:59:00,67.1,48.4,29.06,ENE,68,1.6,3.1,51,0.00,,---,0.00,VWS V14.01,2013-08-08 05:59:00,
2013-08-08 02:00:00,67.5,48.7,29.06,ENE,68,0.0,1.6,51,0.00,,---,0.00,VWS V14.01,2013-08-08 06:00:00,
2013-08-08 02:01:00,67.5,48.7,29.06,ENE,68,0.0,0.0,51,0.00,,---,0.00,VWS V14.01,2013-08-08 06:01:00,
2013-08-08 02:02:00,67.3,48.5,29.06,ENE,68,0.0,0.0,51,0.00,,---,0.00,VWS V14.01,2013-08-08 06:02:00,
2013-08-08 02:03:00,67.5,48.7,29.06,ENE,68,0.0,0.0,51,0.00,,---,0.00,VWS V14.01,2013-08-08 06:03:00,
2013-08-08 02:04:00,67.5,48.7,29.06,ENE,68,0.0,0.0,51,0.00,,---,0.00,VWS V14.01,2013-08-08 06:04:00,
2013-08-08 02:05:00,67.3,48.5,29.06,ENE,68,0.0,0.0,51,0.00,,---,0.00,VWS V14.01,2013-08-08 06:05:00,
2013-08-08 02:06:00,67.3,48.5,29.06,ENE,68,0.0,0.0,51,0.00,,---,0.00,VWS V14.01,2013-08-08 06:06:00,
2013-08-08 02:07:00,67.3,48.5,29.06,ENE,68,0.0,0.0,51,0.00,,---,0.00,VWS V14.01,2013-08-08 06:07:00,
2013-08-08 02:08:00,67.3,48.5,29.06,NNE,22,0.0,0.0,51,0.00,,---,0.00,VWS V14.01,2013-08-08 06:08:00,
2013-08-08 02:09:00,67.1,48.9,29.06,NNE,22,1.1,1.1,52,0.00,,---,0.00,VWS V14.01,2013-08-08 06:09:00,
2013-08-08 02:10:00,67.1,48.9,29.06,NNE,22,0.0,1.1,52,0.00,,---,0.00,VWS V14.01,2013-08-08 06:10:00,
2013-08-08 02:11:00,67.1,48.9,29.06,NNE,22,0.0,0.0,52,0.00,,---,0.00,VWS V14.01,2013-08-08 06:11:00,
2013-08-08 02:12:00,66.9,48.7,29.06,NNE,22,0.0,0.0,52,0.00,,---,0.00,VWS V14.01,2013-08-08 06:12:00,
2013-08-08 02:13:00,66.9,48.7,29.06,NNE,22,0.0,0.0,52,0.00,,---,0.00,VWS V14.01,2013-08-08 06:13:00,
2013-08-08 02:14:00,66.9,49.2,29.06,North,0,3.1,3.1,53,0.00,,---,0.00,VWS V14.01,2013-08-08 06:14:00,
2013-08-08 02:15:00,67.1,48.9,29.06,NW,315,2.0,2.0,52,0.00,,---,0.00,VWS V14.01,2013-08-08 06:15:00,
2013-08-08 02:16:00,67.1,48.9,29.06,NW,315,2.0,2.0,52,0.00,,---,0.00,VWS V14.01,2013-08-08 06:16:00,
2013-08-08 02:17:00,67.1,48.9,29.06,NNW,338,0.9,2.0,52,0.00,,---,0.00,VWS V14.01,2013-08-08 06:17:00,
2013-08-08 02:18:00,67.3,48.5,29.06,NNW,338,0.0,0.9,51,0.00,,---,0.00,VWS V14.01,2013-08-08 06:18:00,
2013-08-08 02:19:00,67.3,49.1,29.06,NE,45,2.0,2.0,52,0.00,,---,0.00,VWS V14.01,2013-08-08 06:19:00,
2013-08-08 02:20:00,67.3,49.1,29.06,NE,45,0.0,0.0,52,0.00,,---,0.00,VWS V14.01,2013-08-08 06:20:00,
2013-08-08 02:21:00,67.3,49.1,29.06,NE,45,0.0,0.0,52,0.00,,---,0.00,VWS V14.01,2013-08-08 06:21:00,
2013-08-08 02:22:00,67.3,49.1,29.06,NE,45,0.0,0.0,52,0.00,,---,0.00,VWS V14.01,2013-08-08 06:22:00,
2013-08-08 02:23:00,67.1,48.9,29.06,NE,45,0.0,0.0,52,0.00,,---,0.00,VWS V14.01,2013-08-08 06:23:00,
2013-08-08 02:24:00,67.1,48.9,29.06,NNE,22,3.1,3.1,52,0.00,,---,0.00,VWS V14.01,2013-08-08 06:24:00,
2013-08-08 02:25:00,67.5,49.2,29.06,WNW,292,1.6,1.6,52,0.00,,---,0.00,VWS V14.01,2013-08-08 06:25:00,
2013-08-08 02:26:00,67.6,49.4,29.06,WNW,292,0.0,1.6,52,0.00,,---,0.00,VWS V14.01,2013-08-08 06:26:00,
2013-08-08 02:27:00,67.6,49.4,29.06,WNW,292,0.0,0.0,52,0.00,,---,0.00,VWS V14.01,2013-08-08 06:27:00,
2013-08-08 02:28:00,67.5,49.2,29.06,WNW,292,0.0,0.0,52,0.00,,---,0.00,VWS V14.01,2013-08-08 06:28:00,
2013-08-08 02:29:00,67.5,49.2,29.06,ENE,68,2.0,2.0,52,0.00,,---,0.00,VWS V14.01,2013-08-08 06:29:00,
2013-08-08 02:30:00,67.3,49.6,29.06,ENE,68,0.0,1.3,53,0.00,,---,0.00,VWS V14.01,2013-08-08 06:30:00,
2013-08-08 02:31:00,67.3,49.6,29.06,ENE,68,0.0,1.3,53,0.00,,---,0.00,VWS V14.01,2013-08-08 06:31:00,
2013-08-08 02:32:00,67.3,49.6,29.06,ENE,68,1.3,1.3,53,0.00,,---,0.00,VWS V14.01,2013-08-08 06:32:00,
2013-08-08 02:33:00,67.3,49.6,29.06,ENE,68,0.0,1.3,53,0.00,,---,0.00,VWS V14.01,2013-08-08 06:33:00,
2013-08-08 02:34:00,67.1,48.9,29.06,ENE,68,0.0,0.0,52,0.00,,---,0.00,VWS V14.01,2013-08-08 06:34:00,
2013-08-08 02:35:00,66.9,48.7,29.06,NNE,22,2.0,2.0,52,0.00,,---,0.00,VWS V14.01,2013-08-08 06:35:00,
2013-08-08 02:36:00,66.9,48.7,29.06,NNE,22,2.0,2.0,52,0.00,,---,0.00,VWS V14.01,2013-08-08 06:36:00,
2013-08-08 02:37:00,66.9,49.2,29.06,NNE,22,2.0,2.0,53,0.00,,---,0.00,VWS V14.01,2013-08-08 06:37:00,
2013-08-08 02:38:00,66.9,49.2,29.06,NNE,22,1.1,2.0,53,0.00,,---,0.00,VWS V14.01,2013-08-08 06:38:00,
2013-08-08 02:39:00,66.7,49.1,29.06,NNE,22,1.6,1.6,53,0.00,,---,0.00,VWS V14.01,2013-08-08 06:39:00,
2013-08-08 02:40:00,66.9,49.8,29.06,NNE,22,1.1,1.6,54,0.00,,---,0.00,VWS V14.01,2013-08-08 06:40:00,
2013-08-08 02:41:00,66.9,49.8,29.06,NNE,22,1.1,1.6,54,0.00,,---,0.00,VWS V14.01,2013-08-08 06:41:00,
2013-08-08 02:42:00,66.9,49.2,29.06,NNE,22,0.0,1.1,53,0.00,,---,0.00,VWS V14.01,2013-08-08 06:42:00,
2013-08-08 02:43:00,66.9,49.2,29.06,NNE,22,0.0,0.0,53,0.00,,---,0.00,VWS V14.01,2013-08-08 06:43:00,
2013-08-08 02:44:00,66.9,50.2,29.06,NNE,22,1.1,1.1,55,0.00,,---,0.00,VWS V14.01,2013-08-08 06:44:00,
2013-08-08 02:45:00,66.7,50.1,29.06,NNE,22,0.9,1.6,55,0.00,,---,0.00,VWS V14.01,2013-08-08 06:45:00,
2013-08-08 02:46:00,66.7,50.1,29.06,NNE,22,0.9,1.6,55,0.00,,---,0.00,VWS V14.01,2013-08-08 06:46:00,
2013-08-08 02:47:00,66.7,50.1,29.06,NNE,22,0.0,0.9,55,0.00,,---,0.00,VWS V14.01,2013-08-08 06:47:00,
2013-08-08 02:48:00,66.7,50.1,29.06,NNE,22,1.6,1.6,55,0.00,,---,0.00,VWS V14.01,2013-08-08 06:48:00,
2013-08-08 02:49:00,66.7,50.1,29.06,NNE,22,1.1,1.6,55,0.00,,---,0.00,VWS V14.01,2013-08-08 06:49:00,
2013-08-08 02:50:00,66.6,49.9,29.06,NNW,338,1.1,2.2,55,0.00,,---,0.00,VWS V14.01,2013-08-08 06:50:00,
2013-08-08 02:51:00,66.6,49.9,29.06,NNW,338,1.1,2.2,55,0.00,,---,0.00,VWS V14.01,2013-08-08 06:51:00,
2013-08-08 02:52:00,66.6,49.9,29.06,NNW,338,1.3,1.3,55,0.00,,---,0.00,VWS V14.01,2013-08-08 06:52:00,
2013-08-08 02:53:00,66.7,50.1,29.06,NNE,22,2.2,2.2,55,0.00,,---,0.00,VWS V14.01,2013-08-08 06:53:00,
2013-08-08 02:54:00,66.7,50.1,29.06,NW,315,2.0,2.5,55,0.00,,---,0.00,VWS V14.01,2013-08-08 06:54:00,
2013-08-08 02:55:00,66.9,50.2,29.06,NW,315,1.6,4.0,55,0.00,,---,0.00,VWS V14.01,2013-08-08 06:55:00,
2013-08-08 02:56:00,66.9,50.2,29.06,NW,315,1.6,4.0,55,0.00,,---,0.00,VWS V14.01,2013-08-08 06:56:00,
2013-08-08 02:57:00,66.9,50.2,29.06,West,270,1.6,1.6,55,0.00,,---,0.00,VWS V14.01,2013-08-08 06:57:00,
2013-08-08 02:58:00,66.9,49.8,29.06,West,270,0.0,1.6,54,0.00,,---,0.00,VWS V14.01,2013-08-08 06:58:00,
2013-08-08 02:59:00,66.9,49.8,29.06,West,270,0.0,0.0,54,0.00,,---,0.00,VWS V14.01,2013-08-08 06:59:00,
2013-08-08 03:00:00,66.9,50.7,29.06,NW,315,2.0,2.0,56,0.00,,---,0.00,VWS V14.01,2013-08-08 07:00:00,
2013-08-08 03:01:00,66.9,50.7,29.06,NW,315,2.0,2.0,56,0.00,,---,0.00,VWS V14.01,2013-08-08 07:01:00,
2013-08-08 03:02:00,67.1,49.9,29.06,NW,315,0.0,2.0,54,0.00,,---,0.00,VWS V14.01,2013-08-08 07:02:00,
2013-08-08 03:03:00,67.3,50.6,29.06,WNW,292,1.1,1.1,55,0.00,,---,0.00,VWS V14.01,2013-08-08 07:03:00,
2013-08-08 03:04:00,67.3,50.6,29.06,WNW,292,0.0,1.1,55,0.00,,---,0.00,VWS V14.01,2013-08-08 07:04:00,
2013-08-08 03:05:00,67.1,49.9,29.06,North,0,1.3,1.3,54,0.00,,---,0.00,VWS V14.01,2013-08-08 07:05:00,
2013-08-08 03:06:00,67.1,49.9,29.06,NNW,338,2.2,2.2,54,0.00,,---,0.00,VWS V14.01,2013-08-08 07:06:00,
2013-08-08 03:07:00,67.3,49.6,29.06,NNW,338,2.5,2.5,53,0.00,,---,0.00,VWS V14.01,2013-08-08 07:07:00,
2013-08-08 03:08:00,67.3,49.6,29.06,WNW,292,2.0,2.5,53,0.00,,---,0.00,VWS V14.01,2013-08-08 07:08:00,
2013-08-08 03:09:00,67.3,49.6,29.06,WNW,292,2.9,2.9,53,0.00,,---,0.00,VWS V14.01,2013-08-08 07:09:00,
2013-08-08 03:10:00,67.3,49.6,29.06,WNW,292,0.0,1.6,53,0.00,,---,0.00,VWS V14.01,2013-08-08 07:10:00,
2013-08-08 03:11:00,67.3,49.6,29.06,WNW,292,0.0,1.6,53,0.00,,---,0.00,VWS V14.01,2013-08-08 07:11:00,
2013-08-08 03:12:00,67.3,49.6,29.06,WNW,292,2.5,2.5,53,0.00,,---,0.00,VWS V14.01,2013-08-08 07:12:00,
2013-08-08 03:13:00,67.3,49.6,29.06,WNW,292,1.1,2.5,53,0.00,,---,0.00,VWS V14.01,2013-08-08 07:13:00,
2013-08-08 03:14:00,67.1,49.9,29.06,NW,315,2.0,2.0,54,0.00,,---,0.00,VWS V14.01,2013-08-08 07:14:00,
2013-08-08 03:15:00,67.1,50.4,29.06,NW,315,1.3,1.3,55,0.00,,---,0.00,VWS V14.01,2013-08-08 07:15:00,
2013-08-08 03:16:00,67.1,50.4,29.06,WNW,292,2.7,2.7,55,0.00,,---,0.00,VWS V14.01,2013-08-08 07:16:00,
2013-08-08 03:17:00,67.1,50.4,29.06,West,270,1.3,2.7,55,0.00,,---,0.00,VWS V14.01,2013-08-08 07:17:00,
2013-08-08 03:18:00,67.1,50.4,29.06,West,270,1.1,1.3,55,0.00,,---,0.00,VWS V14.01,2013-08-08 07:18:00,
2013-08-08 03:19:00,67.1,50.4,29.06,West,270,2.2,2.2,55,0.00,,---,0.00,VWS V14.01,2013-08-08 07:19:00,
2013-08-08 03:20:00,67.1,49.9,29.06,West,270,3.1,3.1,54,0.00,,---,0.00,VWS V14.01,2013-08-08 07:20:00,
2013-08-08 03:21:00,67.1,49.9,29.06,West,270,1.1,3.1,54,0.00,,---,0.00,VWS V14.01,2013-08-08 07:21:00,
2013-08-08 03:22:00,67.1,49.9,29.06,West,270,0.0,1.1,54,0.00,,---,0.00,VWS V14.01,2013-08-08 07:22:00,
2013-08-08 03:23:00,67.1,49.9,29.06,West,270,0.0,0.0,54,0.00,,---,0.00,VWS V14.01,2013-08-08 07:23:00,
2013-08-08 03:24:00,67.1,49.9,29.06,West,270,0.0,0.0,54,0.00,,---,0.00,VWS V14.01,2013-08-08 07:24:00,
2013-08-08 03:25:00,66.9,50.7,29.06,West,270,2.7,3.6,56,0.00,,---,0.00,VWS V14.01,2013-08-08 07:25:00,
2013-08-08 03:26:00,66.9,50.7,29.06,West,270,2.7,3.6,56,0.00,,---,0.00,VWS V14.01,2013-08-08 07:26:00,
2013-08-08 03:27:00,67.1,50.4,29.06,West,270,3.4,3.4,55,0.00,,---,0.00,VWS V14.01,2013-08-08 07:27:00,
2013-08-08 03:28:00,67.1,50.4,29.06,West,270,2.5,3.4,55,0.00,,---,0.00,VWS V14.01,2013-08-08 07:28:00,
2013-08-08 03:29:00,67.1,50.4,29.06,WNW,292,2.0,2.5,55,0.00,,---,0.00,VWS V14.01,2013-08-08 07:29:00,
2013-08-08 03:30:00,67.1,50.4,29.06,WSW,248,3.4,3.4,55,0.00,,---,0.00,VWS V14.01,2013-08-08 07:30:00,
2013-08-08 03:31:00,67.1,50.4,29.06,WSW,248,3.4,3.4,55,0.00,,---,0.00,VWS V14.01,2013-08-08 07:31:00,
2013-08-08 03:32:00,67.1,50.4,29.06,West,270,2.5,3.4,55,0.00,,---,0.00,VWS V14.01,2013-08-08 07:32:00,
2013-08-08 03:33:00,67.1,50.4,29.06,West,270,3.1,3.1,55,0.00,,---,0.00,VWS V14.01,2013-08-08 07:33:00,
2013-08-08 03:34:00,67.1,50.4,29.06,West,270,0.0,3.1,55,0.00,,---,0.00,VWS V14.01,2013-08-08 07:34:00,
2013-08-08 03:35:00,67.3,50.6,29.06,WNW,292,2.2,3.4,55,0.00,,---,0.00,VWS V14.01,2013-08-08 07:35:00,
2013-08-08 03:36:00,67.3,50.6,29.06,WNW,292,2.7,3.4,55,0.00,,---,0.00,VWS V14.01,2013-08-08 07:36:00,
2013-08-08 03:37:00,67.3,50.6,29.03,West,270,2.9,2.9,55,0.00,,---,0.00,VWS V14.01,2013-08-08 07:37:00,
2013-08-08 03:38:00,67.3,50.6,29.03,West,270,2.9,2.9,55,0.00,,---,0.00,VWS V14.01,2013-08-08 07:38:00,
2013-08-08 03:39:00,67.1,50.4,29.03,West,270,2.9,2.9,55,0.00,,---,0.00,VWS V14.01,2013-08-08 07:39:00,
2013-08-08 03:40:00,67.1,50.4,29.03,WNW,292,2.9,3.1,55,0.00,,---,0.00,VWS V14.01,2013-08-08 07:40:00,
2013-08-08 03:41:00,67.1,50.4,29.03,WNW,292,2.9,3.1,55,0.00,,---,0.00,VWS V14.01,2013-08-08 07:41:00,
2013-08-08 03:42:00,67.1,50.4,29.03,West,270,1.3,2.9,55,0.00,,---,0.00,VWS V14.01,2013-08-08 07:42:00,
2013-08-08 03:43:00,67.1,50.4,29.03,WNW,292,2.7,2.7,55,0.00,,---,0.00,VWS V14.01,2013-08-08 07:43:00,
2013-08-08 03:44:00,67.1,50.9,29.03,NW,315,3.4,3.4,56,0.00,,---,0.00,VWS V14.01,2013-08-08 07:44:00,
2013-08-08 03:45:00,67.1,50.9,29.03,WSW,248,2.0,2.7,56,0.00,,---,0.00,VWS V14.01,2013-08-08 07:45:00,
2013-08-08 03:46:00,67.1,50.9,29.03,WSW,248,2.0,2.7,56,0.00,,---,0.00,VWS V14.01,2013-08-08 07:46:00,
2013-08-08 03:47:00,67.1,50.9,29.03,West,270,1.6,2.0,56,0.00,,---,0.00,VWS V14.01,2013-08-08 07:47:00,
2013-08-08 03:48:00,67.1,50.9,29.03,WNW,292,3.6,3.6,56,0.00,,---,0.00,VWS V14.01,2013-08-08 07:48:00,
2013-08-08 03:49:00,67.1,50.9,29.03,WNW,292,1.6,3.6,56,0.00,,---,0.00,VWS V14.01,2013-08-08 07:49:00,
2013-08-08 03:50:00,67.1,50.9,29.03,WNW,292,0.9,0.9,56,0.00,,---,0.00,VWS V14.01,2013-08-08 07:50:00,
2013-08-08 03:51:00,67.1,50.9,29.03,WNW,292,0.0,0.9,56,0.00,,---,0.00,VWS V14.01,2013-08-08 07:51:00,
2013-08-08 03:52:00,67.1,50.9,29.03,WNW,292,1.6,1.6,56,0.00,,---,0.00,VWS V14.01,2013-08-08 07:52:00,
2013-08-08 03:53:00,67.1,50.9,29.03,WNW,292,0.0,1.6,56,0.00,,---,0.00,VWS V14.01,2013-08-08 07:53:00,
2013-08-08 03:54:00,67.1,50.9,29.03,SSE,158,2.0,2.0,56,0.00,,---,0.00,VWS V14.01,2013-08-08 07:54:00,
2013-08-08 03:55:00,66.9,50.7,29.03,WNW,292,2.9,2.9,56,0.00,,---,0.00,VWS V14.01,2013-08-08 07:55:00,
2013-08-08 03:56:00,67.1,50.4,29.03,WNW,292,2.9,2.9,55,0.00,,---,0.00,VWS V14.01,2013-08-08 07:56:00,
2013-08-08 03:57:00,67.1,50.4,29.03,WNW,292,0.0,2.9,55,0.00,,---,0.00,VWS V14.01,2013-08-08 07:57:00,
2013-08-08 03:58:00,67.1,50.9,29.03,WNW,292,1.6,1.6,56,0.00,,---,0.00,VWS V14.01,2013-08-08 07:58:00,
2013-08-08 03:59:00,67.1,50.9,29.03,WNW,292,0.0,1.6,56,0.00,,---,0.00,VWS V14.01,2013-08-08 07:59:00,
2013-08-08 04:00:00,67.1,50.9,29.03,West,270,2.5,2.5,56,0.00,,---,0.00,VWS V14.01,2013-08-08 08:00:00,
2013-08-08 04:01:00,67.1,50.9,29.03,WNW,292,2.5,2.5,56,0.00,,---,0.00,VWS V14.01,2013-08-08 08:01:00,
2013-08-08 04:02:00,67.1,50.9,29.03,NW,315,3.1,3.1,56,0.00,,---,0.00,VWS V14.01,2013-08-08 08:02:00,
2013-08-08 04:03:00,67.1,50.9,29.03,WNW,292,1.6,3.1,56,0.00,,---,0.00,VWS V14.01,2013-08-08 08:03:00,
2013-08-08 04:04:00,66.9,50.7,29.03,WNW,292,2.7,2.7,56,0.00,,---,0.00,VWS V14.01,2013-08-08 08:04:00,
2013-08-08 04:05:00,66.9,51.2,29.03,West,270,2.0,2.0,57,0.00,,---,0.00,VWS V14.01,2013-08-08 08:05:00,
2013-08-08 04:06:00,66.9,51.2,29.03,West,270,2.0,2.0,57,0.00,,---,0.00,VWS V14.01,2013-08-08 08:06:00,
2013-08-08 04:07:00,67.1,51.8,29.03,SW,225,1.3,2.0,58,0.00,,---,0.00,VWS V14.01,2013-08-08 08:07:00,
2013-08-08 04:08:00,67.1,51.8,29.03,WSW,248,1.1,1.3,58,0.00,,---,0.00,VWS V14.01,2013-08-08 08:08:00,
2013-08-08 04:09:00,67.1,51.4,29.03,WSW,248,0.0,1.1,57,0.00,,---,0.00,VWS V14.01,2013-08-08 08:09:00,
2013-08-08 04:10:00,67.1,51.4,29.03,WSW,248,0.0,0.0,57,0.00,,---,0.00,VWS V14.01,2013-08-08 08:10:00,
2013-08-08 04:11:00,67.1,51.4,29.03,West,270,0.0,0.0,57,0.00,,---,0.00,VWS V14.01,2013-08-08 08:11:00,
2013-08-08 04:12:00,67.1,51.4,29.03,West,270,0.9,0.9,57,0.00,,---,0.00,VWS V14.01,2013-08-08 08:12:00,
2013-08-08 04:13:00,67.1,51.4,29.03,NW,315,1.6,1.6,57,0.00,,---,0.00,VWS V14.01,2013-08-08 08:13:00,
2013-08-08 04:14:00,67.1,51.4,29.03,WNW,292,1.6,1.6,57,0.00,,---,0.00,VWS V14.01,2013-08-08 08:14:00,
2013-08-08 04:15:00,67.1,51.4,29.03,WNW,292,0.0,0.0,57,0.00,,---,0.00,VWS V14.01,2013-08-08 08:15:00,
2013-08-08 04:16:00,67.1,51.4,29.03,WNW,292,1.3,1.3,57,0.00,,---,0.00,VWS V14.01,2013-08-08 08:16:00,
2013-08-08 04:17:00,67.1,51.4,29.03,WNW,292,0.0,1.3,57,0.00,,---,0.00,VWS V14.01,2013-08-08 08:17:00,
2013-08-08 04:18:00,67.1,51.4,29.03,WNW,292,2.0,2.0,57,0.00,,---,0.00,VWS V14.01,2013-08-08 08:18:00,
2013-08-08 04:19:00,67.1,51.4,29.03,WNW,292,1.1,2.0,57,0.00,,---,0.00,VWS V14.01,2013-08-08 08:19:00,
2013-08-08 04:20:00,66.9,51.2,29.03,WNW,292,0.0,1.6,57,0.00,,---,0.00,VWS V14.01,2013-08-08 08:20:00,
2013-08-08 04:21:00,66.9,51.2,29.03,WNW,292,1.6,1.6,57,0.00,,---,0.00,VWS V14.01,2013-08-08 08:21:00,
2013-08-08 04:22:00,66.9,51.2,29.03,WNW,292,1.6,1.6,57,0.00,,---,0.00,VWS V14.01,2013-08-08 08:22:00,
2013-08-08 04:23:00,66.9,51.2,29.03,WNW,292,0.0,1.6,57,0.00,,---,0.00,VWS V14.01,2013-08-08 08:23:00,
2013-08-08 04:24:00,66.9,51.2,29.03,WNW,292,0.0,0.0,57,0.00,,---,0.00,VWS V14.01,2013-08-08 08:24:00,
2013-08-08 04:25:00,66.9,51.2,29.03,WNW,292,1.6,1.6,57,0.00,,---,0.00,VWS V14.01,2013-08-08 08:25:00,
2013-08-08 04:26:00,66.9,51.2,29.03,WNW,292,1.6,1.6,57,0.00,,---,0.00,VWS V14.01,2013-08-08 08:26:00,
2013-08-08 04:27:00,66.9,51.2,29.03,WNW,292,1.6,1.6,57,0.00,,---,0.00,VWS V14.01,2013-08-08 08:27:00,
2013-08-08 04:28:00,66.9,51.7,29.03,WNW,292,1.3,1.6,58,0.00,,---,0.00,VWS V14.01,2013-08-08 08:28:00,
2013-08-08 04:29:00,66.9,51.7,29.03,WNW,292,2.2,2.2,58,0.00,,---,0.00,VWS V14.01,2013-08-08 08:29:00,
2013-08-08 04:30:00,66.7,51.5,29.03,WNW,292,2.7,2.7,58,0.00,,---,0.00,VWS V14.01,2013-08-08 08:30:00,
2013-08-08 04:31:00,66.7,51.5,29.03,WNW,292,0.0,2.7,58,0.00,,---,0.00,VWS V14.01,2013-08-08 08:31:00,
2013-08-08 04:32:00,66.7,52.0,29.03,WNW,292,1.3,1.3,59,0.00,,---,0.00,VWS V14.01,2013-08-08 08:32:00,
2013-08-08 04:33:00,66.7,52.0,29.03,WNW,292,0.0,1.3,59,0.00,,---,0.00,VWS V14.01,2013-08-08 08:33:00,
2013-08-08 04:34:00,66.6,51.3,29.03,WNW,292,0.0,0.0,58,0.00,,---,0.00,VWS V14.01,2013-08-08 08:34:00,
2013-08-08 04:35:00,66.4,52.1,29.03,WSW,248,1.6,2.0,60,0.00,,---,0.00,VWS V14.01,2013-08-08 08:35:00,
2013-08-08 04:36:00,66.4,52.1,29.03,WSW,248,1.6,2.0,60,0.00,,---,0.00,VWS V14.01,2013-08-08 08:36:00,
2013-08-08 04:37:00,66.4,52.1,29.03,West,270,2.5,2.5,60,0.00,,---,0.00,VWS V14.01,2013-08-08 08:37:00,
2013-08-08 04:38:00,66.4,52.1,29.03,West,270,1.1,2.5,60,0.00,,---,0.00,VWS V14.01,2013-08-08 08:38:00,
2013-08-08 04:39:00,66.4,52.1,29.03,West,270,0.0,1.1,60,0.00,,---,0.00,VWS V14.01,2013-08-08 08:39:00,
2013-08-08 04:40:00,66.2,51.9,29.03,West,270,0.0,0.0,60,0.00,,---,0.00,VWS V14.01,2013-08-08 08:40:00,
2013-08-08 04:41:00,66.2,51.9,29.03,West,270,0.0,0.0,60,0.00,,---,0.00,VWS V14.01,2013-08-08 08:41:00,
2013-08-08 04:42:00,66.2,51.9,29.03,West,270,0.0,0.0,60,0.00,,---,0.00,VWS V14.01,2013-08-08 08:42:00,
2013-08-08 04:43:00,66.2,51.9,29.03,WNW,292,2.5,2.5,60,0.00,,---,0.00,VWS V14.01,2013-08-08 08:43:00,
2013-08-08 04:44:00,66.0,52.2,29.03,WNW,292,0.9,2.5,61,0.00,,---,0.00,VWS V14.01,2013-08-08 08:44:00,
2013-08-08 04:45:00,66.0,52.2,29.03,WNW,292,0.0,0.0,61,0.00,,---,0.00,VWS V14.01,2013-08-08 08:45:00,
2013-08-08 04:46:00,66.0,52.2,29.03,WNW,292,1.6,1.6,61,0.00,,---,0.00,VWS V14.01,2013-08-08 08:46:00,
2013-08-08 04:47:00,66.0,52.2,29.03,West,270,2.7,2.7,61,0.00,,---,0.00,VWS V14.01,2013-08-08 08:47:00,
2013-08-08 04:48:00,66.0,53.1,29.03,NE,45,0.0,2.7,63,0.00,,---,0.00,VWS V14.01,2013-08-08 08:48:00,
2013-08-08 04:49:00,66.0,53.1,29.03,ENE,68,0.9,0.9,63,0.00,,---,0.00,VWS V14.01,2013-08-08 08:49:00,
2013-08-08 04:50:00,66.0,53.1,29.03,WSW,248,1.6,1.6,63,0.00,,---,0.00,VWS V14.01,2013-08-08 08:50:00,
2013-08-08 04:51:00,66.0,53.1,29.03,WSW,248,0.0,1.6,63,0.00,,---,0.00,VWS V14.01,2013-08-08 08:51:00,
2013-08-08 04:52:00,66.0,53.1,29.03,WSW,248,1.1,1.1,63,0.00,,---,0.00,VWS V14.01,2013-08-08 08:52:00,
2013-08-08 04:53:00,66.0,53.1,29.03,WSW,248,0.9,1.1,63,0.00,,---,0.00,VWS V14.01,2013-08-08 08:53:00,
2013-08-08 04:54:00,66.0,53.1,29.03,West,270,3.1,3.1,63,0.00,,---,0.00,VWS V14.01,2013-08-08 08:54:00,
2013-08-08 04:55:00,66.0,53.1,29.03,WNW,292,2.7,2.7,63,0.00,,---,0.00,VWS V14.01,2013-08-08 08:55:00,
2013-08-08 04:56:00,66.0,53.1,29.03,WNW,292,2.7,2.7,63,0.00,,---,0.00,VWS V14.01,2013-08-08 08:56:00,
2013-08-08 04:57:00,66.0,53.1,29.03,WNW,292,1.3,2.7,63,0.00,,---,0.00,VWS V14.01,2013-08-08 08:57:00,
2013-08-08 04:58:00,66.0,52.6,29.03,WNW,292,2.7,2.7,62,0.00,,---,0.00,VWS V14.01,2013-08-08 08:58:00,
2013-08-08 04:59:00,66.0,52.6,29.03,WNW,292,2.2,2.7,62,0.00,,---,0.00,VWS V14.01,2013-08-08 08:59:00,
2013-08-08 05:00:00,66.0,52.6,29.03,WNW,292,3.4,3.4,62,0.00,,---,0.00,VWS V14.01,2013-08-08 09:00:00,
2013-08-08 05:01:00,66.0,52.6,29.03,West,270,2.7,3.4,62,0.00,,---,0.00,VWS V14.01,2013-08-08 09:01:00,
2013-08-08 05:02:00,66.0,53.5,29.03,West,270,1.3,2.7,64,0.00,,---,0.00,VWS V14.01,2013-08-08 09:02:00,
2013-08-08 05:03:00,66.0,53.5,29.03,West,270,1.1,1.3,64,0.00,,---,0.00,VWS V14.01,2013-08-08 09:03:00,
2013-08-08 05:04:00,66.0,53.1,29.03,WNW,292,2.7,2.7,63,0.00,,---,0.00,VWS V14.01,2013-08-08 09:04:00,
2013-08-08 05:05:00,66.0,53.1,29.03,West,270,0.0,0.0,63,0.00,,---,0.00,VWS V14.01,2013-08-08 09:05:00,
2013-08-08 05:06:00,66.0,53.1,29.03,NW,315,2.9,2.9,63,0.00,,---,0.00,VWS V14.01,2013-08-08 09:06:00,
2013-08-08 05:07:00,66.0,53.5,29.03,WNW,292,1.3,2.9,64,0.00,,---,0.00,VWS V14.01,2013-08-08 09:07:00,
2013-08-08 05:08:00,66.0,53.5,29.03,West,270,3.8,3.8,64,0.00,,---,0.00,VWS V14.01,2013-08-08 09:08:00,
2013-08-08 05:09:00,66.0,53.5,29.03,WNW,292,2.0,3.8,64,0.00,,---,0.00,VWS V14.01,2013-08-08 09:09:00,
2013-08-08 05:10:00,66.0,53.5,29.03,NW,315,1.1,1.1,64,0.00,,---,0.00,VWS V14.01,2013-08-08 09:10:00,
2013-08-08 05:11:00,66.0,53.5,29.03,NW,315,1.6,1.6,64,0.00,,---,0.00,VWS V14.01,2013-08-08 09:11:00,
2013-08-08 05:12:00,66.0,53.5,29.03,NW,315,0.0,1.6,64,0.00,,---,0.00,VWS V14.01,2013-08-08 09:12:00,
2013-08-08 05:13:00,66.0,53.5,29.03,NW,315,1.1,1.1,64,0.00,,---,0.00,VWS V14.01,2013-08-08 09:13:00,
2013-08-08 05:14:00,66.0,53.9,29.03,NW,315,1.1,1.1,65,0.00,,---,0.00,VWS V14.01,2013-08-08 09:14:00,
2013-08-08 05:15:00,66.0,53.9,29.03,NW,315,0.0,0.0,65,0.00,,---,0.00,VWS V14.01,2013-08-08 09:15:00,
2013-08-08 05:16:00,66.0,53.5,29.03,NW,315,0.0,0.0,64,0.00,,---,0.00,VWS V14.01,2013-08-08 09:16:00,
2013-08-08 05:17:00,66.0,53.5,29.03,NW,315,2.5,2.5,64,0.00,,---,0.00,VWS V14.01,2013-08-08 09:17:00,
2013-08-08 05:18:00,66.0,53.5,29.03,NW,315,0.0,2.5,64,0.00,,---,0.00,VWS V14.01,2013-08-08 09:18:00,
2013-08-08 05:19:00,66.0,53.5,29.03,NW,315,0.0,0.0,64,0.00,,---,0.00,VWS V14.01,2013-08-08 09:19:00,
2013-08-08 05:20:00,66.0,53.5,29.03,SSW,202,0.0,0.0,64,0.00,,---,0.00,VWS V14.01,2013-08-08 09:20:00,
2013-08-08 05:21:00,66.0,53.5,29.03,SW,225,0.0,0.0,64,0.00,,---,0.00,VWS V14.01,2013-08-08 09:21:00,
2013-08-08 05:22:00,66.0,53.5,29.03,SE,135,0.0,0.0,64,0.00,,---,0.00,VWS V14.01,2013-08-08 09:22:00,
2013-08-08 05:23:00,65.8,53.3,29.03,SE,135,0.0,0.0,64,0.00,,---,0.00,VWS V14.01,2013-08-08 09:23:00,
2013-08-08 05:24:00,65.8,53.3,29.03,SE,135,0.0,0.0,64,0.00,,---,0.00,VWS V14.01,2013-08-08 09:24:00,
2013-08-08 05:25:00,65.7,53.2,29.03,SE,135,0.0,0.0,64,0.00,,---,0.00,VWS V14.01,2013-08-08 09:25:00,
2013-08-08 05:26:00,65.7,52.7,29.03,WNW,292,3.4,3.4,63,0.00,,---,0.00,VWS V14.01,2013-08-08 09:26:00,
2013-08-08 05:27:00,65.7,52.7,29.03,NW,315,2.2,3.4,63,0.00,,---,0.00,VWS V14.01,2013-08-08 09:27:00,
2013-08-08 05:28:00,65.7,52.7,29.03,NNW,338,1.3,2.2,63,0.00,,---,0.00,VWS V14.01,2013-08-08 09:28:00,
2013-08-08 05:29:00,65.8,53.8,29.03,NW,315,1.1,1.3,65,0.00,,---,0.00,VWS V14.01,2013-08-08 09:29:00,
2013-08-08 05:30:00,65.8,53.8,29.03,West,270,0.0,0.9,65,0.00,,---,0.00,VWS V14.01,2013-08-08 09:30:00,
2013-08-08 05:31:00,65.8,53.8,29.03,West,270,0.0,0.9,65,0.00,,---,0.00,VWS V14.01,2013-08-08 09:31:00,
2013-08-08 05:32:00,65.8,53.3,29.03,West,270,0.0,0.0,64,0.00,,---,0.00,VWS V14.01,2013-08-08 09:32:00,
2013-08-08 05:33:00,65.8,53.3,29.03,West,270,0.0,0.0,64,0.00,,---,0.00,VWS V14.01,2013-08-08 09:33:00,
2013-08-08 05:34:00,65.7,53.6,29.03,NNW,338,0.0,0.0,65,0.00,,---,0.00,VWS V14.01,2013-08-08 09:34:00,
2013-08-08 05:35:00,65.8,54.2,29.03,NNE,22,1.3,2.2,66,0.00,,---,0.00,VWS V14.01,2013-08-08 09:35:00,
2013-08-08 05:36:00,65.8,54.2,29.03,NNW,338,2.5,2.5,66,0.00,,---,0.00,VWS V14.01,2013-08-08 09:36:00,
2013-08-08 05:37:00,66.0,54.3,29.03,NW,315,1.6,2.5,66,0.00,,---,0.00,VWS V14.01,2013-08-08 09:37:00,
2013-08-08 05:38:00,66.0,54.3,29.03,NW,315,0.9,1.6,66,0.00,,---,0.00,VWS V14.01,2013-08-08 09:38:00,
2013-08-08 05:39:00,65.8,53.8,29.03,NW,315,2.5,2.5,65,0.00,,---,0.00,VWS V14.01,2013-08-08 09:39:00,
2013-08-08 05:40:00,65.8,54.2,29.03,ESE,112,2.0,2.5,66,0.00,,---,0.00,VWS V14.01,2013-08-08 09:40:00,
2013-08-08 05:41:00,65.8,54.2,29.03,ESE,112,2.0,2.5,66,0.00,,---,0.00,VWS V14.01,2013-08-08 09:41:00,
2013-08-08 05:42:00,65.8,54.2,29.03,SE,135,0.9,2.0,66,0.00,,---,0.00,VWS V14.01,2013-08-08 09:42:00,
2013-08-08 05:43:00,65.8,54.2,29.03,NNE,22,0.9,0.9,66,0.00,,---,0.00,VWS V14.01,2013-08-08 09:43:00,
2013-08-08 05:44:00,65.8,54.2,29.03,NNE,22,0.0,0.9,66,0.00,,---,0.00,VWS V14.01,2013-08-08 09:44:00,
2013-08-08 05:45:00,65.8,54.2,29.03,NNE,22,1.1,1.1,66,0.00,,---,0.00,VWS V14.01,2013-08-08 09:45:00,
2013-08-08 05:46:00,66.0,53.9,29.03,NW,315,2.7,2.7,65,0.00,,---,0.00,VWS V14.01,2013-08-08 09:46:00,
2013-08-08 05:47:00,66.0,53.9,29.03,NW,315,1.1,2.7,65,0.00,,---,0.00,VWS V14.01,2013-08-08 09:47:00,
2013-08-08 05:48:00,65.8,53.8,29.03,NW,315,0.0,1.1,65,0.00,,---,0.00,VWS V14.01,2013-08-08 09:48:00,
2013-08-08 05:49:00,65.8,53.8,29.03,NW,315,0.0,0.0,65,0.00,,---,0.00,VWS V14.01,2013-08-08 09:49:00,
2013-08-08 05:50:00,65.8,53.8,29.03,NW,315,0.0,0.0,65,0.00,,---,0.00,VWS V14.01,2013-08-08 09:50:00,
2013-08-08 05:51:00,65.8,53.8,29.03,NW,315,0.0,0.0,65,0.00,,---,0.00,VWS V14.01,2013-08-08 09:51:00,
2013-08-08 05:52:00,65.8,53.8,29.03,WNW,292,0.0,1.3,65,0.00,,---,0.00,VWS V14.01,2013-08-08 09:52:00,
2013-08-08 05:53:00,65.8,53.8,29.03,NNE,22,0.0,0.0,65,0.00,,---,0.00,VWS V14.01,2013-08-08 09:53:00,
2013-08-08 05:54:00,65.8,53.8,29.03,NNE,22,2.7,2.7,65,0.00,,---,0.00,VWS V14.01,2013-08-08 09:54:00,
2013-08-08 05:55:00,65.8,54.2,29.03,NNE,22,0.0,0.0,66,0.00,,---,0.00,VWS V14.01,2013-08-08 09:55:00,
2013-08-08 05:56:00,65.8,54.2,29.03,NNE,22,0.0,0.0,66,0.00,,---,0.00,VWS V14.01,2013-08-08 09:56:00,
2013-08-08 05:57:00,65.8,54.2,29.03,NNE,22,1.6,1.6,66,0.00,,---,0.00,VWS V14.01,2013-08-08 09:57:00,
2013-08-08 05:58:00,65.8,54.2,29.03,NNE,22,0.9,1.6,66,0.00,,---,0.00,VWS V14.01,2013-08-08 09:58:00,
2013-08-08 05:59:00,65.8,54.2,29.03,NNE,22,0.0,0.9,66,0.00,,---,0.00,VWS V14.01,2013-08-08 09:59:00,
2013-08-08 06:00:00,65.8,54.2,29.03,NNE,22,0.0,0.0,66,0.00,,---,0.00,VWS V14.01,2013-08-08 10:00:00,
2013-08-08 06:01:00,65.8,54.2,29.03,NNE,22,0.0,0.0,66,0.00,,---,0.00,VWS V14.01,2013-08-08 10:01:00,
2013-08-08 06:02:00,65.8,54.2,29.03,NNE,22,0.0,0.0,66,0.00,,---,0.00,VWS V14.01,2013-08-08 10:02:00,
2013-08-08 06:03:00,65.8,54.2,29.03,NNW,338,2.9,2.9,66,0.00,,---,0.00,VWS V14.01,2013-08-08 10:03:00,
2013-08-08 06:04:00,66.0,53.5,29.03,NNW,338,0.9,2.9,64,0.00,,---,0.00,VWS V14.01,2013-08-08 10:04:00,
2013-08-08 06:05:00,66.0,53.9,29.03,NW,315,0.0,0.9,65,0.00,,---,0.00,VWS V14.01,2013-08-08 10:05:00,
2013-08-08 06:06:00,66.0,53.9,29.03,NW,315,0.0,0.9,65,0.00,,---,0.00,VWS V14.01,2013-08-08 10:06:00,
2013-08-08 06:07:00,66.0,53.5,29.03,NNW,338,6.5,6.5,64,0.00,,---,0.00,VWS V14.01,2013-08-08 10:07:00,
2013-08-08 06:08:00,66.0,53.5,29.03,NNW,338,3.1,6.5,64,0.00,,---,0.00,VWS V14.01,2013-08-08 10:08:00,
2013-08-08 06:09:00,66.0,54.3,29.03,WNW,292,2.0,3.1,66,0.00,,---,0.00,VWS V14.01,2013-08-08 10:09:00,
2013-08-08 06:10:00,66.0,54.3,29.03,WNW,292,2.0,2.0,66,0.00,,---,0.00,VWS V14.01,2013-08-08 10:10:00,
2013-08-08 06:11:00,66.2,54.1,29.03,WNW,292,0.0,2.0,65,0.00,,---,0.00,VWS V14.01,2013-08-08 10:11:00,
2013-08-08 06:12:00,66.2,54.1,29.03,WNW,292,1.6,1.6,65,0.00,,---,0.00,VWS V14.01,2013-08-08 10:12:00,
2013-08-08 06:13:00,66.2,54.1,29.03,WNW,292,0.0,1.6,65,0.00,,---,0.00,VWS V14.01,2013-08-08 10:13:00,
2013-08-08 06:14:00,66.2,54.1,29.03,WNW,292,0.0,0.0,65,0.00,,---,0.00,VWS V14.01,2013-08-08 10:14:00,
2013-08-08 06:15:00,66.2,54.1,29.03,WNW,292,2.7,2.7,65,0.00,,---,0.00,VWS V14.01,2013-08-08 10:15:00,
2013-08-08 06:16:00,66.2,54.1,29.03,West,270,2.0,2.7,65,0.00,,---,0.00,VWS V14.01,2013-08-08 10:16:00,
2013-08-08 06:17:00,66.2,54.1,29.03,West,270,0.9,2.0,65,0.00,,---,0.00,VWS V14.01,2013-08-08 10:17:00,
2013-08-08 06:18:00,66.2,54.5,29.03,West,270,2.7,2.7,66,0.00,,---,0.00,VWS V14.01,2013-08-08 10:18:00,
2013-08-08 06:19:00,66.2,54.5,29.03,West,270,2.0,2.7,66,0.00,,---,0.00,VWS V14.01,2013-08-08 10:19:00,
2013-08-08 06:20:00,66.2,54.5,29.03,West,270,1.3,2.0,66,0.00,,---,0.00,VWS V14.01,2013-08-08 10:20:00,
2013-08-08 06:21:00,66.2,54.5,29.03,West,270,1.3,1.3,66,0.00,,---,0.00,VWS V14.01,2013-08-08 10:21:00,
2013-08-08 06:22:00,66.0,54.3,29.03,West,270,0.0,1.3,66,0.00,,---,0.00,VWS V14.01,2013-08-08 10:22:00,
2013-08-08 06:23:00,66.0,54.3,29.03,WNW,292,0.0,0.0,66,0.00,,---,0.00,VWS V14.01,2013-08-08 10:23:00,
2013-08-08 06:24:00,66.0,54.3,29.03,WNW,292,1.3,2.0,66,0.00,,---,0.00,VWS V14.01,2013-08-08 10:24:00,
2013-08-08 06:25:00,66.0,54.8,29.03,NW,315,2.5,2.5,67,0.00,,---,0.00,VWS V14.01,2013-08-08 10:25:00,
2013-08-08 06:26:00,66.0,54.8,29.03,NNW,338,2.0,2.5,67,0.00,,---,0.00,VWS V14.01,2013-08-08 10:26:00,
2013-08-08 06:27:00,65.8,54.2,29.03,NNW,338,1.3,2.0,66,0.00,,---,0.00,VWS V14.01,2013-08-08 10:27:00,
2013-08-08 06:28:00,65.8,54.2,29.03,NNW,338,0.0,1.3,66,0.00,,---,0.00,VWS V14.01,2013-08-08 10:28:00,
2013-08-08 06:29:00,65.8,54.2,29.03,NNW,338,0.0,0.0,66,0.00,,---,0.00,VWS V14.01,2013-08-08 10:29:00,
2013-08-08 06:30:00,65.7,54.0,29.03,NNW,338,0.0,0.0,66,0.00,,---,0.00,VWS V14.01,2013-08-08 10:30:00,
2013-08-08 06:31:00,65.7,54.0,29.03,NNE,22,1.6,1.6,66,0.00,,---,0.00,VWS V14.01,2013-08-08 10:31:00,
2013-08-08 06:32:00,65.7,54.0,29.03,ESE,112,0.9,1.6,66,0.00,,---,0.00,VWS V14.01,2013-08-08 10:32:00,
2013-08-08 06:33:00,65.7,54.0,29.03,ESE,112,0.9,0.9,66,0.00,,---,0.00,VWS V14.01,2013-08-08 10:33:00,
2013-08-08 06:34:00,65.7,54.0,29.03,NNE,22,2.7,2.7,66,0.00,,---,0.00,VWS V14.01,2013-08-08 10:34:00,
2013-08-08 06:35:00,65.7,54.0,29.03,NNE,22,0.0,0.0,66,0.00,,---,0.00,VWS V14.01,2013-08-08 10:35:00,
2013-08-08 06:36:00,65.7,54.0,29.03,NNE,22,0.0,0.0,66,0.00,,---,0.00,VWS V14.01,2013-08-08 10:36:00,
2013-08-08 06:37:00,65.7,54.0,29.03,NNE,22,0.0,0.0,66,0.00,,---,0.00,VWS V14.01,2013-08-08 10:37:00,
2013-08-08 06:38:00,65.7,54.0,29.03,NNE,22,0.0,0.0,66,0.00,,---,0.00,VWS V14.01,2013-08-08 10:38:00,
2013-08-08 06:39:00,65.7,54.0,29.03,NNE,22,0.0,0.0,66,0.00,,---,0.00,VWS V14.01,2013-08-08 10:39:00,
2013-08-08 06:40:00,65.7,54.0,29.03,NE,45,0.0,0.0,66,0.00,,---,0.00,VWS V14.01,2013-08-08 10:40:00,
2013-08-08 06:41:00,65.7,54.0,29.03,ENE,68,3.1,3.1,66,0.00,,---,0.00,VWS V14.01,2013-08-08 10:41:00,
2013-08-08 06:42:00,65.7,54.0,29.03,ENE,68,1.6,3.1,66,0.00,,---,0.00,VWS V14.01,2013-08-08 10:42:00,
2013-08-08 06:43:00,65.8,55.8,29.03,NNE,22,0.9,1.6,70,0.00,,---,0.00,VWS V14.01,2013-08-08 10:43:00,
2013-08-08 06:44:00,66.0,55.2,29.03,NNE,22,0.0,0.9,68,0.00,,---,0.00,VWS V14.01,2013-08-08 10:44:00,
2013-08-08 06:45:00,66.0,55.2,29.03,NNE,22,0.0,0.0,68,0.00,,---,0.00,VWS V14.01,2013-08-08 10:45:00,
2013-08-08 06:46:00,66.0,55.2,29.03,ENE,68,1.3,1.3,68,0.00,,---,0.00,VWS V14.01,2013-08-08 10:46:00,
2013-08-08 06:47:00,66.0,55.2,29.03,ENE,68,0.0,1.3,68,0.00,,---,0.00,VWS V14.01,2013-08-08 10:47:00,
2013-08-08 06:48:00,66.2,54.9,29.03,ENE,68,1.3,1.3,67,0.00,,---,0.00,VWS V14.01,2013-08-08 10:48:00,
2013-08-08 06:49:00,66.2,54.9,29.03,ESE,112,0.0,1.3,67,0.00,,---,0.00,VWS V14.01,2013-08-08 10:49:00,
2013-08-08 06:50:00,66.2,54.9,29.03,NNE,22,1.6,1.6,67,0.00,,---,0.00,VWS V14.01,2013-08-08 10:50:00,
2013-08-08 06:51:00,66.4,55.1,29.03,ENE,68,2.0,2.0,67,0.00,,---,0.00,VWS V14.01,2013-08-08 10:51:00,
2013-08-08 06:52:00,66.4,55.1,29.03,ENE,68,2.7,2.7,67,0.00,,---,0.00,VWS V14.01,2013-08-08 10:52:00,
2013-08-08 06:53:00,66.4,55.1,29.03,East,90,2.0,2.7,67,0.00,,---,0.00,VWS V14.01,2013-08-08 10:53:00,
2013-08-08 06:54:00,66.4,55.1,29.03,NE,45,0.9,2.0,67,0.00,,---,0.00,VWS V14.01,2013-08-08 10:54:00,
2013-08-08 06:55:00,66.4,55.1,29.03,WNW,292,1.1,1.1,67,0.00,,---,0.00,VWS V14.01,2013-08-08 10:55:00,
2013-08-08 06:56:00,66.4,55.1,29.03,East,90,2.7,2.7,67,0.00,,---,0.00,VWS V14.01,2013-08-08 10:56:00,
2013-08-08 06:57:00,66.4,55.1,29.03,ENE,68,2.2,2.7,67,0.00,,---,0.00,VWS V14.01,2013-08-08 10:57:00,
2013-08-08 06:58:00,66.4,55.1,29.03,SSE,158,2.7,2.7,67,0.00,,---,0.00,VWS V14.01,2013-08-08 10:58:00,
2013-08-08 06:59:00,66.4,55.1,29.03,SSE,158,2.7,2.7,67,0.00,,---,0.00,VWS V14.01,2013-08-08 10:59:00,
2013-08-08 07:00:00,66.6,55.3,29.03,SSE,158,2.7,2.7,67,0.00,,---,0.00,VWS V14.01,2013-08-08 11:00:00,
2013-08-08 07:01:00,66.6,55.3,29.03,NNW,338,0.0,2.7,67,0.00,,---,0.00,VWS V14.01,2013-08-08 11:01:00,
2013-08-08 07:02:00,66.7,55.5,29.03,NNW,338,0.0,0.0,67,0.00,,---,0.00,VWS V14.01,2013-08-08 11:02:00,
2013-08-08 07:03:00,66.7,55.5,29.03,NNW,338,0.0,0.0,67,0.00,,---,0.00,VWS V14.01,2013-08-08 11:03:00,
2013-08-08 07:04:00,66.9,55.6,29.03,NNW,338,0.0,0.0,67,0.00,,---,0.00,VWS V14.01,2013-08-08 11:04:00,
2013-08-08 07:05:00,66.9,55.6,29.03,NNW,338,0.0,0.0,67,0.00,,---,0.00,VWS V14.01,2013-08-08 11:05:00,
2013-08-08 07:06:00,66.9,55.6,29.06,NNW,338,0.0,0.0,67,0.00,,---,0.00,VWS V14.01,2013-08-08 11:06:00,
2013-08-08 07:07:00,67.1,55.4,29.06,NW,315,1.1,1.1,66,0.00,,---,0.00,VWS V14.01,2013-08-08 11:07:00,
2013-08-08 07:08:00,67.1,55.4,29.06,ESE,112,3.6,3.6,66,0.00,,---,0.00,VWS V14.01,2013-08-08 11:08:00,
2013-08-08 07:09:00,67.1,55.8,29.06,ESE,112,0.9,3.6,67,0.00,,---,0.00,VWS V14.01,2013-08-08 11:09:00,
2013-08-08 07:10:00,67.1,55.8,29.06,East,90,2.7,2.7,67,0.00,,---,0.00,VWS V14.01,2013-08-08 11:10:00,
2013-08-08 07:11:00,67.1,55.8,29.06,NNW,338,1.6,2.7,67,0.00,,---,0.00,VWS V14.01,2013-08-08 11:11:00,
2013-08-08 07:12:00,67.1,55.8,29.06,WNW,292,0.0,1.6,67,0.00,,---,0.00,VWS V14.01,2013-08-08 11:12:00,
2013-08-08 07:13:00,67.5,56.1,29.06,WNW,292,0.0,0.0,67,0.00,,---,0.00,VWS V14.01,2013-08-08 11:13:00,
2013-08-08 07:14:00,67.5,56.1,29.06,WNW,292,0.0,0.0,67,0.00,,---,0.00,VWS V14.01,2013-08-08 11:14:00,
2013-08-08 07:15:00,67.6,56.3,29.06,WNW,292,0.0,0.0,67,0.00,,---,0.00,VWS V14.01,2013-08-08 11:15:00,
2013-08-08 07:16:00,67.8,56.5,29.06,WNW,292,0.0,0.0,67,0.00,,---,0.00,VWS V14.01,2013-08-08 11:16:00,
2013-08-08 07:17:00,67.8,56.5,29.06,WNW,292,3.4,3.4,67,0.00,,---,0.00,VWS V14.01,2013-08-08 11:17:00,
2013-08-08 07:18:00,68.0,56.2,29.06,WNW,292,0.9,3.4,66,0.00,,---,0.00,VWS V14.01,2013-08-08 11:18:00,
2013-08-08 07:19:00,68.0,56.2,29.06,WNW,292,0.9,0.9,66,0.00,,---,0.00,VWS V14.01,2013-08-08 11:19:00,
2013-08-08 07:20:00,68.0,55.8,29.06,WNW,292,0.9,0.9,65,0.00,,---,0.00,VWS V14.01,2013-08-08 11:20:00,
2013-08-08 07:21:00,68.2,56.0,29.06,WNW,292,0.0,0.0,65,0.00,,---,0.00,VWS V14.01,2013-08-08 11:21:00,
2013-08-08 07:22:00,68.2,56.0,29.06,NW,315,2.0,2.0,65,0.00,,---,0.00,VWS V14.01,2013-08-08 11:22:00,
2013-08-08 07:23:00,68.4,56.2,29.06,NW,315,2.0,2.0,65,0.00,,---,0.00,VWS V14.01,2013-08-08 11:23:00,
2013-08-08 07:24:00,68.4,56.2,29.06,SSE,158,2.5,2.5,65,0.00,,---,0.00,VWS V14.01,2013-08-08 11:24:00,
2013-08-08 07:25:00,68.5,56.3,29.06,SSW,202,0.0,2.5,65,0.00,,---,0.00,VWS V14.01,2013-08-08 11:25:00,
2013-08-08 07:26:00,68.5,56.3,29.06,NE,45,1.1,1.1,65,0.00,,---,0.00,VWS V14.01,2013-08-08 11:26:00,
2013-08-08 07:27:00,68.5,56.3,29.06,NW,315,2.5,2.5,65,0.00,,---,0.00,VWS V14.01,2013-08-08 11:27:00,
2013-08-08 07:28:00,68.5,56.3,29.06,NW,315,2.5,2.5,65,0.00,,---,0.00,VWS V14.01,2013-08-08 11:28:00,
2013-08-08 07:29:00,68.5,56.3,29.06,NW,315,2.5,2.5,65,0.00,,---,0.00,VWS V14.01,2013-08-08 11:29:00,
2013-08-08 07:30:00,68.5,56.3,29.06,ENE,68,2.5,2.5,65,0.00,,---,0.00,VWS V14.01,2013-08-08 11:30:00,
2013-08-08 07:31:00,68.5,56.3,29.06,WNW,292,2.5,2.5,65,0.00,,---,0.00,VWS V14.01,2013-08-08 11:31:00,
2013-08-08 07:32:00,68.5,55.9,29.06,NNW,338,2.0,2.5,64,0.00,,---,0.00,VWS V14.01,2013-08-08 11:32:00,
2013-08-08 07:33:00,68.5,55.9,29.06,NNW,338,2.0,2.0,64,0.00,,---,0.00,VWS V14.01,2013-08-08 11:33:00,
2013-08-08 07:34:00,68.5,55.9,29.06,NNW,338,0.9,2.0,64,0.00,,---,0.00,VWS V14.01,2013-08-08 11:34:00,
2013-08-08 07:35:00,68.5,55.9,29.06,NNW,338,0.9,0.9,64,0.00,,---,0.00,VWS V14.01,2013-08-08 11:35:00,
2013-08-08 07:36:00,68.5,55.9,29.06,SSE,158,2.0,2.0,64,0.00,,---,0.00,VWS V14.01,2013-08-08 11:36:00,
2013-08-08 07:37:00,68.4,56.2,29.06,SSE,158,2.0,2.0,65,0.00,,---,0.00,VWS V14.01,2013-08-08 11:37:00,
2013-08-08 07:38:00,68.4,56.2,29.06,West,270,2.0,2.0,65,0.00,,---,0.00,VWS V14.01,2013-08-08 11:38:00,
2013-08-08 07:39:00,68.4,56.2,29.06,NNW,338,2.5,2.5,65,0.00,,---,0.00,VWS V14.01,2013-08-08 11:39:00,
2013-08-08 07:40:00,68.4,56.2,29.06,NW,315,2.5,2.5,65,0.00,,---,0.00,VWS V14.01,2013-08-08 11:40:00,
2013-08-08 07:41:00,68.4,55.7,29.06,WNW,292,0.0,2.5,64,0.00,,---,0.00,VWS V14.01,2013-08-08 11:41:00,
2013-08-08 07:42:00,68.5,55.9,29.06,WNW,292,0.0,0.0,64,0.00,,---,0.00,VWS V14.01,2013-08-08 11:42:00,
2013-08-08 07:43:00,68.5,55.9,29.06,WNW,292,0.9,0.9,64,0.00,,---,0.00,VWS V14.01,2013-08-08 11:43:00,
2013-08-08 07:44:00,68.7,56.1,29.06,WNW,292,1.3,1.3,64,0.00,,---,0.00,VWS V14.01,2013-08-08 11:44:00,
2013-08-08 07:45:00,68.7,56.1,29.06,NNE,22,3.1,3.1,64,0.00,,---,0.00,VWS V14.01,2013-08-08 11:45:00,
2013-08-08 07:46:00,68.7,56.5,29.06,WNW,292,1.3,3.1,65,0.00,,---,0.00,VWS V14.01,2013-08-08 11:46:00,
2013-08-08 07:47:00,68.7,56.5,29.06,WNW,292,0.0,1.3,65,0.00,,---,0.00,VWS V14.01,2013-08-08 11:47:00,
2013-08-08 07:48:00,68.7,56.5,29.06,WNW,292,2.0,2.0,65,0.00,,---,0.00,VWS V14.01,2013-08-08 11:48:00,
2013-08-08 07:49:00,68.7,56.5,29.06,WNW,292,0.0,2.0,65,0.00,,---,0.00,VWS V14.01,2013-08-08 11:49:00,
2013-08-08 07:50:00,68.9,56.2,29.06,WNW,292,0.0,0.0,64,0.00,,---,0.00,VWS V14.01,2013-08-08 11:50:00,
2013-08-08 07:51:00,68.9,56.2,29.06,WNW,292,0.9,0.9,64,0.00,,---,0.00,VWS V14.01,2013-08-08 11:51:00,
2013-08-08 07:52:00,69.1,56.4,29.06,WNW,292,0.0,0.9,64,0.00,,---,0.00,VWS V14.01,2013-08-08 11:52:00,
2013-08-08 07:53:00,69.1,56.4,29.06,WNW,292,0.0,0.0,64,0.00,,---,0.00,VWS V14.01,2013-08-08 11:53:00,
2013-08-08 07:54:00,69.1,56.4,29.06,WNW,292,0.0,0.0,64,0.00,,---,0.00,VWS V14.01,2013-08-08 11:54:00,
2013-08-08 07:55:00,69.4,57.2,29.06,WNW,292,0.0,0.0,65,0.00,,---,0.00,VWS V14.01,2013-08-08 11:55:00,
2013-08-08 07:56:00,69.4,57.2,29.06,WNW,292,0.0,0.0,65,0.00,,---,0.00,VWS V14.01,2013-08-08 11:56:00,
2013-08-08 07:57:00,70.0,57.3,29.06,WNW,292,1.3,1.3,64,0.00,,---,0.00,VWS V14.01,2013-08-08 11:57:00,
2013-08-08 07:58:00,70.3,57.6,29.06,WNW,292,1.1,1.3,64,0.00,,---,0.00,VWS V14.01,2013-08-08 11:58:00,
2013-08-08 07:59:00,70.3,57.6,29.06,WNW,292,0.0,1.1,64,0.00,,---,0.00,VWS V14.01,2013-08-08 11:59:00,
2013-08-08 08:00:00,70.9,58.1,29.06,WNW,292,0.0,0.0,64,0.00,,---,0.00,VWS V14.01,2013-08-08 12:00:00,
2013-08-08 08:01:00,70.9,58.1,29.06,WNW,292,0.0,0.0,64,0.00,,---,0.00,VWS V14.01,2013-08-08 12:01:00,
2013-08-08 08:02:00,70.7,57.5,29.06,WNW,292,0.0,0.0,63,0.00,,---,0.00,VWS V14.01,2013-08-08 12:02:00,
2013-08-08 08:03:00,70.7,57.5,29.06,West,270,1.1,2.0,63,0.00,,---,0.00,VWS V14.01,2013-08-08 12:03:00,
2013-08-08 08:04:00,70.5,56.9,29.06,WSW,248,1.3,1.3,62,0.00,,---,0.00,VWS V14.01,2013-08-08 12:04:00,
2013-08-08 08:05:00,70.5,56.9,29.06,SSW,202,1.3,1.3,62,0.00,,---,0.00,VWS V14.01,2013-08-08 12:05:00,
2013-08-08 08:06:00,70.9,57.7,29.06,WSW,248,0.0,1.3,63,0.00,,---,0.00,VWS V14.01,2013-08-08 12:06:00,
2013-08-08 08:07:00,70.9,57.7,29.06,WSW,248,0.0,0.0,63,0.00,,---,0.00,VWS V14.01,2013-08-08 12:07:00,
2013-08-08 08:08:00,71.2,57.6,29.06,WSW,248,0.0,0.0,62,0.00,,---,0.00,VWS V14.01,2013-08-08 12:08:00,
2013-08-08 08:09:00,71.6,57.9,29.06,WSW,248,1.6,1.6,62,0.00,,---,0.00,VWS V14.01,2013-08-08 12:09:00,
2013-08-08 08:10:00,71.6,57.9,29.06,WNW,292,2.9,2.9,62,0.00,,---,0.00,VWS V14.01,2013-08-08 12:10:00,
2013-08-08 08:11:00,72.0,58.2,29.06,WNW,292,2.9,2.9,62,0.00,,---,0.00,VWS V14.01,2013-08-08 12:11:00,
2013-08-08 08:12:00,72.0,58.2,29.06,WNW,292,1.6,2.9,62,0.00,,---,0.00,VWS V14.01,2013-08-08 12:12:00,
2013-08-08 08:13:00,72.5,58.3,29.06,WSW,248,1.6,1.6,61,0.00,,---,0.00,VWS V14.01,2013-08-08 12:13:00,
2013-08-08 08:14:00,73.2,59.0,29.06,SW,225,0.0,1.6,61,0.00,,---,0.00,VWS V14.01,2013-08-08 12:14:00,
2013-08-08 08:15:00,73.2,59.0,29.06,SW,225,1.1,1.1,61,0.00,,---,0.00,VWS V14.01,2013-08-08 12:15:00,
2013-08-08 08:16:00,74.1,59.4,29.06,WSW,248,2.0,2.2,60,0.00,,---,0.00,VWS V14.01,2013-08-08 12:16:00,
2013-08-08 08:17:00,74.1,59.4,29.06,WNW,292,2.0,2.0,60,0.00,,---,0.00,VWS V14.01,2013-08-08 12:17:00,
2013-08-08 08:18:00,74.5,59.7,29.06,West,270,0.0,2.0,60,0.00,,---,0.00,VWS V14.01,2013-08-08 12:18:00,
2013-08-08 08:19:00,74.5,59.7,29.06,West,270,0.0,0.0,60,0.00,,---,0.00,VWS V14.01,2013-08-08 12:19:00,
2013-08-08 08:20:00,75.0,58.8,29.06,NNW,338,0.0,0.0,57,0.00,,---,0.00,VWS V14.01,2013-08-08 12:20:00,
2013-08-08 08:21:00,75.0,58.8,29.06,NNW,338,2.2,2.2,57,0.00,,---,0.00,VWS V14.01,2013-08-08 12:21:00,
2013-08-08 08:22:00,74.1,57.4,29.06,NNW,338,0.0,2.2,56,0.00,,---,0.00,VWS V14.01,2013-08-08 12:22:00,
2013-08-08 08:23:00,74.7,58.4,29.06,NNW,338,2.7,2.7,57,0.00,,---,0.00,VWS V14.01,2013-08-08 12:23:00,
2013-08-08 08:24:00,74.7,58.4,29.06,NNW,338,0.9,2.7,57,0.00,,---,0.00,VWS V14.01,2013-08-08 12:24:00,
2013-08-08 08:25:00,73.9,56.3,29.06,NNW,338,0.0,0.9,54,0.00,,---,0.00,VWS V14.01,2013-08-08 12:25:00,
2013-08-08 08:26:00,73.9,56.3,29.06,NNW,338,1.1,1.1,54,0.00,,---,0.00,VWS V14.01,2013-08-08 12:26:00,
2013-08-08 08:27:00,73.8,56.6,29.06,NNW,338,1.1,1.1,55,0.00,,---,0.00,VWS V14.01,2013-08-08 12:27:00,
2013-08-08 08:28:00,73.8,56.6,29.06,NNW,338,0.0,1.1,55,0.00,,---,0.00,VWS V14.01,2013-08-08 12:28:00,
2013-08-08 08:29:00,73.8,56.6,29.06,NNW,338,0.0,0.0,55,0.00,,---,0.00,VWS V14.01,2013-08-08 12:29:00,
2013-08-08 08:30:00,73.9,57.3,29.06,NNW,338,0.0,0.0,56,0.00,,---,0.00,VWS V14.01,2013-08-08 12:30:00,
2013-08-08 08:31:00,73.9,57.3,29.06,WNW,292,1.6,1.6,56,0.00,,---,0.00,VWS V14.01,2013-08-08 12:31:00,
2013-08-08 08:32:00,74.3,57.1,29.06,WNW,292,2.2,2.2,55,0.00,,---,0.00,VWS V14.01,2013-08-08 12:32:00,
2013-08-08 08:33:00,74.3,57.1,29.06,NNW,338,2.5,2.5,55,0.00,,---,0.00,VWS V14.01,2013-08-08 12:33:00,
2013-08-08 08:34:00,74.1,56.4,29.06,NNW,338,1.6,2.5,54,0.00,,---,0.00,VWS V14.01,2013-08-08 12:34:00,
2013-08-08 08:35:00,74.1,56.4,29.06,NNW,338,0.0,1.6,54,0.00,,---,0.00,VWS V14.01,2013-08-08 12:35:00,
2013-08-08 08:36:00,74.3,57.1,29.06,NNW,338,0.0,0.0,55,0.00,,---,0.00,VWS V14.01,2013-08-08 12:36:00,
2013-08-08 08:37:00,74.5,57.3,29.06,NNW,338,0.0,0.0,55,0.00,,---,0.00,VWS V14.01,2013-08-08 12:37:00,
2013-08-08 08:38:00,74.5,57.3,29.06,NNW,338,0.0,0.0,55,0.00,,---,0.00,VWS V14.01,2013-08-08 12:38:00,
2013-08-08 08:39:00,74.3,57.1,29.06,WNW,292,0.0,1.6,55,0.00,,---,0.00,VWS V14.01,2013-08-08 12:39:00,
2013-08-08 08:40:00,74.3,57.1,29.06,WNW,292,0.0,1.6,55,0.00,,---,0.00,VWS V14.01,2013-08-08 12:40:00,
2013-08-08 08:41:00,73.9,56.8,29.06,WNW,292,2.7,2.7,55,0.00,,---,0.00,VWS V14.01,2013-08-08 12:41:00,
2013-08-08 08:42:00,73.9,56.8,29.06,WNW,292,2.7,2.7,55,0.00,,---,0.00,VWS V14.01,2013-08-08 12:42:00,
2013-08-08 08:43:00,74.1,56.9,29.06,WNW,292,2.7,2.7,55,0.00,,---,0.00,VWS V14.01,2013-08-08 12:43:00,
2013-08-08 08:44:00,73.9,56.8,29.06,WNW,292,2.2,2.2,55,0.00,,---,0.00,VWS V14.01,2013-08-08 12:44:00,
2013-08-08 08:45:00,73.9,56.8,29.06,West,270,2.9,2.9,55,0.00,,---,0.00,VWS V14.01,2013-08-08 12:45:00,
2013-08-08 08:46:00,74.5,57.3,29.06,West,270,2.9,2.9,55,0.00,,---,0.00,VWS V14.01,2013-08-08 12:46:00,
2013-08-08 08:47:00,74.5,57.3,29.06,West,270,2.9,2.9,55,0.00,,---,0.00,VWS V14.01,2013-08-08 12:47:00,
2013-08-08 08:48:00,74.3,57.1,29.06,West,270,2.9,2.9,55,0.00,,---,0.00,VWS V14.01,2013-08-08 12:48:00,
2013-08-08 08:49:00,73.9,56.8,29.06,West,270,2.5,2.9,55,0.00,,---,0.00,VWS V14.01,2013-08-08 12:49:00,
2013-08-08 08:50:00,73.9,56.8,29.06,West,270,2.5,2.9,55,0.00,,---,0.00,VWS V14.01,2013-08-08 12:50:00,
2013-08-08 08:51:00,73.6,55.9,29.06,West,270,2.5,2.5,54,0.00,,---,0.00,VWS V14.01,2013-08-08 12:51:00,
2013-08-08 08:52:00,73.6,55.9,29.06,West,270,2.5,2.5,54,0.00,,---,0.00,VWS V14.01,2013-08-08 12:52:00,
2013-08-08 08:53:00,72.9,55.3,29.06,West,270,2.5,2.5,54,0.00,,---,0.00,VWS V14.01,2013-08-08 12:53:00,
2013-08-08 08:54:00,72.7,55.6,29.06,NW,315,2.5,2.5,55,0.00,,---,0.00,VWS V14.01,2013-08-08 12:54:00,
2013-08-08 08:55:00,72.7,55.6,29.06,NW,315,2.5,2.5,55,0.00,,---,0.00,VWS V14.01,2013-08-08 12:55:00,
2013-08-08 08:56:00,72.7,55.6,29.06,NW,315,2.5,2.5,55,0.00,,---,0.00,VWS V14.01,2013-08-08 12:56:00,
2013-08-08 08:57:00,72.7,55.6,29.06,NW,315,1.1,2.5,55,0.00,,---,0.00,VWS V14.01,2013-08-08 12:57:00,
2013-08-08 08:58:00,72.7,55.6,29.06,NW,315,1.1,1.1,55,0.00,,---,0.00,VWS V14.01,2013-08-08 12:58:00,
2013-08-08 08:59:00,72.7,55.6,29.06,NW,315,0.0,0.0,55,0.00,,---,0.00,VWS V14.01,2013-08-08 12:59:00,
2013-08-08 09:00:00,72.7,55.6,29.06,NW,315,0.0,0.0,55,0.00,,---,0.00,VWS V14.01,2013-08-08 13:00:00,
2013-08-08 09:01:00,72.5,55.9,29.06,NW,315,0.0,0.0,56,0.00,,---,0.00,VWS V14.01,2013-08-08 13:01:00,
2013-08-08 09:02:00,72.5,55.9,29.06,NW,315,0.0,0.0,56,0.00,,---,0.00,VWS V14.01,2013-08-08 13:02:00,
2013-08-08 09:03:00,72.5,55.9,29.06,NW,315,0.0,0.0,56,0.00,,---,0.00,VWS V14.01,2013-08-08 13:03:00,
2013-08-08 09:04:00,72.1,55.6,29.06,NW,315,0.0,0.0,56,0.00,,---,0.00,VWS V14.01,2013-08-08 13:04:00,
2013-08-08 09:05:00,72.1,55.6,29.06,NW,315,0.0,0.0,56,0.00,,---,0.00,VWS V14.01,2013-08-08 13:05:00,
2013-08-08 09:06:00,71.8,55.3,29.06,NW,315,0.0,0.0,56,0.00,,---,0.00,VWS V14.01,2013-08-08 13:06:00,
2013-08-08 09:07:00,71.8,55.8,29.06,NW,315,0.0,0.0,57,0.00,,---,0.00,VWS V14.01,2013-08-08 13:07:00,
2013-08-08 09:08:00,71.8,55.8,29.06,NW,315,0.0,0.0,57,0.00,,---,0.00,VWS V14.01,2013-08-08 13:08:00,
2013-08-08 09:09:00,72.0,55.9,29.06,NNE,22,2.2,2.2,57,0.00,,---,0.00,VWS V14.01,2013-08-08 13:09:00,
2013-08-08 09:10:00,72.0,55.9,29.06,NNE,22,2.2,2.2,57,0.00,,---,0.00,VWS V14.01,2013-08-08 13:10:00,
2013-08-08 09:11:00,71.8,55.3,29.06,NNE,22,2.2,2.2,56,0.00,,---,0.00,VWS V14.01,2013-08-08 13:11:00,
2013-08-08 09:12:00,71.8,55.3,29.06,NNE,22,2.2,2.2,56,0.00,,---,0.00,VWS V14.01,2013-08-08 13:12:00,
2013-08-08 09:13:00,71.8,55.8,29.06,NNE,22,2.2,2.2,57,0.00,,---,0.00,VWS V14.01,2013-08-08 13:13:00,
2013-08-08 09:14:00,71.8,55.8,29.06,NNE,22,2.2,2.2,57,0.00,,---,0.00,VWS V14.01,2013-08-08 13:14:00,
2013-08-08 09:15:00,71.8,55.8,29.06,NNE,22,2.2,2.2,57,0.00,,---,0.00,VWS V14.01,2013-08-08 13:15:00,
2013-08-08 09:16:00,71.8,56.2,29.06,NNW,338,2.5,2.5,58,0.00,,---,0.00,VWS V14.01,2013-08-08 13:16:00,
2013-08-08 09:17:00,71.8,56.2,29.06,NNW,338,2.5,2.5,58,0.00,,---,0.00,VWS V14.01,2013-08-08 13:17:00,
2013-08-08 09:18:00,72.0,56.4,29.06,NNW,338,2.5,2.5,58,0.00,,---,0.00,VWS V14.01,2013-08-08 13:18:00,
2013-08-08 09:19:00,72.1,56.6,29.06,NW,315,0.0,0.0,58,0.00,,---,0.00,VWS V14.01,2013-08-08 13:19:00,
2013-08-08 09:20:00,72.1,56.6,29.06,NW,315,0.0,0.0,58,0.00,,---,0.00,VWS V14.01,2013-08-08 13:20:00,
2013-08-08 09:21:00,72.1,56.6,29.06,NW,315,0.0,0.0,58,0.00,,---,0.00,VWS V14.01,2013-08-08 13:21:00,
2013-08-08 09:22:00,72.3,56.7,29.06,NW,315,0.0,0.0,58,0.00,,---,0.00,VWS V14.01,2013-08-08 13:22:00,
2013-08-08 09:23:00,72.5,56.9,29.06,NW,315,0.0,0.0,58,0.00,,---,0.00,VWS V14.01,2013-08-08 13:23:00,
2013-08-08 09:24:00,72.7,57.1,29.06,NW,315,0.0,0.0,58,0.00,,---,0.00,VWS V14.01,2013-08-08 13:24:00,
2013-08-08 09:25:00,72.7,57.1,29.06,NW,315,0.0,0.0,58,0.00,,---,0.00,VWS V14.01,2013-08-08 13:25:00,
2013-08-08 09:26:00,72.7,57.1,29.06,NW,315,0.0,0.0,58,0.00,,---,0.00,VWS V14.01,2013-08-08 13:26:00,
2013-08-08 09:27:00,72.7,57.1,29.06,NW,315,0.0,0.0,58,0.00,,---,0.00,VWS V14.01,2013-08-08 13:27:00,
2013-08-08 09:28:00,72.9,57.2,29.06,NW,315,0.0,0.0,58,0.00,,---,0.00,VWS V14.01,2013-08-08 13:28:00,
2013-08-08 09:29:00,72.9,57.2,29.06,NW,315,0.0,0.0,58,0.00,,---,0.00,VWS V14.01,2013-08-08 13:29:00,
2013-08-08 09:30:00,72.7,57.1,29.06,NW,315,0.0,0.0,58,0.00,,---,0.00,VWS V14.01,2013-08-08 13:30:00,
2013-08-08 09:31:00,72.7,57.1,29.06,NW,315,0.0,0.0,58,0.00,,---,0.00,VWS V14.01,2013-08-08 13:31:00,
2013-08-08 09:32:00,72.7,57.1,29.06,NW,315,0.0,0.0,58,0.00,,---,0.00,VWS V14.01,2013-08-08 13:32:00,
2013-08-08 09:33:00,72.7,57.1,29.06,NW,315,0.0,0.0,58,0.00,,---,0.00,VWS V14.01,2013-08-08 13:33:00,
2013-08-08 09:34:00,72.9,57.2,29.06,NW,315,0.0,0.0,58,0.00,,---,0.00,VWS V14.01,2013-08-08 13:34:00,
2013-08-08 09:35:00,72.9,57.2,29.06,NW,315,0.0,0.0,58,0.00,,---,0.00,VWS V14.01,2013-08-08 13:35:00,
2013-08-08 09:36:00,72.9,57.2,29.06,NW,315,0.0,0.0,58,0.00,,---,0.00,VWS V14.01,2013-08-08 13:36:00,
2013-08-08 09:37:00,72.9,57.2,29.06,NW,315,0.0,0.0,58,0.00,,---,0.00,VWS V14.01,2013-08-08 13:37:00,
2013-08-08 09:38:00,72.9,57.2,29.06,NW,315,0.0,0.0,58,0.00,,---,0.00,VWS V14.01,2013-08-08 13:38:00,
2013-08-08 09:39:00,72.9,57.2,29.06,NW,315,0.9,0.9,58,0.00,,---,0.00,VWS V14.01,2013-08-08 13:39:00,
2013-08-08 09:40:00,72.9,57.2,29.06,NW,315,0.9,0.9,58,0.00,,---,0.00,VWS V14.01,2013-08-08 13:40:00,
2013-08-08 09:41:00,73.4,56.8,29.06,NW,315,0.9,0.9,56,0.00,,---,0.00,VWS V14.01,2013-08-08 13:41:00,
2013-08-08 09:42:00,73.4,56.8,29.06,NW,315,0.0,0.9,56,0.00,,---,0.00,VWS V14.01,2013-08-08 13:42:00,
2013-08-08 09:43:00,73.6,56.9,29.06,NW,315,0.0,0.0,56,0.00,,---,0.00,VWS V14.01,2013-08-08 13:43:00,
2013-08-08 09:44:00,73.6,56.9,29.06,NW,315,0.0,0.0,56,0.00,,---,0.00,VWS V14.01,2013-08-08 13:44:00,
2013-08-08 09:45:00,73.6,56.9,29.06,NW,315,0.0,0.0,56,0.00,,---,0.00,VWS V14.01,2013-08-08 13:45:00,
2013-08-08 09:46:00,73.6,56.4,29.06,NW,315,0.0,0.0,55,0.00,,---,0.00,VWS V14.01,2013-08-08 13:46:00,
2013-08-08 09:47:00,73.6,56.4,29.06,NE,45,0.0,0.0,55,0.00,,---,0.00,VWS V14.01,2013-08-08 13:47:00,
2013-08-08 09:48:00,73.8,56.6,29.06,NE,45,0.0,0.0,55,0.00,,---,0.00,VWS V14.01,2013-08-08 13:48:00,
2013-08-08 09:49:00,73.9,57.3,29.06,NE,45,0.0,0.0,56,0.00,,---,0.00,VWS V14.01,2013-08-08 13:49:00,
2013-08-08 09:50:00,73.9,57.3,29.06,NE,45,1.1,1.1,56,0.00,,---,0.00,VWS V14.01,2013-08-08 13:50:00,
2013-08-08 09:51:00,73.9,57.3,29.06,NE,45,0.0,1.1,56,0.00,,---,0.00,VWS V14.01,2013-08-08 13:51:00,
2013-08-08 09:52:00,73.9,57.3,29.09,NE,45,0.0,0.0,56,0.00,,---,0.00,VWS V14.01,2013-08-08 13:52:00,
2013-08-08 09:53:00,73.9,57.3,29.09,NE,45,2.0,2.0,56,0.00,,---,0.00,VWS V14.01,2013-08-08 13:53:00,
2013-08-08 09:54:00,75.4,57.1,29.09,NE,45,1.6,2.0,53,0.00,,---,0.00,VWS V14.01,2013-08-08 13:54:00,
2013-08-08 09:55:00,75.4,57.1,29.09,NE,45,1.6,2.0,53,0.00,,---,0.00,VWS V14.01,2013-08-08 13:55:00,
2013-08-08 09:56:00,75.4,57.1,29.09,NE,45,1.6,1.6,53,0.00,,---,0.00,VWS V14.01,2013-08-08 13:56:00,
2013-08-08 09:57:00,75.0,57.3,29.09,NE,45,1.6,1.6,54,0.00,,---,0.00,VWS V14.01,2013-08-08 13:57:00,
2013-08-08 09:58:00,75.0,57.3,29.09,NE,45,1.6,1.6,54,0.00,,---,0.00,VWS V14.01,2013-08-08 13:58:00,
2013-08-08 09:59:00,75.2,57.4,29.09,NE,45,1.6,1.6,54,0.00,,---,0.00,VWS V14.01,2013-08-08 13:59:00,
2013-08-08 10:00:00,76.1,59.8,29.09,NE,45,1.6,1.6,57,0.00,,---,0.00,VWS V14.01,2013-08-08 14:00:00,
2013-08-08 10:01:00,76.1,59.8,29.09,WNW,292,1.3,1.6,57,0.00,,---,0.00,VWS V14.01,2013-08-08 14:01:00,
2013-08-08 10:02:00,77.9,60.5,29.09,WNW,292,1.3,1.3,55,0.00,,---,0.00,VWS V14.01,2013-08-08 14:02:00,
2013-08-08 10:03:00,77.9,60.5,29.09,South,180,0.0,1.3,55,0.00,,---,0.00,VWS V14.01,2013-08-08 14:03:00,
2013-08-08 10:04:00,77.4,59.4,29.09,WSW,248,1.6,1.6,54,0.00,,---,0.00,VWS V14.01,2013-08-08 14:04:00,
2013-08-08 10:05:00,77.4,59.4,29.09,WSW,248,1.6,1.6,54,0.00,,---,0.00,VWS V14.01,2013-08-08 14:05:00,
2013-08-08 10:06:00,77.0,59.1,29.09,WSW,248,2.5,2.5,54,0.00,,---,0.00,VWS V14.01,2013-08-08 14:06:00,
2013-08-08 10:07:00,76.8,58.9,29.09,WSW,248,2.5,2.5,54,0.00,,---,0.00,VWS V14.01,2013-08-08 14:07:00,
2013-08-08 10:08:00,76.8,58.9,29.09,WSW,248,2.0,2.5,54,0.00,,---,0.00,VWS V14.01,2013-08-08 14:08:00,
2013-08-08 10:09:00,76.8,58.9,29.09,WSW,248,3.1,3.1,54,0.00,,---,0.00,VWS V14.01,2013-08-08 14:09:00,
2013-08-08 10:10:00,76.8,58.9,29.09,WSW,248,3.1,3.1,54,0.00,,---,0.00,VWS V14.01,2013-08-08 14:10:00,
2013-08-08 10:11:00,77.4,58.9,29.09,WSW,248,3.1,3.1,53,0.00,,---,0.00,VWS V14.01,2013-08-08 14:11:00,
2013-08-08 10:12:00,77.4,58.9,29.09,West,270,2.9,3.1,53,0.00,,---,0.00,VWS V14.01,2013-08-08 14:12:00,
2013-08-08 10:13:00,78.8,60.2,29.09,West,270,0.0,2.9,53,0.00,,---,0.00,VWS V14.01,2013-08-08 14:13:00,
2013-08-08 10:14:00,81.1,62.4,29.09,West,270,2.7,2.7,53,0.00,,---,0.00,VWS V14.01,2013-08-08 14:14:00,
2013-08-08 10:15:00,81.1,62.4,29.09,West,270,2.7,2.7,53,0.00,,---,0.00,VWS V14.01,2013-08-08 14:15:00,
2013-08-08 10:16:00,81.1,59.6,29.09,West,270,3.8,3.8,48,0.00,,---,0.00,VWS V14.01,2013-08-08 14:16:00,
2013-08-08 10:17:00,81.1,59.6,29.09,WSW,248,4.0,4.0,48,0.00,,---,0.00,VWS V14.01,2013-08-08 14:17:00,
2013-08-08 10:18:00,81.9,61.4,29.09,WSW,248,1.3,4.0,50,0.00,,---,0.00,VWS V14.01,2013-08-08 14:18:00,
2013-08-08 10:19:00,80.6,59.7,29.09,WSW,248,2.0,2.0,49,0.00,,---,0.00,VWS V14.01,2013-08-08 14:19:00,
2013-08-08 10:20:00,80.6,59.7,29.09,WSW,248,2.0,2.0,49,0.00,,---,0.00,VWS V14.01,2013-08-08 14:20:00,
2013-08-08 10:21:00,80.1,58.6,29.06,WSW,248,2.0,2.0,48,0.00,,---,0.00,VWS V14.01,2013-08-08 14:21:00,
2013-08-08 10:22:00,80.1,58.6,29.06,WNW,292,3.6,3.6,48,0.00,,---,0.00,VWS V14.01,2013-08-08 14:22:00,
2013-08-08 10:23:00,78.8,58.0,29.06,NW,315,2.7,3.6,49,0.00,,---,0.00,VWS V14.01,2013-08-08 14:23:00,
2013-08-08 10:24:00,78.3,57.5,29.06,NW,315,2.7,2.7,49,0.00,,---,0.00,VWS V14.01,2013-08-08 14:24:00,
2013-08-08 10:25:00,78.3,57.5,29.06,NW,315,2.7,2.7,49,0.00,,---,0.00,VWS V14.01,2013-08-08 14:25:00,
2013-08-08 10:26:00,77.9,57.2,29.06,NW,315,2.7,2.7,49,0.00,,---,0.00,VWS V14.01,2013-08-08 14:26:00,
2013-08-08 10:27:00,77.9,57.2,29.06,WSW,248,1.1,2.7,49,0.00,,---,0.00,VWS V14.01,2013-08-08 14:27:00,
2013-08-08 10:28:00,77.5,57.5,29.06,WSW,248,3.4,3.4,50,0.00,,---,0.00,VWS V14.01,2013-08-08 14:28:00,
2013-08-08 10:29:00,77.0,56.4,29.06,West,270,3.6,3.6,49,0.00,,---,0.00,VWS V14.01,2013-08-08 14:29:00,
2013-08-08 10:30:00,77.0,56.4,29.06,West,270,3.6,3.6,49,0.00,,---,0.00,VWS V14.01,2013-08-08 14:30:00,
2013-08-08 10:31:00,76.3,56.3,29.06,WSW,248,4.3,4.3,50,0.00,,---,0.00,VWS V14.01,2013-08-08 14:31:00,
2013-08-08 10:32:00,76.3,56.3,29.06,WSW,248,2.7,4.3,50,0.00,,---,0.00,VWS V14.01,2013-08-08 14:32:00,
2013-08-08 10:33:00,75.7,55.8,29.06,WSW,248,2.2,2.7,50,0.00,,---,0.00,VWS V14.01,2013-08-08 14:33:00,
2013-08-08 10:34:00,75.2,55.3,29.06,WSW,248,1.6,1.6,50,0.00,,---,0.00,VWS V14.01,2013-08-08 14:34:00,
2013-08-08 10:35:00,75.2,55.3,29.06,WSW,248,1.6,1.6,50,0.00,,---,0.00,VWS V14.01,2013-08-08 14:35:00,
2013-08-08 10:36:00,75.2,55.3,29.06,WSW,248,0.0,1.6,50,0.00,,---,0.00,VWS V14.01,2013-08-08 14:36:00,
2013-08-08 10:37:00,75.2,55.3,29.09,WSW,248,0.0,0.0,50,0.00,,---,0.00,VWS V14.01,2013-08-08 14:37:00,
2013-08-08 10:38:00,75.2,55.3,29.09,WSW,248,0.0,0.0,50,0.00,,---,0.00,VWS V14.01,2013-08-08 14:38:00,
2013-08-08 10:39:00,75.4,56.0,29.09,WSW,248,0.0,0.0,51,0.00,,---,0.00,VWS V14.01,2013-08-08 14:39:00,
2013-08-08 10:40:00,75.2,56.4,29.09,WSW,248,0.0,0.0,52,0.00,,---,0.00,VWS V14.01,2013-08-08 14:40:00,
2013-08-08 10:41:00,75.2,56.4,29.09,WSW,248,0.0,0.0,52,0.00,,---,0.00,VWS V14.01,2013-08-08 14:41:00,
2013-08-08 10:42:00,75.0,56.8,29.09,WSW,248,0.0,0.0,53,0.00,,---,0.00,VWS V14.01,2013-08-08 14:42:00,
2013-08-08 10:43:00,75.0,56.8,29.09,WSW,248,0.0,0.0,53,0.00,,---,0.00,VWS V14.01,2013-08-08 14:43:00,
2013-08-08 10:44:00,74.8,57.1,29.09,WSW,248,0.0,0.0,54,0.00,,---,0.00,VWS V14.01,2013-08-08 14:44:00,
2013-08-08 10:45:00,74.8,57.1,29.09,WSW,248,0.0,0.0,54,0.00,,---,0.00,VWS V14.01,2013-08-08 14:45:00,
2013-08-08 10:46:00,74.8,57.1,29.09,WSW,248,0.0,0.0,54,0.00,,---,0.00,VWS V14.01,2013-08-08 14:46:00,
2013-08-08 10:47:00,74.8,57.1,29.09,WSW,248,0.0,0.0,54,0.00,,---,0.00,VWS V14.01,2013-08-08 14:47:00,
2013-08-08 10:48:00,74.8,57.1,29.09,WSW,248,0.0,0.0,54,0.00,,---,0.00,VWS V14.01,2013-08-08 14:48:00,
2013-08-08 10:49:00,74.8,57.1,29.09,WSW,248,0.0,0.0,54,0.00,,---,0.00,VWS V14.01,2013-08-08 14:49:00,
2013-08-08 10:50:00,74.8,57.1,29.09,WSW,248,0.0,0.0,54,0.00,,---,0.00,VWS V14.01,2013-08-08 14:50:00,
2013-08-08 10:51:00,74.7,57.9,29.09,WSW,248,0.0,0.0,56,0.00,,---,0.00,VWS V14.01,2013-08-08 14:51:00,
2013-08-08 10:52:00,74.8,58.1,29.09,WSW,248,0.0,0.0,56,0.00,,---,0.00,VWS V14.01,2013-08-08 14:52:00,
2013-08-08 10:53:00,74.8,58.1,29.09,WSW,248,0.0,0.0,56,0.00,,---,0.00,VWS V14.01,2013-08-08 14:53:00,
2013-08-08 10:54:00,74.8,58.1,29.09,WSW,248,0.0,0.0,56,0.00,,---,0.00,VWS V14.01,2013-08-08 14:54:00,
2013-08-08 10:55:00,74.8,58.1,29.09,WSW,248,0.0,0.0,56,0.00,,---,0.00,VWS V14.01,2013-08-08 14:55:00,
2013-08-08 10:56:00,75.4,58.1,29.09,WSW,248,0.0,0.0,55,0.00,,---,0.00,VWS V14.01,2013-08-08 14:56:00,
2013-08-08 10:57:00,75.4,58.1,29.09,WSW,248,0.0,0.0,55,0.00,,---,0.00,VWS V14.01,2013-08-08 14:57:00,
2013-08-08 10:58:00,75.2,57.9,29.09,WSW,248,0.0,0.0,55,0.00,,---,0.00,VWS V14.01,2013-08-08 14:58:00,
2013-08-08 10:59:00,74.7,57.9,29.09,WSW,248,0.0,0.0,56,0.00,,---,0.00,VWS V14.01,2013-08-08 14:59:00,
2013-08-08 11:00:00,74.7,57.9,29.09,WSW,248,0.0,0.0,56,0.00,,---,0.00,VWS V14.01,2013-08-08 15:00:00,
2013-08-08 11:01:00,74.5,57.8,29.09,WSW,248,0.9,0.9,56,0.00,,---,0.00,VWS V14.01,2013-08-08 15:01:00,
2013-08-08 11:02:00,74.5,57.8,29.09,WSW,248,0.0,0.9,56,0.00,,---,0.00,VWS V14.01,2013-08-08 15:02:00,
2013-08-08 11:03:00,74.3,58.1,29.09,SE,135,2.5,2.5,57,0.00,,---,0.00,VWS V14.01,2013-08-08 15:03:00,
2013-08-08 11:04:00,74.1,57.9,29.09,SE,135,0.0,2.5,57,0.00,,---,0.00,VWS V14.01,2013-08-08 15:04:00,
2013-08-08 11:05:00,74.1,57.9,29.09,SE,135,0.0,2.5,57,0.00,,---,0.00,VWS V14.01,2013-08-08 15:05:00,
2013-08-08 11:06:00,74.1,57.9,29.09,SE,135,0.0,0.0,57,0.00,,---,0.00,VWS V14.01,2013-08-08 15:06:00,
2013-08-08 11:07:00,74.1,57.9,29.09,SE,135,0.0,0.0,57,0.00,,---,0.00,VWS V14.01,2013-08-08 15:07:00,
2013-08-08 11:08:00,73.9,57.8,29.09,SE,135,0.0,0.0,57,0.00,,---,0.00,VWS V14.01,2013-08-08 15:08:00,
2013-08-08 11:09:00,73.9,57.8,29.09,ESE,112,0.0,0.0,57,0.00,,---,0.00,VWS V14.01,2013-08-08 15:09:00,
2013-08-08 11:10:00,73.9,57.8,29.09,ESE,112,0.0,0.0,57,0.00,,---,0.00,VWS V14.01,2013-08-08 15:10:00,
2013-08-08 11:11:00,73.9,57.8,29.09,ESE,112,0.0,0.0,57,0.00,,---,0.00,VWS V14.01,2013-08-08 15:11:00,
2013-08-08 11:12:00,73.9,57.8,29.09,ESE,112,0.0,0.0,57,0.00,,---,0.00,VWS V14.01,2013-08-08 15:12:00,
2013-08-08 11:13:00,73.9,57.8,29.09,ESE,112,0.0,0.0,57,0.00,,---,0.00,VWS V14.01,2013-08-08 15:13:00,
2013-08-08 11:14:00,74.1,58.4,29.09,ESE,112,0.0,0.0,58,0.00,,---,0.00,VWS V14.01,2013-08-08 15:14:00,
2013-08-08 11:15:00,74.1,58.4,29.09,ESE,112,0.0,0.0,58,0.00,,---,0.00,VWS V14.01,2013-08-08 15:15:00,
2013-08-08 11:16:00,74.1,58.4,29.09,ESE,112,0.0,0.0,58,0.00,,---,0.00,VWS V14.01,2013-08-08 15:16:00,
2013-08-08 11:17:00,74.1,58.4,29.09,ESE,112,0.0,0.0,58,0.00,,---,0.00,VWS V14.01,2013-08-08 15:17:00,
2013-08-08 11:18:00,74.1,58.4,29.09,ESE,112,0.0,0.0,58,0.00,,---,0.00,VWS V14.01,2013-08-08 15:18:00,
2013-08-08 11:19:00,74.1,58.4,29.09,ESE,112,0.0,0.0,58,0.00,,---,0.00,VWS V14.01,2013-08-08 15:19:00,
2013-08-08 11:20:00,74.1,58.4,29.09,ESE,112,0.0,0.0,58,0.00,,---,0.00,VWS V14.01,2013-08-08 15:20:00,
2013-08-08 11:21:00,74.1,58.4,29.09,ESE,112,0.0,0.0,58,0.00,,---,0.00,VWS V14.01,2013-08-08 15:21:00,
2013-08-08 11:22:00,74.1,58.4,29.09,WNW,292,2.0,2.2,58,0.00,,---,0.00,VWS V14.01,2013-08-08 15:22:00,
2013-08-08 11:23:00,74.1,58.4,29.09,WNW,292,0.0,2.0,58,0.00,,---,0.00,VWS V14.01,2013-08-08 15:23:00,
2013-08-08 11:24:00,74.3,59.1,29.09,WNW,292,0.0,0.0,59,0.00,,---,0.00,VWS V14.01,2013-08-08 15:24:00,
2013-08-08 11:25:00,74.3,59.1,29.09,WNW,292,0.0,0.0,59,0.00,,---,0.00,VWS V14.01,2013-08-08 15:25:00,
2013-08-08 11:26:00,74.1,58.9,29.09,West,270,0.0,0.0,59,0.00,,---,0.00,VWS V14.01,2013-08-08 15:26:00,
2013-08-08 11:27:00,74.1,58.9,29.09,West,270,0.0,0.0,59,0.00,,---,0.00,VWS V14.01,2013-08-08 15:27:00,
2013-08-08 11:28:00,74.1,58.9,29.09,West,270,0.0,0.0,59,0.00,,---,0.00,VWS V14.01,2013-08-08 15:28:00,
2013-08-08 11:29:00,74.5,58.8,29.09,West,270,0.0,0.0,58,0.00,,---,0.00,VWS V14.01,2013-08-08 15:29:00,
2013-08-08 11:30:00,74.5,58.8,29.09,West,270,1.1,1.1,58,0.00,,---,0.00,VWS V14.01,2013-08-08 15:30:00,
2013-08-08 11:31:00,74.5,58.8,29.09,West,270,0.0,1.1,58,0.00,,---,0.00,VWS V14.01,2013-08-08 15:31:00,
2013-08-08 11:32:00,74.7,58.4,29.09,West,270,0.0,0.0,57,0.00,,---,0.00,VWS V14.01,2013-08-08 15:32:00,
2013-08-08 11:33:00,74.5,58.8,29.09,West,270,0.0,0.0,58,0.00,,---,0.00,VWS V14.01,2013-08-08 15:33:00,
2013-08-08 11:34:00,74.5,58.8,29.09,West,270,0.0,0.0,58,0.00,,---,0.00,VWS V14.01,2013-08-08 15:34:00,
2013-08-08 11:35:00,74.7,58.9,29.09,West,270,0.0,0.0,58,0.00,,---,0.00,VWS V14.01,2013-08-08 15:35:00,
2013-08-08 11:36:00,74.7,58.9,29.09,West,270,0.0,0.0,58,0.00,,---,0.00,VWS V14.01,2013-08-08 15:36:00,
2013-08-08 11:37:00,75.0,58.8,29.09,West,270,0.0,0.0,57,0.00,,---,0.00,VWS V14.01,2013-08-08 15:37:00,
2013-08-08 11:38:00,75.0,58.8,29.09,West,270,0.0,0.0,57,0.00,,---,0.00,VWS V14.01,2013-08-08 15:38:00,
2013-08-08 11:39:00,75.2,58.4,29.09,SSE,158,0.0,0.0,56,0.00,,---,0.00,VWS V14.01,2013-08-08 15:39:00,
2013-08-08 11:40:00,75.2,58.4,29.09,SSE,158,0.0,0.0,56,0.00,,---,0.00,VWS V14.01,2013-08-08 15:40:00,
2013-08-08 11:41:00,75.2,58.4,29.09,SSE,158,0.0,0.0,56,0.00,,---,0.00,VWS V14.01,2013-08-08 15:41:00,
2013-08-08 11:42:00,74.8,58.6,29.09,SSE,158,0.0,0.0,57,0.00,,---,0.00,VWS V14.01,2013-08-08 15:42:00,
2013-08-08 11:43:00,74.8,58.6,29.09,SSE,158,0.0,0.0,57,0.00,,---,0.00,VWS V14.01,2013-08-08 15:43:00,
2013-08-08 11:44:00,75.0,59.3,29.09,SSE,158,0.0,0.0,58,0.00,,---,0.00,VWS V14.01,2013-08-08 15:44:00,
2013-08-08 11:45:00,75.4,59.1,29.09,WSW,248,0.0,0.0,57,0.00,,---,0.00,VWS V14.01,2013-08-08 15:45:00,
2013-08-08 11:46:00,75.4,59.1,29.09,WSW,248,0.0,0.0,57,0.00,,---,0.00,VWS V14.01,2013-08-08 15:46:00,
2013-08-08 11:47:00,76.3,60.4,29.09,WSW,248,0.0,0.0,58,0.00,,---,0.00,VWS V14.01,2013-08-08 15:47:00,
2013-08-08 11:48:00,76.3,60.4,29.09,WSW,248,0.0,0.0,58,0.00,,---,0.00,VWS V14.01,2013-08-08 15:48:00,
2013-08-08 11:49:00,76.3,60.4,29.09,WSW,248,0.0,0.0,58,0.00,,---,0.00,VWS V14.01,2013-08-08 15:49:00,
2013-08-08 11:50:00,76.3,60.4,29.09,WSW,248,0.0,0.0,58,0.00,,---,0.00,VWS V14.01,2013-08-08 15:50:00,
2013-08-08 11:51:00,77.4,60.0,29.09,ESE,112,0.0,0.0,55,0.00,,---,0.00,VWS V14.01,2013-08-08 15:51:00,
2013-08-08 11:52:00,77.4,60.0,29.06,ESE,112,0.0,0.0,55,0.00,,---,0.00,VWS V14.01,2013-08-08 15:52:00,
2013-08-08 11:53:00,77.4,58.9,29.06,West,270,0.0,0.0,53,0.00,,---,0.00,VWS V14.01,2013-08-08 15:53:00,
2013-08-08 11:54:00,77.4,58.9,29.06,WSW,248,1.1,1.1,53,0.00,,---,0.00,VWS V14.01,2013-08-08 15:54:00,
2013-08-08 11:55:00,77.4,58.9,29.06,WSW,248,1.6,1.6,53,0.00,,---,0.00,VWS V14.01,2013-08-08 15:55:00,
2013-08-08 11:56:00,77.4,58.4,29.06,NW,315,2.9,2.9,52,0.00,,---,0.00,VWS V14.01,2013-08-08 15:56:00,
2013-08-08 11:57:00,77.4,58.4,29.06,NW,315,1.6,2.9,52,0.00,,---,0.00,VWS V14.01,2013-08-08 15:57:00,
2013-08-08 11:58:00,77.5,58.5,29.06,NW,315,2.0,2.0,52,0.00,,---,0.00,VWS V14.01,2013-08-08 15:58:00,
2013-08-08 11:59:00,77.5,58.5,29.06,WNW,292,2.0,2.0,52,0.00,,---,0.00,VWS V14.01,2013-08-08 15:59:00,
2013-08-08 12:00:00,77.5,58.5,29.06,WNW,292,2.5,2.5,52,0.00,,---,0.00,VWS V14.01,2013-08-08 16:00:00,
2013-08-08 12:01:00,77.5,59.6,29.06,WNW,292,2.0,2.5,54,0.00,,---,0.00,VWS V14.01,2013-08-08 16:01:00,
2013-08-08 12:02:00,77.5,59.6,29.06,WNW,292,2.0,2.0,54,0.00,,---,0.00,VWS V14.01,2013-08-08 16:02:00,
2013-08-08 12:03:00,77.5,59.1,29.06,West,270,3.1,3.4,53,0.00,,---,0.00,VWS V14.01,2013-08-08 16:03:00,
2013-08-08 12:04:00,77.5,59.1,29.06,West,270,3.1,3.1,53,0.00,,---,0.00,VWS V14.01,2013-08-08 16:04:00,
2013-08-08 12:05:00,77.5,59.1,29.06,West,270,2.0,3.1,53,0.00,,---,0.00,VWS V14.01,2013-08-08 16:05:00,
2013-08-08 12:06:00,77.5,59.1,29.06,WNW,292,1.3,2.0,53,0.00,,---,0.00,VWS V14.01,2013-08-08 16:06:00,
2013-08-08 12:07:00,77.4,58.9,29.06,WNW,292,1.6,1.6,53,0.00,,---,0.00,VWS V14.01,2013-08-08 16:07:00,
2013-08-08 12:08:00,77.4,58.9,29.06,WNW,292,2.7,2.7,53,0.00,,---,0.00,VWS V14.01,2013-08-08 16:08:00,
2013-08-08 12:09:00,76.8,58.9,29.06,West,270,2.5,2.7,54,0.00,,---,0.00,VWS V14.01,2013-08-08 16:09:00,
2013-08-08 12:10:00,77.0,59.1,29.06,West,270,1.6,2.5,54,0.00,,---,0.00,VWS V14.01,2013-08-08 16:10:00,
2013-08-08 12:11:00,77.0,59.1,29.06,West,270,1.3,1.6,54,0.00,,---,0.00,VWS V14.01,2013-08-08 16:11:00,
2013-08-08 12:12:00,77.2,59.3,29.06,West,270,1.3,1.3,54,0.00,,---,0.00,VWS V14.01,2013-08-08 16:12:00,
2013-08-08 12:13:00,77.2,59.3,29.06,West,270,2.0,2.0,54,0.00,,---,0.00,VWS V14.01,2013-08-08 16:13:00,
2013-08-08 12:14:00,77.7,59.8,29.06,West,270,2.9,2.9,54,0.00,,---,0.00,VWS V14.01,2013-08-08 16:14:00,
2013-08-08 12:15:00,77.7,58.2,29.06,West,270,2.5,2.9,51,0.00,,---,0.00,VWS V14.01,2013-08-08 16:15:00,
2013-08-08 12:16:00,77.7,58.2,29.06,West,270,1.6,2.5,51,0.00,,---,0.00,VWS V14.01,2013-08-08 16:16:00,
2013-08-08 12:17:00,77.9,57.8,29.06,WSW,248,2.5,2.5,50,0.00,,---,0.00,VWS V14.01,2013-08-08 16:17:00,
2013-08-08 12:18:00,77.9,57.8,29.06,West,270,2.9,2.9,50,0.00,,---,0.00,VWS V14.01,2013-08-08 16:18:00,
2013-08-08 12:19:00,79.5,60.4,29.06,West,270,2.5,2.9,52,0.00,,---,0.00,VWS V14.01,2013-08-08 16:19:00,
2013-08-08 12:20:00,79.5,60.4,29.06,WSW,248,2.7,2.9,52,0.00,,---,0.00,VWS V14.01,2013-08-08 16:20:00,
2013-08-08 12:21:00,79.7,59.4,29.06,WNW,292,1.3,2.7,50,0.00,,---,0.00,VWS V14.01,2013-08-08 16:21:00,
2013-08-08 12:22:00,79.7,59.4,29.06,NW,315,2.9,2.9,50,0.00,,---,0.00,VWS V14.01,2013-08-08 16:22:00,
2013-08-08 12:23:00,81.1,59.0,29.06,NW,315,2.9,2.9,47,0.00,,---,0.00,VWS V14.01,2013-08-08 16:23:00,
2013-08-08 12:24:00,81.7,58.9,29.06,NW,315,2.9,2.9,46,0.00,,---,0.00,VWS V14.01,2013-08-08 16:24:00,
2013-08-08 12:25:00,81.7,58.9,29.06,WNW,292,3.4,3.4,46,0.00,,---,0.00,VWS V14.01,2013-08-08 16:25:00,
2013-08-08 12:26:00,83.1,60.2,29.06,WNW,292,2.0,3.4,46,0.00,,---,0.00,VWS V14.01,2013-08-08 16:26:00,
2013-08-08 12:27:00,83.1,60.2,29.06,NNW,338,2.5,2.5,46,0.00,,---,0.00,VWS V14.01,2013-08-08 16:27:00,
2013-08-08 12:28:00,84.0,60.4,29.06,NNW,338,1.3,2.5,45,0.00,,---,0.00,VWS V14.01,2013-08-08 16:28:00,
2013-08-08 12:29:00,85.3,62.8,29.06,NNW,338,2.0,2.0,47,0.00,,---,0.00,VWS V14.01,2013-08-08 16:29:00,
2013-08-08 12:30:00,85.3,62.8,29.06,NNW,338,1.6,2.0,47,0.00,,---,0.00,VWS V14.01,2013-08-08 16:30:00,
2013-08-08 12:31:00,85.3,62.8,29.06,West,270,4.0,4.0,47,0.00,,---,0.00,VWS V14.01,2013-08-08 16:31:00,
2013-08-08 12:32:00,85.3,62.8,29.06,WNW,292,1.6,4.0,47,0.00,,---,0.00,VWS V14.01,2013-08-08 16:32:00,
2013-08-08 12:33:00,84.2,58.6,29.06,WNW,292,2.0,2.0,42,0.00,,---,0.00,VWS V14.01,2013-08-08 16:33:00,
2013-08-08 12:34:00,84.2,58.6,29.06,WNW,292,2.9,2.9,42,0.00,,---,0.00,VWS V14.01,2013-08-08 16:34:00,
2013-08-08 12:35:00,83.1,57.7,29.06,NNW,338,3.8,3.8,42,0.00,,---,0.00,VWS V14.01,2013-08-08 16:35:00,
2013-08-08 12:36:00,83.1,57.7,29.06,NW,315,1.1,3.8,42,0.00,,---,0.00,VWS V14.01,2013-08-08 16:36:00,
2013-08-08 12:37:00,82.0,58.0,29.06,NW,315,0.0,1.1,44,0.00,,---,0.00,VWS V14.01,2013-08-08 16:37:00,
2013-08-08 12:38:00,81.7,58.3,29.06,NW,315,0.0,0.0,45,0.00,,---,0.00,VWS V14.01,2013-08-08 16:38:00,
2013-08-08 12:39:00,81.7,58.3,29.06,NW,315,2.9,2.9,45,0.00,,---,0.00,VWS V14.01,2013-08-08 16:39:00,
2013-08-08 12:40:00,81.7,58.3,29.06,NW,315,2.5,2.9,45,0.00,,---,0.00,VWS V14.01,2013-08-08 16:40:00,
2013-08-08 12:41:00,81.7,58.3,29.06,NW,315,2.5,2.5,45,0.00,,---,0.00,VWS V14.01,2013-08-08 16:41:00,
2013-08-08 12:42:00,81.3,58.0,29.06,NW,315,2.5,2.5,45,0.00,,---,0.00,VWS V14.01,2013-08-08 16:42:00,
2013-08-08 12:43:00,81.3,58.0,29.06,NW,315,2.5,2.5,45,0.00,,---,0.00,VWS V14.01,2013-08-08 16:43:00,
2013-08-08 12:44:00,83.1,60.2,29.06,NW,315,0.0,2.5,46,0.00,,---,0.00,VWS V14.01,2013-08-08 16:44:00,
2013-08-08 12:45:00,83.1,60.2,29.06,NW,315,0.0,2.5,46,0.00,,---,0.00,VWS V14.01,2013-08-08 16:45:00,
2013-08-08 12:46:00,83.1,60.2,29.06,NW,315,0.0,0.0,46,0.00,,---,0.00,VWS V14.01,2013-08-08 16:46:00,
2013-08-08 12:47:00,83.1,60.2,29.06,NW,315,0.0,0.0,46,0.00,,---,0.00,VWS V14.01,2013-08-08 16:47:00,
2013-08-08 12:48:00,83.1,60.2,29.06,NW,315,0.0,0.0,46,0.00,,---,0.00,VWS V14.01,2013-08-08 16:48:00,
2013-08-08 12:49:00,86.0,60.9,29.06,WSW,248,3.1,3.1,43,0.00,,---,0.00,VWS V14.01,2013-08-08 16:49:00,
2013-08-08 12:50:00,86.0,60.9,29.06,WNW,292,0.9,3.1,43,0.00,,---,0.00,VWS V14.01,2013-08-08 16:50:00,
2013-08-08 12:51:00,86.5,60.1,29.03,West,270,3.1,3.1,41,0.00,,---,0.00,VWS V14.01,2013-08-08 16:51:00,
2013-08-08 12:52:00,86.5,60.1,29.03,West,270,1.6,3.1,41,0.00,,---,0.00,VWS V14.01,2013-08-08 16:52:00,
2013-08-08 12:53:00,86.7,59.5,29.03,SSW,202,2.0,2.0,40,0.00,,---,0.00,VWS V14.01,2013-08-08 16:53:00,
2013-08-08 12:54:00,86.5,58.7,29.03,WSW,248,2.7,2.7,39,0.00,,---,0.00,VWS V14.01,2013-08-08 16:54:00,
2013-08-08 12:55:00,86.5,58.7,29.03,West,270,2.7,2.7,39,0.00,,---,0.00,VWS V14.01,2013-08-08 16:55:00,
2013-08-08 12:56:00,86.5,57.9,29.03,West,270,2.2,2.7,38,0.00,,---,0.00,VWS V14.01,2013-08-08 16:56:00,
2013-08-08 12:57:00,86.5,57.9,29.03,WNW,292,2.7,2.7,38,0.00,,---,0.00,VWS V14.01,2013-08-08 16:57:00,
2013-08-08 12:58:00,85.8,55.0,29.03,WNW,292,2.5,2.7,35,0.00,,---,0.00,VWS V14.01,2013-08-08 16:58:00,
2013-08-08 12:59:00,85.8,55.0,29.03,WNW,292,3.1,3.1,35,0.00,,---,0.00,VWS V14.01,2013-08-08 16:59:00,
2013-08-08 13:00:00,85.8,55.0,29.03,WNW,292,0.9,3.1,35,0.00,,---,0.00,VWS V14.01,2013-08-08 17:00:00,
2013-08-08 13:01:00,85.8,55.0,29.03,ENE,68,3.6,3.6,35,0.00,,---,0.00,VWS V14.01,2013-08-08 17:01:00,
2013-08-08 13:02:00,86.7,58.1,29.03,ENE,68,3.6,3.6,38,0.00,,---,0.00,VWS V14.01,2013-08-08 17:02:00,
2013-08-08 13:03:00,87.3,58.6,29.03,ENE,68,3.6,3.6,38,0.00,,---,0.00,VWS V14.01,2013-08-08 17:03:00,
2013-08-08 13:04:00,87.3,58.6,29.03,ENE,68,3.6,3.6,38,0.00,,---,0.00,VWS V14.01,2013-08-08 17:04:00,
2013-08-08 13:05:00,87.1,56.1,29.03,NNE,22,1.1,3.6,35,0.00,,---,0.00,VWS V14.01,2013-08-08 17:05:00,
2013-08-08 13:06:00,87.1,56.1,29.03,NNE,22,0.0,1.1,35,0.00,,---,0.00,VWS V14.01,2013-08-08 17:06:00,
2013-08-08 13:07:00,85.1,55.9,29.03,NNE,22,0.0,0.0,37,0.00,,---,0.00,VWS V14.01,2013-08-08 17:07:00,
2013-08-08 13:08:00,86.0,58.2,29.03,NNE,22,0.0,0.0,39,0.00,,---,0.00,VWS V14.01,2013-08-08 17:08:00,
2013-08-08 13:09:00,86.0,58.2,29.03,NNE,22,0.0,0.0,39,0.00,,---,0.00,VWS V14.01,2013-08-08 17:09:00,
2013-08-08 13:10:00,85.6,57.1,29.03,WNW,292,1.6,1.6,38,0.00,,---,0.00,VWS V14.01,2013-08-08 17:10:00,
2013-08-08 13:11:00,85.6,57.1,29.03,WNW,292,1.6,1.6,38,0.00,,---,0.00,VWS V14.01,2013-08-08 17:11:00,
2013-08-08 13:12:00,86.0,58.9,29.03,WNW,292,1.6,1.6,40,0.00,,---,0.00,VWS V14.01,2013-08-08 17:12:00,
2013-08-08 13:13:00,86.0,58.9,29.03,West,270,1.3,2.7,40,0.00,,---,0.00,VWS V14.01,2013-08-08 17:13:00,
2013-08-08 13:14:00,86.0,58.9,29.03,West,270,2.2,2.2,40,0.00,,---,0.00,VWS V14.01,2013-08-08 17:14:00,
2013-08-08 13:15:00,86.0,58.9,29.03,West,270,1.3,2.2,40,0.00,,---,0.00,VWS V14.01,2013-08-08 17:15:00,
2013-08-08 13:16:00,86.0,58.9,29.03,West,270,1.6,1.6,40,0.00,,---,0.00,VWS V14.01,2013-08-08 17:16:00,
2013-08-08 13:17:00,86.0,58.9,29.03,West,270,0.9,1.6,40,0.00,,---,0.00,VWS V14.01,2013-08-08 17:17:00,
2013-08-08 13:18:00,86.4,57.8,29.03,WSW,248,2.5,2.5,38,0.00,,---,0.00,VWS V14.01,2013-08-08 17:18:00,
2013-08-08 13:19:00,87.4,59.5,29.03,WSW,248,1.6,2.5,39,0.00,,---,0.00,VWS V14.01,2013-08-08 17:19:00,
2013-08-08 13:20:00,87.4,59.5,29.03,WSW,248,2.0,2.0,39,0.00,,---,0.00,VWS V14.01,2013-08-08 17:20:00,
2013-08-08 13:21:00,88.2,58.6,29.03,WSW,248,2.0,2.0,37,0.00,,---,0.00,VWS V14.01,2013-08-08 17:21:00,
2013-08-08 13:22:00,88.2,58.6,29.03,WSW,248,2.0,2.0,37,0.00,,---,0.00,VWS V14.01,2013-08-08 17:22:00,
2013-08-08 13:23:00,88.5,58.2,29.03,WSW,248,3.1,3.1,36,0.00,,---,0.00,VWS V14.01,2013-08-08 17:23:00,
2013-08-08 13:24:00,88.7,58.3,29.03,WSW,248,2.9,3.1,36,0.00,,---,0.00,VWS V14.01,2013-08-08 17:24:00,
2013-08-08 13:25:00,88.7,58.3,29.03,WSW,248,2.9,2.9,36,0.00,,---,0.00,VWS V14.01,2013-08-08 17:25:00,
2013-08-08 13:26:00,88.9,56.1,29.03,WSW,248,2.9,2.9,33,0.00,,---,0.00,VWS V14.01,2013-08-08 17:26:00,
2013-08-08 13:27:00,88.9,56.1,29.03,West,270,3.8,3.8,33,0.00,,---,0.00,VWS V14.01,2013-08-08 17:27:00,
2013-08-08 13:28:00,88.3,58.0,29.03,West,270,2.0,3.8,36,0.00,,---,0.00,VWS V14.01,2013-08-08 17:28:00,
2013-08-08 13:29:00,88.3,58.0,29.03,West,270,1.1,2.0,36,0.00,,---,0.00,VWS V14.01,2013-08-08 17:29:00,
2013-08-08 13:30:00,87.1,57.7,29.03,West,270,2.0,2.0,37,0.00,,---,0.00,VWS V14.01,2013-08-08 17:30:00,
2013-08-08 13:31:00,87.1,57.7,29.03,West,270,2.9,2.9,37,0.00,,---,0.00,VWS V14.01,2013-08-08 17:31:00,
2013-08-08 13:32:00,86.4,58.5,29.03,WNW,292,2.5,2.9,39,0.00,,---,0.00,VWS V14.01,2013-08-08 17:32:00,
2013-08-08 13:33:00,84.7,56.3,29.03,WNW,292,0.0,2.5,38,0.00,,---,0.00,VWS V14.01,2013-08-08 17:33:00,
2013-08-08 13:34:00,84.7,56.3,29.03,WNW,292,0.9,0.9,38,0.00,,---,0.00,VWS V14.01,2013-08-08 17:34:00,
2013-08-08 13:35:00,84.6,56.2,29.03,WNW,292,0.0,0.9,38,0.00,,---,0.00,VWS V14.01,2013-08-08 17:35:00,
2013-08-08 13:36:00,84.6,56.2,29.03,WNW,292,0.0,0.0,38,0.00,,---,0.00,VWS V14.01,2013-08-08 17:36:00,
2013-08-08 13:37:00,84.0,57.1,29.03,WSW,248,1.3,1.3,40,0.00,,---,0.00,VWS V14.01,2013-08-08 17:37:00,
2013-08-08 13:38:00,84.0,57.1,29.03,WSW,248,0.0,1.3,40,0.00,,---,0.00,VWS V14.01,2013-08-08 17:38:00,
2013-08-08 13:39:00,83.1,55.6,29.03,WSW,248,0.0,0.0,39,0.00,,---,0.00,VWS V14.01,2013-08-08 17:39:00,
2013-08-08 13:40:00,82.6,55.1,29.03,WSW,248,0.0,0.0,39,0.00,,---,0.00,VWS V14.01,2013-08-08 17:40:00,
2013-08-08 13:41:00,82.6,55.1,29.03,NW,315,0.0,0.0,39,0.00,,---,0.00,VWS V14.01,2013-08-08 17:41:00,
2013-08-08 13:42:00,82.6,55.8,29.03,NW,315,0.0,0.0,40,0.00,,---,0.00,VWS V14.01,2013-08-08 17:42:00,
2013-08-08 13:43:00,82.6,55.8,29.03,NW,315,0.0,0.0,40,0.00,,---,0.00,VWS V14.01,2013-08-08 17:43:00,
2013-08-08 13:44:00,82.8,56.0,29.03,NW,315,0.0,0.0,40,0.00,,---,0.00,VWS V14.01,2013-08-08 17:44:00,
2013-08-08 13:45:00,82.8,56.0,29.03,NW,315,0.0,0.0,40,0.00,,---,0.00,VWS V14.01,2013-08-08 17:45:00,
2013-08-08 13:46:00,82.9,56.2,29.03,NW,315,0.0,0.0,40,0.00,,---,0.00,VWS V14.01,2013-08-08 17:46:00,
2013-08-08 13:47:00,82.8,56.0,29.03,NW,315,0.0,0.0,40,0.00,,---,0.00,VWS V14.01,2013-08-08 17:47:00,
2013-08-08 13:48:00,82.8,56.0,29.03,NW,315,0.0,0.0,40,0.00,,---,0.00,VWS V14.01,2013-08-08 17:48:00,
2013-08-08 13:49:00,82.9,56.8,29.03,NW,315,1.6,1.6,41,0.00,,---,0.00,VWS V14.01,2013-08-08 17:49:00,
2013-08-08 13:50:00,82.9,56.8,29.03,NW,315,0.0,1.6,41,0.00,,---,0.00,VWS V14.01,2013-08-08 17:50:00,
2013-08-08 13:51:00,83.5,56.6,29.03,NW,315,0.0,0.0,40,0.00,,---,0.00,VWS V14.01,2013-08-08 17:51:00,
2013-08-08 13:52:00,83.5,56.6,29.03,NW,315,0.0,0.0,40,0.00,,---,0.00,VWS V14.01,2013-08-08 17:52:00,
2013-08-08 13:53:00,83.1,56.3,29.03,NW,315,1.6,1.6,40,0.00,,---,0.00,VWS V14.01,2013-08-08 17:53:00,
2013-08-08 13:54:00,83.1,56.3,29.03,NW,315,1.3,1.6,40,0.00,,---,0.00,VWS V14.01,2013-08-08 17:54:00,
2013-08-08 13:55:00,82.9,56.8,29.03,NW,315,2.5,2.5,41,0.00,,---,0.00,VWS V14.01,2013-08-08 17:55:00,
2013-08-08 13:56:00,82.9,56.8,29.03,NW,315,2.5,2.5,41,0.00,,---,0.00,VWS V14.01,2013-08-08 17:56:00,
2013-08-08 13:57:00,82.9,56.8,29.03,NW,315,0.0,2.5,41,0.00,,---,0.00,VWS V14.01,2013-08-08 17:57:00,
2013-08-08 13:58:00,82.6,56.5,29.03,NW,315,1.3,1.3,41,0.00,,---,0.00,VWS V14.01,2013-08-08 17:58:00,
2013-08-08 13:59:00,82.6,56.5,29.03,NW,315,2.5,2.5,41,0.00,,---,0.00,VWS V14.01,2013-08-08 17:59:00,
2013-08-08 14:00:00,82.4,55.7,29.03,NW,315,2.5,2.5,40,0.00,,---,0.00,VWS V14.01,2013-08-08 18:00:00,
2013-08-08 14:01:00,82.6,55.8,29.03,NW,315,2.7,2.7,40,0.00,,---,0.00,VWS V14.01,2013-08-08 18:01:00,
2013-08-08 14:02:00,82.6,55.8,29.03,NW,315,2.7,2.7,40,0.00,,---,0.00,VWS V14.01,2013-08-08 18:02:00,
2013-08-08 14:03:00,82.6,56.5,29.03,WNW,292,2.5,2.7,41,0.00,,---,0.00,VWS V14.01,2013-08-08 18:03:00,
2013-08-08 14:04:00,82.6,56.5,29.03,WNW,292,2.9,2.9,41,0.00,,---,0.00,VWS V14.01,2013-08-08 18:04:00,
2013-08-08 14:05:00,82.0,56.7,29.03,WNW,292,1.6,2.9,42,0.00,,---,0.00,VWS V14.01,2013-08-08 18:05:00,
2013-08-08 14:06:00,82.0,56.7,29.03,WNW,292,1.6,1.6,42,0.00,,---,0.00,VWS V14.01,2013-08-08 18:06:00,
2013-08-08 14:07:00,81.9,56.5,29.03,West,270,0.0,1.6,42,0.00,,---,0.00,VWS V14.01,2013-08-08 18:07:00,
2013-08-08 14:08:00,81.5,56.2,29.03,West,270,0.0,0.0,42,0.00,,---,0.00,VWS V14.01,2013-08-08 18:08:00,
2013-08-08 14:09:00,81.5,56.2,29.03,West,270,0.0,0.0,42,0.00,,---,0.00,VWS V14.01,2013-08-08 18:09:00,
2013-08-08 14:10:00,81.5,56.2,29.03,West,270,0.0,0.0,42,0.00,,---,0.00,VWS V14.01,2013-08-08 18:10:00,
2013-08-08 14:11:00,80.8,55.6,29.03,West,270,0.0,0.0,42,0.00,,---,0.00,VWS V14.01,2013-08-08 18:11:00,
2013-08-08 14:12:00,80.4,56.5,29.03,West,270,0.0,0.0,44,0.00,,---,0.00,VWS V14.01,2013-08-08 18:12:00,
2013-08-08 14:13:00,80.4,56.5,29.03,West,270,0.0,0.0,44,0.00,,---,0.00,VWS V14.01,2013-08-08 18:13:00,
2013-08-08 14:14:00,80.1,56.8,29.03,WNW,292,1.1,1.1,45,0.00,,---,0.00,VWS V14.01,2013-08-08 18:14:00,
2013-08-08 14:15:00,80.1,56.8,29.03,WNW,292,0.0,1.1,45,0.00,,---,0.00,VWS V14.01,2013-08-08 18:15:00,
2013-08-08 14:16:00,80.2,57.0,29.03,WNW,292,0.0,0.0,45,0.00,,---,0.00,VWS V14.01,2013-08-08 18:16:00,
2013-08-08 14:17:00,80.1,57.4,29.03,WNW,292,0.0,0.0,46,0.00,,---,0.00,VWS V14.01,2013-08-08 18:17:00,
2013-08-08 14:18:00,80.1,57.4,29.03,WNW,292,0.0,0.0,46,0.00,,---,0.00,VWS V14.01,2013-08-08 18:18:00,
2013-08-08 14:19:00,80.6,57.3,29.03,WNW,292,0.0,0.0,45,0.00,,---,0.00,VWS V14.01,2013-08-08 18:19:00,
2013-08-08 14:20:00,80.6,57.3,29.03,WNW,292,0.0,0.0,45,0.00,,---,0.00,VWS V14.01,2013-08-08 18:20:00,
2013-08-08 14:21:00,81.7,58.3,29.03,WNW,292,0.0,0.0,45,0.00,,---,0.00,VWS V14.01,2013-08-08 18:21:00,
2013-08-08 14:22:00,81.7,58.3,29.03,WNW,292,0.0,0.0,45,0.00,,---,0.00,VWS V14.01,2013-08-08 18:22:00,
2013-08-08 14:23:00,81.1,57.8,29.03,WNW,292,0.0,0.0,45,0.00,,---,0.00,VWS V14.01,2013-08-08 18:23:00,
2013-08-08 14:24:00,81.1,57.8,29.03,WNW,292,0.0,0.0,45,0.00,,---,0.00,VWS V14.01,2013-08-08 18:24:00,
2013-08-08 14:25:00,80.8,58.1,29.03,WNW,292,0.0,0.0,46,0.00,,---,0.00,VWS V14.01,2013-08-08 18:25:00,
2013-08-08 14:26:00,80.8,56.9,29.03,WNW,292,0.0,0.0,44,0.00,,---,0.00,VWS V14.01,2013-08-08 18:26:00,
2013-08-08 14:27:00,80.8,56.9,29.03,WNW,292,0.0,0.0,44,0.00,,---,0.00,VWS V14.01,2013-08-08 18:27:00,
2013-08-08 14:28:00,82.0,59.2,29.03,WNW,292,0.0,0.0,46,0.00,,---,0.00,VWS V14.01,2013-08-08 18:28:00,
2013-08-08 14:29:00,82.0,59.2,29.03,WNW,292,1.6,1.6,46,0.00,,---,0.00,VWS V14.01,2013-08-08 18:29:00,
2013-08-08 14:30:00,83.7,59.5,29.03,WNW,292,1.6,1.6,44,0.00,,---,0.00,VWS V14.01,2013-08-08 18:30:00,
2013-08-08 14:31:00,83.7,59.5,29.03,WNW,292,1.6,1.6,44,0.00,,---,0.00,VWS V14.01,2013-08-08 18:31:00,
2013-08-08 14:32:00,84.9,57.2,29.03,WNW,292,1.6,1.6,39,0.00,,---,0.00,VWS V14.01,2013-08-08 18:32:00,
2013-08-08 14:33:00,86.4,59.2,29.03,WNW,292,1.6,1.6,40,0.00,,---,0.00,VWS V14.01,2013-08-08 18:33:00,
2013-08-08 14:34:00,86.4,59.2,29.03,WNW,292,2.0,2.0,40,0.00,,---,0.00,VWS V14.01,2013-08-08 18:34:00,
2013-08-08 14:35:00,87.6,59.6,29.03,WNW,292,1.3,2.0,39,0.00,,---,0.00,VWS V14.01,2013-08-08 18:35:00,
2013-08-08 14:36:00,87.6,59.6,29.03,WNW,292,1.3,1.3,39,0.00,,---,0.00,VWS V14.01,2013-08-08 18:36:00,
2013-08-08 14:37:00,87.4,58.7,29.03,WNW,292,0.0,1.3,38,0.00,,---,0.00,VWS V14.01,2013-08-08 18:37:00,
2013-08-08 14:38:00,87.4,58.7,29.03,WNW,292,0.0,0.0,38,0.00,,---,0.00,VWS V14.01,2013-08-08 18:38:00,
2013-08-08 14:39:00,88.3,58.8,29.03,WNW,292,0.0,0.0,37,0.00,,---,0.00,VWS V14.01,2013-08-08 18:39:00,
2013-08-08 14:40:00,88.3,58.8,29.03,WNW,292,1.3,1.3,37,0.00,,---,0.00,VWS V14.01,2013-08-08 18:40:00,
2013-08-08 14:41:00,88.3,57.2,29.03,WNW,292,1.3,1.3,35,0.00,,---,0.00,VWS V14.01,2013-08-08 18:41:00,
2013-08-08 14:42:00,87.8,59.1,29.03,WNW,292,1.3,1.3,38,0.00,,---,0.00,VWS V14.01,2013-08-08 18:42:00,
2013-08-08 14:43:00,87.8,59.1,29.03,WNW,292,1.3,1.3,38,0.00,,---,0.00,VWS V14.01,2013-08-08 18:43:00,
2013-08-08 14:44:00,86.9,58.3,29.03,WNW,292,1.3,1.3,38,0.00,,---,0.00,VWS V14.01,2013-08-08 18:44:00,
2013-08-08 14:45:00,86.9,58.3,29.03,West,270,1.6,1.6,38,0.00,,---,0.00,VWS V14.01,2013-08-08 18:45:00,
2013-08-08 14:46:00,86.9,58.3,29.03,West,270,2.5,2.5,38,0.00,,---,0.00,VWS V14.01,2013-08-08 18:46:00,
2013-08-08 14:47:00,86.9,58.3,29.03,West,270,2.5,2.5,38,0.00,,---,0.00,VWS V14.01,2013-08-08 18:47:00,
2013-08-08 14:48:00,86.5,56.4,29.03,West,270,2.5,2.5,36,0.00,,---,0.00,VWS V14.01,2013-08-08 18:48:00,
2013-08-08 14:49:00,86.2,56.9,29.03,West,270,2.5,2.5,37,0.00,,---,0.00,VWS V14.01,2013-08-08 18:49:00,
2013-08-08 14:50:00,86.2,56.9,29.03,West,270,2.5,2.5,37,0.00,,---,0.00,VWS V14.01,2013-08-08 18:50:00,
2013-08-08 14:51:00,85.5,56.2,29.03,West,270,3.6,3.6,37,0.00,,---,0.00,VWS V14.01,2013-08-08 18:51:00,
2013-08-08 14:52:00,85.5,56.2,29.03,West,270,2.2,3.6,37,0.00,,---,0.00,VWS V14.01,2013-08-08 18:52:00,
2013-08-08 14:53:00,85.5,56.2,29.03,WSW,248,2.0,2.2,37,0.00,,---,0.00,VWS V14.01,2013-08-08 18:53:00,
2013-08-08 14:54:00,85.5,56.2,29.03,WSW,248,2.0,2.0,37,0.00,,---,0.00,VWS V14.01,2013-08-08 18:54:00,
2013-08-08 14:55:00,87.1,58.4,29.03,WSW,248,1.6,1.6,38,0.00,,---,0.00,VWS V14.01,2013-08-08 18:55:00,
2013-08-08 14:56:00,87.1,53.7,29.03,WSW,248,1.6,1.6,32,0.00,,---,0.00,VWS V14.01,2013-08-08 18:56:00,
2013-08-08 14:57:00,87.1,53.7,29.03,WSW,248,1.6,1.6,32,0.00,,---,0.00,VWS V14.01,2013-08-08 18:57:00,
2013-08-08 14:58:00,86.7,52.5,29.03,WSW,248,1.6,1.6,31,0.00,,---,0.00,VWS V14.01,2013-08-08 18:58:00,
2013-08-08 14:59:00,86.7,52.5,29.03,WSW,248,1.6,1.6,31,0.00,,---,0.00,VWS V14.01,2013-08-08 18:59:00,
2013-08-08 15:00:00,87.3,57.1,29.03,West,270,1.6,1.6,36,0.00,,---,0.00,VWS V14.01,2013-08-08 19:00:00,
2013-08-08 15:01:00,87.4,57.2,29.03,WSW,248,2.5,2.5,36,0.00,,---,0.00,VWS V14.01,2013-08-08 19:01:00,
2013-08-08 15:02:00,87.4,57.2,29.03,WSW,248,2.5,2.5,36,0.00,,---,0.00,VWS V14.01,2013-08-08 19:02:00,
2013-08-08 15:03:00,86.5,57.2,29.03,WSW,248,2.5,2.5,37,0.00,,---,0.00,VWS V14.01,2013-08-08 19:03:00,
2013-08-08 15:04:00,86.5,57.2,29.03,WSW,248,2.5,2.5,37,0.00,,---,0.00,VWS V14.01,2013-08-08 19:04:00,
2013-08-08 15:05:00,86.9,56.8,29.03,West,270,0.0,2.5,36,0.00,,---,0.00,VWS V14.01,2013-08-08 19:05:00,
2013-08-08 15:06:00,86.9,56.8,29.03,West,270,0.0,0.0,36,0.00,,---,0.00,VWS V14.01,2013-08-08 19:06:00,
2013-08-08 15:07:00,86.0,56.7,29.03,West,270,0.0,0.0,37,0.00,,---,0.00,VWS V14.01,2013-08-08 19:07:00,
2013-08-08 15:08:00,84.9,55.0,29.03,West,270,0.9,0.9,36,0.00,,---,0.00,VWS V14.01,2013-08-08 19:08:00,
2013-08-08 15:09:00,84.9,55.0,29.03,West,270,0.0,0.9,36,0.00,,---,0.00,VWS V14.01,2013-08-08 19:09:00,
2013-08-08 15:10:00,84.4,55.3,29.03,West,270,0.0,0.0,37,0.00,,---,0.00,VWS V14.01,2013-08-08 19:10:00,
2013-08-08 15:11:00,84.4,55.3,29.03,West,270,0.0,0.0,37,0.00,,---,0.00,VWS V14.01,2013-08-08 19:11:00,
2013-08-08 15:12:00,83.3,55.1,29.03,ESE,112,1.1,1.1,38,0.00,,---,0.00,VWS V14.01,2013-08-08 19:12:00,
2013-08-08 15:13:00,82.6,54.4,29.03,ESE,112,0.0,0.0,38,0.00,,---,0.00,VWS V14.01,2013-08-08 19:13:00,
2013-08-08 15:14:00,82.6,54.4,29.03,ESE,112,0.0,0.0,38,0.00,,---,0.00,VWS V14.01,2013-08-08 19:14:00,
2013-08-08 15:15:00,82.6,54.4,29.03,ESE,112,0.0,0.0,38,0.00,,---,0.00,VWS V14.01,2013-08-08 19:15:00,
2013-08-08 15:16:00,83.1,56.3,29.03,ESE,112,0.0,0.0,40,0.00,,---,0.00,VWS V14.01,2013-08-08 19:16:00,
2013-08-08 15:17:00,85.5,57.7,29.03,ESE,112,0.0,0.0,39,0.00,,---,0.00,VWS V14.01,2013-08-08 19:17:00,
2013-08-08 15:18:00,85.5,57.7,29.03,South,180,1.6,1.6,39,0.00,,---,0.00,VWS V14.01,2013-08-08 19:18:00,
2013-08-08 15:19:00,86.4,57.8,29.03,SSW,202,1.6,1.6,38,0.00,,---,0.00,VWS V14.01,2013-08-08 19:19:00,
2013-08-08 15:20:00,86.4,57.8,29.03,SSW,202,1.6,1.6,38,0.00,,---,0.00,VWS V14.01,2013-08-08 19:20:00,
2013-08-08 15:21:00,86.9,58.3,29.03,SSW,202,1.6,1.6,38,0.00,,---,0.00,VWS V14.01,2013-08-08 19:21:00,
2013-08-08 15:22:00,86.9,58.3,29.03,SSW,202,1.6,1.6,38,0.00,,---,0.00,VWS V14.01,2013-08-08 19:22:00,
2013-08-08 15:23:00,87.3,57.8,29.03,SW,225,3.1,3.1,37,0.00,,---,0.00,VWS V14.01,2013-08-08 19:23:00,
2013-08-08 15:24:00,87.3,57.8,29.03,SW,225,3.1,3.1,37,0.00,,---,0.00,VWS V14.01,2013-08-08 19:24:00,
2013-08-08 15:25:00,87.3,57.8,29.03,SW,225,3.1,3.1,37,0.00,,---,0.00,VWS V14.01,2013-08-08 19:25:00,
2013-08-08 15:26:00,85.5,57.7,29.03,SW,225,3.1,3.1,39,0.00,,---,0.00,VWS V14.01,2013-08-08 19:26:00,
2013-08-08 15:27:00,85.5,57.7,29.03,SSW,202,1.1,3.1,39,0.00,,---,0.00,VWS V14.01,2013-08-08 19:27:00,
2013-08-08 15:28:00,84.9,57.2,29.03,SSW,202,1.1,1.1,39,0.00,,---,0.00,VWS V14.01,2013-08-08 19:28:00,
2013-08-08 15:29:00,84.9,57.2,29.03,SSW,202,1.1,1.1,39,0.00,,---,0.00,VWS V14.01,2013-08-08 19:29:00,
2013-08-08 15:30:00,84.0,57.1,29.03,South,180,1.3,1.3,40,0.00,,---,0.00,VWS V14.01,2013-08-08 19:30:00,
2013-08-08 15:31:00,84.0,57.1,29.03,ESE,112,1.3,1.3,40,0.00,,---,0.00,VWS V14.01,2013-08-08 19:31:00,
2013-08-08 15:32:00,83.7,56.8,29.03,ESE,112,0.9,1.3,40,0.00,,---,0.00,VWS V14.01,2013-08-08 19:32:00,
2013-08-08 15:33:00,83.1,57.0,29.03,ESE,112,0.9,0.9,41,0.00,,---,0.00,VWS V14.01,2013-08-08 19:33:00,
2013-08-08 15:34:00,83.1,57.0,29.03,ESE,112,0.9,0.9,41,0.00,,---,0.00,VWS V14.01,2013-08-08 19:34:00,
2013-08-08 15:35:00,82.6,56.5,29.03,ESE,112,1.6,1.6,41,0.00,,---,0.00,VWS V14.01,2013-08-08 19:35:00,
2013-08-08 15:36:00,82.6,56.5,29.03,ESE,112,1.3,1.6,41,0.00,,---,0.00,VWS V14.01,2013-08-08 19:36:00,
2013-08-08 15:37:00,82.4,57.0,29.00,ESE,112,1.3,1.3,42,0.00,,---,0.00,VWS V14.01,2013-08-08 19:37:00,
2013-08-08 15:38:00,82.0,57.4,29.00,ESE,112,1.3,1.3,43,0.00,,---,0.00,VWS V14.01,2013-08-08 19:38:00,
2013-08-08 15:39:00,82.0,57.4,29.00,ESE,112,1.3,1.3,43,0.00,,---,0.00,VWS V14.01,2013-08-08 19:39:00,
2013-08-08 15:40:00,82.0,57.4,29.00,ESE,112,0.0,1.3,43,0.00,,---,0.00,VWS V14.01,2013-08-08 19:40:00,
2013-08-08 15:41:00,81.7,57.0,29.00,ESE,112,0.0,0.0,43,0.00,,---,0.00,VWS V14.01,2013-08-08 19:41:00,
2013-08-08 15:42:00,81.3,56.7,29.00,ESE,112,0.0,0.0,43,0.00,,---,0.00,VWS V14.01,2013-08-08 19:42:00,
2013-08-08 15:43:00,80.6,56.7,29.00,SE,135,1.1,1.3,44,0.00,,---,0.00,VWS V14.01,2013-08-08 19:43:00,
2013-08-08 15:44:00,80.6,56.7,29.00,SE,135,1.1,1.3,44,0.00,,---,0.00,VWS V14.01,2013-08-08 19:44:00,
2013-08-08 15:45:00,80.6,56.7,29.00,SE,135,0.0,1.1,44,0.00,,---,0.00,VWS V14.01,2013-08-08 19:45:00,
2013-08-08 15:46:00,80.8,56.9,29.00,SSE,158,0.0,0.0,44,0.00,,---,0.00,VWS V14.01,2013-08-08 19:46:00,
2013-08-08 15:47:00,80.8,56.9,29.00,SSE,158,0.0,0.0,44,0.00,,---,0.00,VWS V14.01,2013-08-08 19:47:00,
2013-08-08 15:48:00,80.8,56.9,29.00,ESE,112,0.0,0.0,44,0.00,,---,0.00,VWS V14.01,2013-08-08 19:48:00,
2013-08-08 15:49:00,82.4,57.7,29.00,ESE,112,0.0,0.0,43,0.00,,---,0.00,VWS V14.01,2013-08-08 19:49:00,
2013-08-08 15:50:00,82.4,57.7,29.00,ESE,112,2.7,2.7,43,0.00,,---,0.00,VWS V14.01,2013-08-08 19:50:00,
2013-08-08 15:51:00,82.9,58.2,29.00,ESE,112,2.2,2.7,43,0.00,,---,0.00,VWS V14.01,2013-08-08 19:51:00,
2013-08-08 15:52:00,82.9,58.2,29.00,SE,135,1.6,2.2,43,0.00,,---,0.00,VWS V14.01,2013-08-08 19:52:00,
2013-08-08 15:53:00,82.9,57.5,29.00,SE,135,0.0,1.1,42,0.00,,---,0.00,VWS V14.01,2013-08-08 19:53:00,
2013-08-08 15:54:00,82.9,57.5,29.00,SE,135,0.0,1.1,42,0.00,,---,0.00,VWS V14.01,2013-08-08 19:54:00,
2013-08-08 15:55:00,82.6,57.2,29.00,WNW,292,2.9,2.9,42,0.00,,---,0.00,VWS V14.01,2013-08-08 19:55:00,
2013-08-08 15:56:00,82.6,57.2,29.00,WNW,292,2.0,2.9,42,0.00,,---,0.00,VWS V14.01,2013-08-08 19:56:00,
2013-08-08 15:57:00,82.6,57.8,29.00,WNW,292,0.0,2.0,43,0.00,,---,0.00,VWS V14.01,2013-08-08 19:57:00,
2013-08-08 15:58:00,82.6,57.2,29.00,WNW,292,0.0,0.0,42,0.00,,---,0.00,VWS V14.01,2013-08-08 19:58:00,
2013-08-08 15:59:00,82.6,57.2,29.00,WNW,292,0.0,0.0,42,0.00,,---,0.00,VWS V14.01,2013-08-08 19:59:00,
2013-08-08 16:00:00,82.6,57.2,29.00,WNW,292,0.0,0.0,42,0.00,,---,0.00,VWS V14.01,2013-08-08 20:00:00,
2013-08-08 16:01:00,82.6,57.2,29.00,WNW,292,0.0,0.0,42,0.00,,---,0.00,VWS V14.01,2013-08-08 20:01:00,
2013-08-08 16:02:00,83.7,58.2,29.00,WNW,292,2.5,2.5,42,0.00,,---,0.00,VWS V14.01,2013-08-08 20:02:00,
2013-08-08 16:03:00,84.6,58.3,29.00,WNW,292,2.5,2.5,41,0.00,,---,0.00,VWS V14.01,2013-08-08 20:03:00,
2013-08-08 16:04:00,84.6,58.3,29.00,WNW,292,1.3,2.5,41,0.00,,---,0.00,VWS V14.01,2013-08-08 20:04:00,
2013-08-08 16:05:00,84.2,58.0,29.00,WNW,292,2.2,2.2,41,0.00,,---,0.00,VWS V14.01,2013-08-08 20:05:00,
2013-08-08 16:06:00,84.2,58.0,29.00,WNW,292,0.0,2.2,41,0.00,,---,0.00,VWS V14.01,2013-08-08 20:06:00,
2013-08-08 16:07:00,84.9,58.6,29.00,WNW,292,0.0,0.0,41,0.00,,---,0.00,VWS V14.01,2013-08-08 20:07:00,
2013-08-08 16:08:00,85.5,59.1,29.00,WNW,292,0.0,0.0,41,0.00,,---,0.00,VWS V14.01,2013-08-08 20:08:00,
2013-08-08 16:09:00,85.5,59.1,29.00,WNW,292,0.0,0.0,41,0.00,,---,0.00,VWS V14.01,2013-08-08 20:09:00,
2013-08-08 16:10:00,84.9,58.6,29.00,WNW,292,0.0,0.0,41,0.00,,---,0.00,VWS V14.01,2013-08-08 20:10:00,
2013-08-08 16:11:00,84.9,58.6,29.00,WNW,292,0.0,0.0,41,0.00,,---,0.00,VWS V14.01,2013-08-08 20:11:00,
2013-08-08 16:12:00,83.7,57.5,29.00,WNW,292,0.0,0.0,41,0.00,,---,0.00,VWS V14.01,2013-08-08 20:12:00,
2013-08-08 16:13:00,83.5,58.0,29.00,WNW,292,0.0,0.0,42,0.00,,---,0.00,VWS V14.01,2013-08-08 20:13:00,
2013-08-08 16:14:00,83.5,58.0,29.00,WNW,292,0.0,0.0,42,0.00,,---,0.00,VWS V14.01,2013-08-08 20:14:00,
2013-08-08 16:15:00,83.5,58.0,29.00,WNW,292,0.0,0.0,42,0.00,,---,0.00,VWS V14.01,2013-08-08 20:15:00,
2013-08-08 16:16:00,82.8,57.3,29.00,WNW,292,0.0,0.0,42,0.00,,---,0.00,VWS V14.01,2013-08-08 20:16:00,
2013-08-08 16:17:00,82.8,57.3,29.00,WNW,292,0.0,0.0,42,0.00,,---,0.00,VWS V14.01,2013-08-08 20:17:00,
2013-08-08 16:18:00,82.8,57.3,29.00,WNW,292,0.0,0.0,42,0.00,,---,0.00,VWS V14.01,2013-08-08 20:18:00,
2013-08-08 16:19:00,83.3,59.1,29.00,WNW,292,0.0,0.0,44,0.00,,---,0.00,VWS V14.01,2013-08-08 20:19:00,
2013-08-08 16:20:00,83.3,59.1,29.00,WNW,292,0.0,0.0,44,0.00,,---,0.00,VWS V14.01,2013-08-08 20:20:00,
2013-08-08 16:21:00,84.4,58.8,29.00,WNW,292,0.0,0.0,42,0.00,,---,0.00,VWS V14.01,2013-08-08 20:21:00,
2013-08-08 16:22:00,84.4,58.8,29.00,WNW,292,0.0,0.0,42,0.00,,---,0.00,VWS V14.01,2013-08-08 20:22:00,
2013-08-08 16:23:00,84.9,59.3,29.00,WNW,292,2.7,2.7,42,0.00,,---,0.00,VWS V14.01,2013-08-08 20:23:00,
2013-08-08 16:24:00,84.9,59.3,29.00,WNW,292,2.7,2.7,42,0.00,,---,0.00,VWS V14.01,2013-08-08 20:24:00,
2013-08-08 16:25:00,84.7,58.5,29.00,WNW,292,2.7,2.7,41,0.00,,---,0.00,VWS V14.01,2013-08-08 20:25:00,
2013-08-08 16:26:00,83.8,57.0,29.00,WNW,292,2.7,2.7,40,0.00,,---,0.00,VWS V14.01,2013-08-08 20:26:00,
2013-08-08 16:27:00,83.8,57.0,29.00,WNW,292,2.7,2.7,40,0.00,,---,0.00,VWS V14.01,2013-08-08 20:27:00,
2013-08-08 16:28:00,83.5,57.3,29.00,WNW,292,2.7,2.7,41,0.00,,---,0.00,VWS V14.01,2013-08-08 20:28:00,
2013-08-08 16:29:00,83.5,57.3,29.00,WNW,292,2.7,2.7,41,0.00,,---,0.00,VWS V14.01,2013-08-08 20:29:00,
2013-08-08 16:30:00,82.9,56.8,29.00,WNW,292,1.3,2.7,41,0.00,,---,0.00,VWS V14.01,2013-08-08 20:30:00,
2013-08-08 16:31:00,82.9,56.8,29.00,WNW,292,1.3,1.3,41,0.00,,---,0.00,VWS V14.01,2013-08-08 20:31:00,
2013-08-08 16:32:00,82.6,56.5,29.00,WNW,292,1.3,1.3,41,0.00,,---,0.00,VWS V14.01,2013-08-08 20:32:00,
2013-08-08 16:33:00,82.4,57.0,29.00,WNW,292,1.3,1.3,42,0.00,,---,0.00,VWS V14.01,2013-08-08 20:33:00,
2013-08-08 16:34:00,82.4,57.0,29.00,WNW,292,0.0,1.3,42,0.00,,---,0.00,VWS V14.01,2013-08-08 20:34:00,
2013-08-08 16:35:00,82.2,57.5,29.00,WNW,292,0.0,0.0,43,0.00,,---,0.00,VWS V14.01,2013-08-08 20:35:00,
2013-08-08 16:36:00,82.2,57.5,29.00,WNW,292,0.0,0.0,43,0.00,,---,0.00,VWS V14.01,2013-08-08 20:36:00,
2013-08-08 16:37:00,82.0,57.4,29.00,WNW,292,0.0,0.0,43,0.00,,---,0.00,VWS V14.01,2013-08-08 20:37:00,
2013-08-08 16:38:00,81.5,57.5,29.00,WNW,292,0.0,0.0,44,0.00,,---,0.00,VWS V14.01,2013-08-08 20:38:00,
2013-08-08 16:39:00,81.5,57.5,29.00,WNW,292,0.0,0.0,44,0.00,,---,0.00,VWS V14.01,2013-08-08 20:39:00,
2013-08-08 16:40:00,81.7,57.7,29.00,WNW,292,0.0,0.0,44,0.00,,---,0.00,VWS V14.01,2013-08-08 20:40:00,
2013-08-08 16:41:00,81.7,57.7,29.00,WNW,292,0.0,0.0,44,0.00,,---,0.00,VWS V14.01,2013-08-08 20:41:00,
2013-08-08 16:42:00,81.3,57.3,29.00,WNW,292,0.0,0.0,44,0.00,,---,0.00,VWS V14.01,2013-08-08 20:42:00,
2013-08-08 16:43:00,81.0,57.6,29.00,WNW,292,0.0,0.0,45,0.00,,---,0.00,VWS V14.01,2013-08-08 20:43:00,
2013-08-08 16:44:00,81.0,57.6,29.00,WNW,292,0.0,0.0,45,0.00,,---,0.00,VWS V14.01,2013-08-08 20:44:00,
2013-08-08 16:45:00,81.0,57.6,29.00,WNW,292,0.0,0.0,45,0.00,,---,0.00,VWS V14.01,2013-08-08 20:45:00,
2013-08-08 16:46:00,80.6,58.5,29.00,WNW,292,1.3,1.3,47,0.00,,---,0.00,VWS V14.01,2013-08-08 20:46:00,
2013-08-08 16:47:00,80.6,58.5,29.00,WNW,292,1.3,1.3,47,0.00,,---,0.00,VWS V14.01,2013-08-08 20:47:00,
2013-08-08 16:48:00,80.6,58.5,29.00,WNW,292,1.3,1.3,47,0.00,,---,0.00,VWS V14.01,2013-08-08 20:48:00,
2013-08-08 16:49:00,80.6,58.5,29.00,WNW,292,0.0,1.3,47,0.00,,---,0.00,VWS V14.01,2013-08-08 20:49:00,
2013-08-08 16:50:00,80.6,58.5,29.00,WNW,292,0.0,0.0,47,0.00,,---,0.00,VWS V14.01,2013-08-08 20:50:00,
2013-08-08 16:51:00,80.6,58.5,29.00,WNW,292,0.0,0.0,47,0.00,,---,0.00,VWS V14.01,2013-08-08 20:51:00,
2013-08-08 16:52:00,80.6,58.5,29.00,WNW,292,0.0,0.0,47,0.00,,---,0.00,VWS V14.01,2013-08-08 20:52:00,
2013-08-08 16:53:00,80.6,58.5,29.00,WNW,292,0.0,0.0,47,0.00,,---,0.00,VWS V14.01,2013-08-08 20:53:00,
2013-08-08 16:54:00,80.6,58.5,29.00,WNW,292,0.0,0.0,47,0.00,,---,0.00,VWS V14.01,2013-08-08 20:54:00,
2013-08-08 16:55:00,81.7,59.5,29.00,WNW,292,0.0,0.0,47,0.00,,---,0.00,VWS V14.01,2013-08-08 20:55:00,
2013-08-08 16:56:00,81.7,58.9,29.00,WNW,292,0.0,0.0,46,0.00,,---,0.00,VWS V14.01,2013-08-08 20:56:00,
2013-08-08 16:57:00,81.7,58.9,29.00,WNW,292,0.0,0.0,46,0.00,,---,0.00,VWS V14.01,2013-08-08 20:57:00,
2013-08-08 16:58:00,81.3,58.0,29.00,WNW,292,1.1,1.1,45,0.00,,---,0.00,VWS V14.01,2013-08-08 20:58:00,
2013-08-08 16:59:00,81.3,58.0,29.00,WNW,292,0.0,1.1,45,0.00,,---,0.00,VWS V14.01,2013-08-08 20:59:00,
2013-08-08 17:00:00,81.3,58.6,29.00,WNW,292,0.0,0.0,46,0.00,,---,0.00,VWS V14.01,2013-08-08 21:00:00,
2013-08-08 17:01:00,81.3,58.6,29.00,WNW,292,0.0,0.0,46,0.00,,---,0.00,VWS V14.01,2013-08-08 21:01:00,
2013-08-08 17:02:00,81.3,58.6,29.00,WNW,292,0.0,0.0,46,0.00,,---,0.00,VWS V14.01,2013-08-08 21:02:00,
2013-08-08 17:03:00,81.9,58.5,29.00,WNW,292,0.0,0.0,45,0.00,,---,0.00,VWS V14.01,2013-08-08 21:03:00,
2013-08-08 17:04:00,81.9,58.5,29.00,WNW,292,0.0,0.0,45,0.00,,---,0.00,VWS V14.01,2013-08-08 21:04:00,
2013-08-08 17:05:00,81.1,58.4,29.00,WNW,292,0.0,0.0,46,0.00,,---,0.00,VWS V14.01,2013-08-08 21:05:00,
2013-08-08 17:06:00,81.1,58.4,29.00,WNW,292,0.0,0.0,46,0.00,,---,0.00,VWS V14.01,2013-08-08 21:06:00,
2013-08-08 17:07:00,81.1,58.4,29.00,WNW,292,0.0,0.0,46,0.00,,---,0.00,VWS V14.01,2013-08-08 21:07:00,
2013-08-08 17:08:00,81.0,58.9,29.00,WNW,292,0.0,0.0,47,0.00,,---,0.00,VWS V14.01,2013-08-08 21:08:00,
2013-08-08 17:09:00,81.0,58.9,29.00,WNW,292,0.0,0.0,47,0.00,,---,0.00,VWS V14.01,2013-08-08 21:09:00,
2013-08-08 17:10:00,81.0,58.9,29.00,WNW,292,0.0,0.0,47,0.00,,---,0.00,VWS V14.01,2013-08-08 21:10:00,
2013-08-08 17:11:00,81.0,58.9,29.00,WNW,292,0.0,0.0,47,0.00,,---,0.00,VWS V14.01,2013-08-08 21:11:00,
2013-08-08 17:12:00,79.9,58.5,29.00,WNW,292,0.0,0.0,48,0.00,,---,0.00,VWS V14.01,2013-08-08 21:12:00,
2013-08-08 17:13:00,79.5,58.7,29.00,WNW,292,0.0,0.0,49,0.00,,---,0.00,VWS V14.01,2013-08-08 21:13:00,
2013-08-08 17:14:00,79.5,58.7,29.00,WNW,292,0.0,0.0,49,0.00,,---,0.00,VWS V14.01,2013-08-08 21:14:00,
2013-08-08 17:15:00,79.5,58.7,29.00,WNW,292,0.0,0.0,49,0.00,,---,0.00,VWS V14.01,2013-08-08 21:15:00,
2013-08-08 17:16:00,79.5,58.7,29.00,WNW,292,0.0,0.0,49,0.00,,---,0.00,VWS V14.01,2013-08-08 21:16:00,
2013-08-08 17:17:00,79.5,58.7,29.00,WNW,292,0.0,0.0,49,0.00,,---,0.00,VWS V14.01,2013-08-08 21:17:00,
2013-08-08 17:18:00,79.0,58.8,29.00,WNW,292,0.0,0.0,50,0.00,,---,0.00,VWS V14.01,2013-08-08 21:18:00,
2013-08-08 17:19:00,79.0,58.8,29.00,WNW,292,0.0,0.0,50,0.00,,---,0.00,VWS V14.01,2013-08-08 21:19:00,
2013-08-08 17:20:00,79.0,58.8,29.00,WNW,292,0.0,0.0,50,0.00,,---,0.00,VWS V14.01,2013-08-08 21:20:00,
2013-08-08 17:21:00,79.0,58.8,29.00,WNW,292,0.0,0.0,50,0.04,,---,0.04,VWS V14.01,2013-08-08 21:21:00,
2013-08-08 17:22:00,79.0,58.8,29.00,WNW,292,0.0,0.0,50,0.04,,---,0.04,VWS V14.01,2013-08-08 21:22:00,
2013-08-08 17:23:00,79.0,59.9,29.00,WNW,292,0.0,0.0,52,0.04,,---,0.04,VWS V14.01,2013-08-08 21:23:00,
2013-08-08 17:24:00,79.0,59.9,29.00,WNW,292,0.0,0.0,52,0.04,,---,0.04,VWS V14.01,2013-08-08 21:24:00,
2013-08-08 17:25:00,79.0,60.4,29.00,WNW,292,0.0,0.0,53,0.04,,---,0.04,VWS V14.01,2013-08-08 21:25:00,
2013-08-08 17:26:00,79.0,60.9,29.00,WNW,292,0.0,0.0,54,0.04,,---,0.04,VWS V14.01,2013-08-08 21:26:00,
2013-08-08 17:27:00,79.0,60.9,29.00,WNW,292,0.0,0.0,54,0.04,,---,0.04,VWS V14.01,2013-08-08 21:27:00,
2013-08-08 17:28:00,78.8,60.8,29.00,WNW,292,0.0,0.0,54,0.04,,---,0.04,VWS V14.01,2013-08-08 21:28:00,
2013-08-08 17:29:00,78.8,60.8,29.00,WNW,292,0.0,0.0,54,0.04,,---,0.04,VWS V14.01,2013-08-08 21:29:00,
2013-08-08 17:30:00,78.8,60.8,29.00,WNW,292,0.0,0.0,54,0.04,,---,0.04,VWS V14.01,2013-08-08 21:30:00,
2013-08-08 17:31:00,78.8,60.8,29.00,WNW,292,0.0,0.0,54,0.04,,---,0.04,VWS V14.01,2013-08-08 21:31:00,
2013-08-08 17:32:00,78.3,60.8,29.00,WNW,292,0.0,0.0,55,0.04,,---,0.04,VWS V14.01,2013-08-08 21:32:00,
2013-08-08 17:33:00,78.3,60.8,29.00,WNW,292,0.0,0.0,55,0.04,,---,0.04,VWS V14.01,2013-08-08 21:33:00,
2013-08-08 17:34:00,78.3,60.8,29.00,WNW,292,0.0,0.0,55,0.04,,---,0.04,VWS V14.01,2013-08-08 21:34:00,
2013-08-08 17:35:00,78.1,60.1,29.00,WNW,292,0.0,0.0,54,0.04,,---,0.04,VWS V14.01,2013-08-08 21:35:00,
2013-08-08 17:36:00,78.1,60.1,29.00,WNW,292,0.0,0.0,54,0.04,,---,0.04,VWS V14.01,2013-08-08 21:36:00,
2013-08-08 17:37:00,77.9,60.5,29.00,WNW,292,0.0,0.0,55,0.04,,---,0.04,VWS V14.01,2013-08-08 21:37:00,
2013-08-08 17:38:00,77.9,60.5,29.00,WNW,292,0.0,0.0,55,0.04,,---,0.04,VWS V14.01,2013-08-08 21:38:00,
2013-08-08 17:39:00,77.7,60.3,29.00,WNW,292,0.0,0.0,55,0.04,,---,0.04,VWS V14.01,2013-08-08 21:39:00,
2013-08-08 17:40:00,77.7,60.3,29.00,WNW,292,0.0,0.0,55,0.04,,---,0.04,VWS V14.01,2013-08-08 21:40:00,
2013-08-08 17:41:00,77.5,60.1,29.00,WNW,292,0.0,0.0,55,0.04,,---,0.04,VWS V14.01,2013-08-08 21:41:00,
2013-08-08 17:42:00,77.5,60.1,29.00,WNW,292,0.0,0.0,55,0.04,,---,0.04,VWS V14.01,2013-08-08 21:42:00,
2013-08-08 17:43:00,77.4,60.0,29.00,WNW,292,0.0,0.0,55,0.04,,---,0.04,VWS V14.01,2013-08-08 21:43:00,
2013-08-08 17:44:00,77.4,60.0,29.00,WNW,292,0.0,0.0,55,0.04,,---,0.04,VWS V14.01,2013-08-08 21:44:00,
2013-08-08 17:45:00,77.2,60.3,29.00,WNW,292,0.0,0.0,56,0.04,,---,0.04,VWS V14.01,2013-08-08 21:45:00,
2013-08-08 17:46:00,77.2,60.3,29.00,WNW,292,0.0,0.0,56,0.04,,---,0.04,VWS V14.01,2013-08-08 21:46:00,
2013-08-08 17:47:00,77.0,60.1,29.00,WNW,292,0.0,0.0,56,0.04,,---,0.04,VWS V14.01,2013-08-08 21:47:00,
2013-08-08 17:48:00,77.0,60.1,29.00,WNW,292,0.0,0.0,56,0.04,,---,0.04,VWS V14.01,2013-08-08 21:48:00,
2013-08-08 17:49:00,77.0,60.6,29.00,WNW,292,0.0,0.0,57,0.04,,---,0.04,VWS V14.01,2013-08-08 21:49:00,
2013-08-08 17:50:00,76.8,61.4,29.00,WNW,292,0.0,0.0,59,0.04,,---,0.04,VWS V14.01,2013-08-08 21:50:00,
2013-08-08 17:51:00,76.8,61.4,29.00,WNW,292,0.0,0.0,59,0.04,,---,0.04,VWS V14.01,2013-08-08 21:51:00,
2013-08-08 17:52:00,76.6,61.2,29.00,WNW,292,0.0,0.0,59,0.04,,---,0.04,VWS V14.01,2013-08-08 21:52:00,
2013-08-08 17:53:00,76.6,61.2,29.00,WNW,292,0.0,0.0,59,0.04,,---,0.04,VWS V14.01,2013-08-08 21:53:00,
2013-08-08 17:54:00,76.6,60.8,29.00,NW,315,0.0,0.0,58,0.04,,---,0.04,VWS V14.01,2013-08-08 21:54:00,
2013-08-08 17:55:00,76.6,60.8,29.00,NW,315,0.0,0.0,58,0.04,,---,0.04,VWS V14.01,2013-08-08 21:55:00,
2013-08-08 17:56:00,76.6,61.2,29.00,NW,315,0.0,0.0,59,0.04,,---,0.04,VWS V14.01,2013-08-08 21:56:00,
2013-08-08 17:57:00,76.6,61.2,29.00,NW,315,0.0,0.0,59,0.04,,---,0.04,VWS V14.01,2013-08-08 21:57:00,
2013-08-08 17:58:00,76.5,61.1,29.00,NW,315,0.0,0.0,59,0.04,,---,0.04,VWS V14.01,2013-08-08 21:58:00,
2013-08-08 17:59:00,76.5,61.1,29.00,NW,315,0.0,0.0,59,0.04,,---,0.04,VWS V14.01,2013-08-08 21:59:00,
2013-08-08 18:00:00,76.3,61.4,29.00,NW,315,0.0,0.0,60,0.04,,---,0.04,VWS V14.01,2013-08-08 22:00:00,
2013-08-08 18:01:00,76.3,61.4,29.00,NW,315,0.0,0.0,60,0.04,,---,0.04,VWS V14.01,2013-08-08 22:01:00,
2013-08-08 18:02:00,76.1,61.2,29.00,NW,315,0.0,0.0,60,0.04,,---,0.04,VWS V14.01,2013-08-08 22:02:00,
2013-08-08 18:03:00,76.1,61.2,29.00,NW,315,0.0,0.0,60,0.04,,---,0.04,VWS V14.01,2013-08-08 22:03:00,
2013-08-08 18:04:00,75.9,61.5,29.00,NW,315,0.0,0.0,61,0.04,,---,0.04,VWS V14.01,2013-08-08 22:04:00,
2013-08-08 18:05:00,75.9,61.5,29.00,NW,315,0.0,0.0,61,0.04,,---,0.04,VWS V14.01,2013-08-08 22:05:00,
2013-08-08 18:06:00,75.9,61.5,29.00,NW,315,0.0,0.0,61,0.04,,---,0.04,VWS V14.01,2013-08-08 22:06:00,
2013-08-08 18:07:00,75.9,61.5,29.00,NW,315,0.0,0.0,61,0.04,,---,0.04,VWS V14.01,2013-08-08 22:07:00,
2013-08-08 18:08:00,75.9,61.5,29.00,NW,315,0.0,0.0,61,0.04,,---,0.04,VWS V14.01,2013-08-08 22:08:00,
2013-08-08 18:09:00,75.9,61.5,29.00,NW,315,0.0,0.0,61,0.04,,---,0.04,VWS V14.01,2013-08-08 22:09:00,
2013-08-08 18:10:00,75.9,61.5,29.00,NW,315,0.0,0.0,61,0.04,,---,0.04,VWS V14.01,2013-08-08 22:10:00,
2013-08-08 18:11:00,75.2,60.8,29.00,NW,315,0.0,0.0,61,0.04,,---,0.04,VWS V14.01,2013-08-08 22:11:00,
2013-08-08 18:12:00,75.2,60.8,29.00,NW,315,0.0,0.0,61,0.04,,---,0.04,VWS V14.01,2013-08-08 22:12:00,
2013-08-08 18:13:00,75.2,60.8,29.00,NW,315,0.0,0.0,61,0.04,,---,0.04,VWS V14.01,2013-08-08 22:13:00,
2013-08-08 18:14:00,75.2,60.8,29.00,NNW,338,0.0,0.0,61,0.04,,---,0.04,VWS V14.01,2013-08-08 22:14:00,
2013-08-08 18:15:00,75.2,60.8,29.00,NNW,338,1.6,1.6,61,0.04,,---,0.04,VWS V14.01,2013-08-08 22:15:00,
2013-08-08 18:16:00,75.2,60.8,29.00,NNW,338,1.1,1.6,61,0.04,,---,0.04,VWS V14.01,2013-08-08 22:16:00,
2013-08-08 18:17:00,75.2,60.8,29.00,NNW,338,2.0,2.0,61,0.04,,---,0.04,VWS V14.01,2013-08-08 22:17:00,
2013-08-08 18:18:00,75.2,60.8,29.00,NNW,338,0.0,2.0,61,0.04,,---,0.04,VWS V14.01,2013-08-08 22:18:00,
2013-08-08 18:19:00,75.2,60.8,29.00,NNW,338,0.0,0.0,61,0.04,,---,0.04,VWS V14.01,2013-08-08 22:19:00,
2013-08-08 18:20:00,75.2,60.8,29.00,NNW,338,0.0,0.0,61,0.04,,---,0.04,VWS V14.01,2013-08-08 22:20:00,
2013-08-08 18:21:00,75.2,60.8,29.00,NNW,338,0.0,0.0,61,0.04,,---,0.04,VWS V14.01,2013-08-08 22:21:00,
2013-08-08 18:22:00,75.2,60.8,29.00,NNW,338,0.0,0.0,61,0.00,,---,0.04,VWS V14.01,2013-08-08 22:22:00,
2013-08-08 18:23:00,75.9,61.5,29.00,NNW,338,0.0,0.0,61,0.00,,---,0.04,VWS V14.01,2013-08-08 22:23:00,
2013-08-08 18:24:00,75.9,61.5,29.00,NNW,338,0.0,0.0,61,0.00,,---,0.04,VWS V14.01,2013-08-08 22:24:00,
2013-08-08 18:25:00,75.9,61.5,29.00,NNW,338,0.0,0.0,61,0.00,,---,0.04,VWS V14.01,2013-08-08 22:25:00,
2013-08-08 18:26:00,75.9,61.5,29.00,NNW,338,0.0,0.0,61,0.00,,---,0.04,VWS V14.01,2013-08-08 22:26:00,
2013-08-08 18:27:00,75.9,61.5,29.00,NNW,338,0.0,0.0,61,0.00,,---,0.04,VWS V14.01,2013-08-08 22:27:00,
2013-08-08 18:28:00,75.9,61.5,29.00,NW,315,1.3,1.3,61,0.00,,---,0.04,VWS V14.01,2013-08-08 22:28:00,
2013-08-08 18:29:00,75.9,61.5,29.00,NW,315,0.0,0.0,61,0.00,,---,0.04,VWS V14.01,2013-08-08 22:29:00,
2013-08-08 18:30:00,75.9,61.5,29.00,NW,315,1.6,1.6,61,0.00,,---,0.04,VWS V14.01,2013-08-08 22:30:00,
2013-08-08 18:31:00,75.9,61.5,29.00,WNW,292,1.3,1.6,61,0.00,,---,0.04,VWS V14.01,2013-08-08 22:31:00,
2013-08-08 18:32:00,75.9,61.5,29.00,WNW,292,0.0,1.3,61,0.00,,---,0.04,VWS V14.01,2013-08-08 22:32:00,
2013-08-08 18:33:00,75.9,61.5,29.00,WNW,292,0.0,0.0,61,0.00,,---,0.04,VWS V14.01,2013-08-08 22:33:00,
2013-08-08 18:34:00,75.9,61.5,29.00,WNW,292,0.0,0.0,61,0.00,,---,0.04,VWS V14.01,2013-08-08 22:34:00,
2013-08-08 18:35:00,75.9,61.5,29.00,WNW,292,0.0,0.0,61,0.00,,---,0.04,VWS V14.01,2013-08-08 22:35:00,
2013-08-08 18:36:00,76.1,61.7,29.00,WNW,292,0.0,0.0,61,0.00,,---,0.04,VWS V14.01,2013-08-08 22:36:00,
2013-08-08 18:37:00,76.1,61.7,29.00,WNW,292,0.0,0.0,61,0.00,,---,0.04,VWS V14.01,2013-08-08 22:37:00,
2013-08-08 18:38:00,76.1,61.7,29.00,WNW,292,0.0,0.0,61,0.00,,---,0.04,VWS V14.01,2013-08-08 22:38:00,
2013-08-08 18:39:00,75.6,61.2,29.00,WNW,292,0.0,0.0,61,0.00,,---,0.04,VWS V14.01,2013-08-08 22:39:00,
2013-08-08 18:40:00,75.6,61.2,29.00,WNW,292,0.0,0.0,61,0.00,,---,0.04,VWS V14.01,2013-08-08 22:40:00,
2013-08-08 18:41:00,75.6,61.2,29.00,WNW,292,0.0,0.0,61,0.00,,---,0.04,VWS V14.01,2013-08-08 22:41:00,
2013-08-08 18:42:00,75.6,61.2,29.00,WNW,292,0.0,0.0,61,0.00,,---,0.04,VWS V14.01,2013-08-08 22:42:00,
2013-08-08 18:43:00,75.2,60.8,29.00,WNW,292,0.0,0.0,61,0.00,,---,0.04,VWS V14.01,2013-08-08 22:43:00,
2013-08-08 18:44:00,75.2,60.8,29.00,WNW,292,0.0,0.0,61,0.00,,---,0.04,VWS V14.01,2013-08-08 22:44:00,
2013-08-08 18:45:00,75.2,60.8,29.00,WNW,292,0.0,0.0,61,0.00,,---,0.04,VWS V14.01,2013-08-08 22:45:00,
2013-08-08 18:46:00,75.2,60.8,29.00,WNW,292,0.0,0.0,61,0.00,,---,0.04,VWS V14.01,2013-08-08 22:46:00,
2013-08-08 18:47:00,75.2,60.8,29.00,WNW,292,0.0,0.0,61,0.00,,---,0.04,VWS V14.01,2013-08-08 22:47:00,
2013-08-08 18:48:00,75.2,60.8,29.00,WNW,292,0.0,0.0,61,0.00,,---,0.04,VWS V14.01,2013-08-08 22:48:00,
2013-08-08 18:49:00,75.2,60.8,29.00,WNW,292,0.0,0.0,61,0.00,,---,0.04,VWS V14.01,2013-08-08 22:49:00,
2013-08-08 18:50:00,75.2,60.8,29.00,West,270,0.0,0.0,61,0.00,,---,0.04,VWS V14.01,2013-08-08 22:50:00,
2013-08-08 18:51:00,75.2,60.8,29.00,West,270,0.0,0.0,61,0.00,,---,0.04,VWS V14.01,2013-08-08 22:51:00,
2013-08-08 18:52:00,75.2,60.8,29.00,West,270,0.0,0.0,61,0.00,,---,0.04,VWS V14.01,2013-08-08 22:52:00,
2013-08-08 18:53:00,75.2,60.8,29.00,West,270,0.0,0.0,61,0.00,,---,0.04,VWS V14.01,2013-08-08 22:53:00,
2013-08-08 18:54:00,75.2,60.8,29.00,East,90,0.0,0.0,61,0.00,,---,0.04,VWS V14.01,2013-08-08 22:54:00,
2013-08-08 18:55:00,74.5,61.5,29.00,East,90,0.0,0.0,64,0.00,,---,0.04,VWS V14.01,2013-08-08 22:55:00,
2013-08-08 18:56:00,74.5,61.5,29.00,East,90,0.0,0.0,64,0.00,,---,0.04,VWS V14.01,2013-08-08 22:56:00,
2013-08-08 18:57:00,74.5,61.5,29.00,East,90,0.0,0.0,64,0.00,,---,0.04,VWS V14.01,2013-08-08 22:57:00,
2013-08-08 18:58:00,74.5,61.5,29.00,East,90,0.0,0.0,64,0.00,,---,0.04,VWS V14.01,2013-08-08 22:58:00,
2013-08-08 18:59:00,74.5,61.5,29.00,East,90,0.0,0.0,64,0.00,,---,0.04,VWS V14.01,2013-08-08 22:59:00,
2013-08-08 19:00:00,74.5,61.5,29.00,East,90,0.0,0.0,64,0.00,,---,0.04,VWS V14.01,2013-08-08 23:00:00,
2013-08-08 19:01:00,74.5,61.5,29.00,East,90,0.0,0.0,64,0.00,,---,0.04,VWS V14.01,2013-08-08 23:01:00,
2013-08-08 19:02:00,74.5,61.5,29.00,East,90,0.0,0.0,64,0.00,,---,0.04,VWS V14.01,2013-08-08 23:02:00,
2013-08-08 19:03:00,74.5,61.5,29.00,East,90,0.0,0.0,64,0.00,,---,0.04,VWS V14.01,2013-08-08 23:03:00,
2013-08-08 19:04:00,74.5,61.5,29.00,East,90,0.0,0.0,64,0.00,,---,0.04,VWS V14.01,2013-08-08 23:04:00,
2013-08-08 19:05:00,74.5,61.5,29.00,East,90,0.0,0.0,64,0.00,,---,0.04,VWS V14.01,2013-08-08 23:05:00,
2013-08-08 19:06:00,74.5,61.5,29.00,East,90,0.0,0.0,64,0.00,,---,0.04,VWS V14.01,2013-08-08 23:06:00,
2013-08-08 19:07:00,74.5,61.5,29.00,East,90,0.0,0.0,64,0.00,,---,0.04,VWS V14.01,2013-08-08 23:07:00,
2013-08-08 19:08:00,74.5,61.5,29.00,East,90,0.0,0.0,64,0.00,,---,0.04,VWS V14.01,2013-08-08 23:08:00,
2013-08-08 19:09:00,74.1,62.0,29.00,East,90,0.0,0.0,66,0.00,,---,0.04,VWS V14.01,2013-08-08 23:09:00,
2013-08-08 19:10:00,74.1,62.0,29.00,East,90,0.0,0.0,66,0.00,,---,0.04,VWS V14.01,2013-08-08 23:10:00,
2013-08-08 19:11:00,74.1,62.0,29.00,East,90,0.0,0.0,66,0.00,,---,0.04,VWS V14.01,2013-08-08 23:11:00,
2013-08-08 19:12:00,74.1,62.0,29.00,East,90,0.0,0.0,66,0.00,,---,0.04,VWS V14.01,2013-08-08 23:12:00,
2013-08-08 19:13:00,73.9,61.9,29.00,East,90,0.0,0.0,66,0.00,,---,0.04,VWS V14.01,2013-08-08 23:13:00,
2013-08-08 19:14:00,73.9,62.3,29.00,East,90,0.0,0.0,67,0.00,,---,0.04,VWS V14.01,2013-08-08 23:14:00,
2013-08-08 19:15:00,73.9,62.3,29.00,East,90,0.0,0.0,67,0.00,,---,0.04,VWS V14.01,2013-08-08 23:15:00,
2013-08-08 19:16:00,73.8,62.1,29.00,East,90,0.0,0.0,67,0.00,,---,0.04,VWS V14.01,2013-08-08 23:16:00,
2013-08-08 19:17:00,73.8,62.1,29.00,East,90,0.0,0.0,67,0.00,,---,0.04,VWS V14.01,2013-08-08 23:17:00,
2013-08-08 19:18:00,73.8,62.1,29.00,East,90,0.0,0.0,67,0.00,,---,0.04,VWS V14.01,2013-08-08 23:18:00,
2013-08-08 19:19:00,73.6,62.4,29.00,East,90,0.0,0.0,68,0.00,,---,0.04,VWS V14.01,2013-08-08 23:19:00,
2013-08-08 19:20:00,73.6,62.4,29.00,East,90,0.0,0.0,68,0.00,,---,0.04,VWS V14.01,2013-08-08 23:20:00,
2013-08-08 19:21:00,73.6,62.4,29.00,East,90,0.0,0.0,68,0.00,,---,0.04,VWS V14.01,2013-08-08 23:21:00,
2013-08-08 19:22:00,73.6,62.4,29.00,East,90,0.0,0.0,68,0.00,,---,0.04,VWS V14.01,2013-08-08 23:22:00,
2013-08-08 19:23:00,73.4,61.8,29.00,East,90,0.0,0.0,67,0.00,,---,0.04,VWS V14.01,2013-08-08 23:23:00,
2013-08-08 19:24:00,73.4,61.8,29.00,East,90,0.0,0.0,67,0.00,,---,0.04,VWS V14.01,2013-08-08 23:24:00,
2013-08-08 19:25:00,73.4,61.8,29.00,East,90,0.0,0.0,67,0.00,,---,0.04,VWS V14.01,2013-08-08 23:25:00,
2013-08-08 19:26:00,73.4,61.8,29.00,East,90,0.0,0.0,67,0.00,,---,0.04,VWS V14.01,2013-08-08 23:26:00,
2013-08-08 19:27:00,73.4,61.8,29.00,East,90,0.0,0.0,67,0.00,,---,0.04,VWS V14.01,2013-08-08 23:27:00,
2013-08-08 19:28:00,73.4,61.8,29.00,East,90,0.0,0.0,67,0.00,,---,0.04,VWS V14.01,2013-08-08 23:28:00,
2013-08-08 19:29:00,73.2,62.0,29.00,East,90,0.0,0.0,68,0.00,,---,0.04,VWS V14.01,2013-08-08 23:29:00,
2013-08-08 19:30:00,73.0,61.9,29.00,East,90,0.0,0.0,68,0.00,,---,0.04,VWS V14.01,2013-08-08 23:30:00,
2013-08-08 19:31:00,73.0,61.9,29.00,East,90,0.0,0.0,68,0.00,,---,0.04,VWS V14.01,2013-08-08 23:31:00,
2013-08-08 19:32:00,73.0,61.4,29.00,East,90,0.0,0.0,67,0.00,,---,0.04,VWS V14.01,2013-08-08 23:32:00,
2013-08-08 19:33:00,73.0,61.4,29.00,East,90,0.0,0.0,67,0.00,,---,0.04,VWS V14.01,2013-08-08 23:33:00,
2013-08-08 19:34:00,73.0,61.4,29.00,East,90,0.0,0.0,67,0.00,,---,0.04,VWS V14.01,2013-08-08 23:34:00,
2013-08-08 19:35:00,72.9,60.8,29.00,East,90,0.0,0.0,66,0.00,,---,0.04,VWS V14.01,2013-08-08 23:35:00,
2013-08-08 19:36:00,72.9,60.8,29.00,East,90,0.0,0.0,66,0.00,,---,0.04,VWS V14.01,2013-08-08 23:36:00,
2013-08-08 19:37:00,72.9,60.8,29.03,East,90,0.0,0.0,66,0.00,,---,0.04,VWS V14.01,2013-08-08 23:37:00,
2013-08-08 19:38:00,72.9,60.8,29.03,East,90,0.0,0.0,66,0.00,,---,0.04,VWS V14.01,2013-08-08 23:38:00,
2013-08-08 19:39:00,72.9,61.3,29.03,East,90,0.0,0.0,67,0.00,,---,0.04,VWS V14.01,2013-08-08 23:39:00,
2013-08-08 19:40:00,72.9,61.3,29.03,WSW,248,0.0,0.0,67,0.00,,---,0.04,VWS V14.01,2013-08-08 23:40:00,
2013-08-08 19:41:00,72.9,61.3,29.03,WSW,248,0.0,0.0,67,0.00,,---,0.04,VWS V14.01,2013-08-08 23:41:00,
2013-08-08 19:42:00,72.7,61.1,29.03,WSW,248,0.0,0.0,67,0.00,,---,0.04,VWS V14.01,2013-08-08 23:42:00,
2013-08-08 19:43:00,72.7,61.1,29.03,WSW,248,0.0,0.0,67,0.00,,---,0.04,VWS V14.01,2013-08-08 23:43:00,
2013-08-08 19:44:00,72.7,61.1,29.03,WSW,248,0.0,0.0,67,0.00,,---,0.04,VWS V14.01,2013-08-08 23:44:00,
2013-08-08 19:45:00,72.5,60.9,29.03,ESE,112,0.0,0.0,67,0.00,,---,0.04,VWS V14.01,2013-08-08 23:45:00,
2013-08-08 19:46:00,72.5,60.9,29.03,ESE,112,0.0,0.0,67,0.00,,---,0.04,VWS V14.01,2013-08-08 23:46:00,
2013-08-08 19:47:00,72.5,60.9,29.03,ESE,112,0.0,0.0,67,0.00,,---,0.04,VWS V14.01,2013-08-08 23:47:00,
2013-08-08 19:48:00,72.5,60.9,29.03,ESE,112,0.0,0.0,67,0.00,,---,0.04,VWS V14.01,2013-08-08 23:48:00,
2013-08-08 19:49:00,72.5,60.9,29.03,ESE,112,0.0,0.0,67,0.00,,---,0.04,VWS V14.01,2013-08-08 23:49:00,
2013-08-08 19:50:00,72.3,60.8,29.03,ESE,112,0.0,0.0,67,0.00,,---,0.04,VWS V14.01,2013-08-08 23:50:00,
2013-08-08 19:51:00,72.3,61.2,29.03,ESE,112,0.0,0.0,68,0.00,,---,0.04,VWS V14.01,2013-08-08 23:51:00,
2013-08-08 19:52:00,72.3,61.2,29.03,ESE,112,0.0,0.0,68,0.00,,---,0.04,VWS V14.01,2013-08-08 23:52:00,
2013-08-08 19:53:00,72.1,61.0,29.03,ESE,112,0.0,0.0,68,0.00,,---,0.04,VWS V14.01,2013-08-08 23:53:00,
2013-08-08 19:54:00,72.1,61.0,29.03,ESE,112,1.1,1.1,68,0.00,,---,0.04,VWS V14.01,2013-08-08 23:54:00,
2013-08-08 19:55:00,72.1,60.6,29.03,ESE,112,0.0,1.1,67,0.00,,---,0.04,VWS V14.01,2013-08-08 23:55:00,
2013-08-08 19:56:00,72.1,60.6,29.03,ESE,112,0.0,0.0,67,0.00,,---,0.04,VWS V14.01,2013-08-08 23:56:00,
2013-08-08 19:57:00,72.1,60.6,29.03,ESE,112,0.0,0.0,67,0.00,,---,0.04,VWS V14.01,2013-08-08 23:57:00,
2013-08-08 19:58:00,72.1,61.0,29.03,ESE,112,0.0,0.0,68,0.00,,---,0.04,VWS V14.01,2013-08-08 23:58:00,
2013-08-08 19:59:00,72.1,61.0,29.03,ESE,112,0.0,0.0,68,0.00,,---,0.04,VWS V14.01,2013-08-08 23:59:00,
2013-08-08 20:00:00,72.0,60.8,29.03,ESE,112,0.0,0.0,68,0.00,,---,0.04,VWS V14.01,2013-08-09 00:00:00,
2013-08-08 20:01:00,72.0,60.8,29.03,ESE,112,0.0,0.0,68,0.00,,---,0.04,VWS V14.01,2013-08-09 00:01:00,
2013-08-08 20:02:00,71.8,60.7,29.03,ESE,112,0.0,0.0,68,0.00,,---,0.04,VWS V14.01,2013-08-09 00:02:00,
2013-08-08 20:03:00,71.8,60.7,29.03,ESE,112,0.0,0.0,68,0.00,,---,0.04,VWS V14.01,2013-08-09 00:03:00,
2013-08-08 20:04:00,71.8,60.7,29.03,ESE,112,0.0,0.0,68,0.00,,---,0.04,VWS V14.01,2013-08-09 00:04:00,
2013-08-08 20:05:00,71.8,60.7,29.03,ESE,112,0.0,0.0,68,0.00,,---,0.04,VWS V14.01,2013-08-09 00:05:00,
2013-08-08 20:06:00,71.8,60.7,29.00,ESE,112,0.0,0.0,68,0.00,,---,0.04,VWS V14.01,2013-08-09 00:06:00,
2013-08-08 20:07:00,71.8,60.7,29.00,ESE,112,0.0,0.0,68,0.00,,---,0.04,VWS V14.01,2013-08-09 00:07:00,
2013-08-08 20:08:00,71.8,60.7,29.00,ESE,112,0.0,0.0,68,0.00,,---,0.04,VWS V14.01,2013-08-09 00:08:00,
2013-08-08 20:09:00,71.8,60.7,29.00,ESE,112,0.0,0.0,68,0.00,,---,0.04,VWS V14.01,2013-08-09 00:09:00,
2013-08-08 20:10:00,71.8,60.7,29.00,ESE,112,0.0,0.0,68,0.00,,---,0.04,VWS V14.01,2013-08-09 00:10:00,
2013-08-08 20:11:00,71.8,60.7,29.00,ESE,112,0.9,0.9,68,0.00,,---,0.04,VWS V14.01,2013-08-09 00:11:00,
2013-08-08 20:12:00,71.6,60.9,29.00,ESE,112,0.0,0.9,69,0.00,,---,0.04,VWS V14.01,2013-08-09 00:12:00,
2013-08-08 20:13:00,71.6,60.9,29.00,ESE,112,0.0,0.0,69,0.00,,---,0.04,VWS V14.01,2013-08-09 00:13:00,
2013-08-08 20:14:00,71.6,60.9,29.00,ESE,112,0.0,0.0,69,0.00,,---,0.04,VWS V14.01,2013-08-09 00:14:00,
2013-08-08 20:15:00,71.6,60.9,29.00,ESE,112,0.0,0.0,69,0.00,,---,0.04,VWS V14.01,2013-08-09 00:15:00,
2013-08-08 20:16:00,71.4,60.7,29.00,ESE,112,0.0,0.0,69,0.00,,---,0.04,VWS V14.01,2013-08-09 00:16:00,
2013-08-08 20:17:00,71.4,60.7,29.00,ESE,112,0.0,0.0,69,0.00,,---,0.04,VWS V14.01,2013-08-09 00:17:00,
2013-08-08 20:18:00,71.4,60.7,29.00,ESE,112,0.0,0.0,69,0.00,,---,0.04,VWS V14.01,2013-08-09 00:18:00,
2013-08-08 20:19:00,71.4,60.7,29.00,ESE,112,0.0,0.0,69,0.00,,---,0.04,VWS V14.01,2013-08-09 00:19:00,
2013-08-08 20:20:00,71.4,60.3,29.00,ESE,112,0.0,0.0,68,0.00,,---,0.04,VWS V14.01,2013-08-09 00:20:00,
2013-08-08 20:21:00,71.4,60.7,29.03,ESE,112,0.0,0.0,69,0.00,,---,0.04,VWS V14.01,2013-08-09 00:21:00,
2013-08-08 20:22:00,71.4,61.1,29.03,ESE,112,0.0,0.0,70,0.00,,---,0.04,VWS V14.01,2013-08-09 00:22:00,
2013-08-08 20:23:00,71.4,61.1,29.03,ESE,112,0.0,0.0,70,0.00,,---,0.04,VWS V14.01,2013-08-09 00:23:00,
2013-08-08 20:24:00,71.4,61.1,29.03,ESE,112,0.0,0.0,70,0.00,,---,0.04,VWS V14.01,2013-08-09 00:24:00,
2013-08-08 20:25:00,71.4,61.1,29.03,ESE,112,0.0,0.0,70,0.00,,---,0.04,VWS V14.01,2013-08-09 00:25:00,
2013-08-08 20:26:00,71.2,61.4,29.03,ESE,112,0.0,0.0,71,0.00,,---,0.04,VWS V14.01,2013-08-09 00:26:00,
2013-08-08 20:27:00,71.2,61.4,29.03,ESE,112,0.0,0.0,71,0.00,,---,0.04,VWS V14.01,2013-08-09 00:27:00,
2013-08-08 20:28:00,71.2,61.4,29.03,ESE,112,0.0,0.0,71,0.00,,---,0.04,VWS V14.01,2013-08-09 00:28:00,
2013-08-08 20:29:00,71.2,61.0,29.03,ESE,112,0.0,0.0,70,0.00,,---,0.04,VWS V14.01,2013-08-09 00:29:00,
2013-08-08 20:30:00,71.2,61.0,29.03,ESE,112,0.0,0.0,70,0.00,,---,0.04,VWS V14.01,2013-08-09 00:30:00,
2013-08-08 20:31:00,71.2,61.0,29.03,ESE,112,0.0,0.0,70,0.00,,---,0.04,VWS V14.01,2013-08-09 00:31:00,
2013-08-08 20:32:00,71.2,61.0,29.03,ESE,112,0.0,0.0,70,0.00,,---,0.04,VWS V14.01,2013-08-09 00:32:00,
2013-08-08 20:33:00,71.2,61.0,29.03,ESE,112,0.0,0.0,70,0.00,,---,0.04,VWS V14.01,2013-08-09 00:33:00,
2013-08-08 20:34:00,71.2,61.0,29.03,ESE,112,0.0,0.0,70,0.00,,---,0.04,VWS V14.01,2013-08-09 00:34:00,
2013-08-08 20:35:00,71.2,61.0,29.03,ESE,112,0.0,0.0,70,0.00,,---,0.04,VWS V14.01,2013-08-09 00:35:00,
2013-08-08 20:36:00,71.2,60.6,29.03,East,90,0.0,0.0,69,0.00,,---,0.04,VWS V14.01,2013-08-09 00:36:00,
2013-08-08 20:37:00,71.2,60.6,29.03,East,90,0.0,0.0,69,0.00,,---,0.04,VWS V14.01,2013-08-09 00:37:00,
2013-08-08 20:38:00,71.2,61.0,29.03,East,90,0.0,0.0,70,0.00,,---,0.04,VWS V14.01,2013-08-09 00:38:00,
2013-08-08 20:39:00,71.2,61.0,29.03,East,90,0.0,0.0,70,0.00,,---,0.04,VWS V14.01,2013-08-09 00:39:00,
2013-08-08 20:40:00,71.2,61.0,29.03,East,90,0.0,0.0,70,0.00,,---,0.04,VWS V14.01,2013-08-09 00:40:00,
2013-08-08 20:41:00,71.2,61.0,29.03,East,90,0.0,0.0,70,0.00,,---,0.04,VWS V14.01,2013-08-09 00:41:00,
2013-08-08 20:42:00,71.2,61.0,29.03,East,90,0.0,0.0,70,0.00,,---,0.04,VWS V14.01,2013-08-09 00:42:00,
2013-08-08 20:43:00,71.2,60.6,29.03,East,90,0.0,0.0,69,0.00,,---,0.04,VWS V14.01,2013-08-09 00:43:00,
2013-08-08 20:44:00,71.2,60.6,29.03,East,90,0.0,0.0,69,0.00,,---,0.04,VWS V14.01,2013-08-09 00:44:00,
2013-08-08 20:45:00,71.2,60.6,29.03,East,90,0.0,0.0,69,0.00,,---,0.04,VWS V14.01,2013-08-09 00:45:00,
2013-08-08 20:46:00,71.1,60.8,29.03,East,90,0.0,0.0,70,0.00,,---,0.04,VWS V14.01,2013-08-09 00:46:00,
2013-08-08 20:47:00,71.1,60.8,29.03,East,90,0.0,0.0,70,0.00,,---,0.04,VWS V14.01,2013-08-09 00:47:00,
2013-08-08 20:48:00,71.1,60.8,29.03,East,90,0.0,0.0,70,0.00,,---,0.04,VWS V14.01,2013-08-09 00:48:00,
2013-08-08 20:49:00,71.1,60.8,29.03,East,90,0.0,0.0,70,0.00,,---,0.04,VWS V14.01,2013-08-09 00:49:00,
2013-08-08 20:50:00,71.1,60.8,29.03,East,90,0.0,0.0,70,0.00,,---,0.04,VWS V14.01,2013-08-09 00:50:00,
2013-08-08 20:51:00,71.1,60.8,29.03,East,90,0.0,0.0,70,0.00,,---,0.04,VWS V14.01,2013-08-09 00:51:00,
2013-08-08 20:52:00,71.1,60.8,29.03,East,90,0.0,0.0,70,0.00,,---,0.04,VWS V14.01,2013-08-09 00:52:00,
2013-08-08 20:53:00,71.1,60.4,29.03,East,90,0.0,0.0,69,0.00,,---,0.04,VWS V14.01,2013-08-09 00:53:00,
2013-08-08 20:54:00,71.1,60.4,29.03,East,90,0.0,0.0,69,0.00,,---,0.04,VWS V14.01,2013-08-09 00:54:00,
2013-08-08 20:55:00,71.1,60.4,29.03,East,90,0.0,0.0,69,0.00,,---,0.04,VWS V14.01,2013-08-09 00:55:00,
2013-08-08 20:56:00,71.1,60.4,29.03,East,90,0.0,0.0,69,0.00,,---,0.04,VWS V14.01,2013-08-09 00:56:00,
2013-08-08 20:57:00,71.1,60.4,29.03,East,90,0.0,0.0,69,0.00,,---,0.04,VWS V14.01,2013-08-09 00:57:00,
2013-08-08 20:58:00,71.1,60.4,29.03,East,90,0.0,0.0,69,0.00,,---,0.04,VWS V14.01,2013-08-09 00:58:00,
2013-08-08 20:59:00,71.1,60.8,29.03,East,90,0.0,0.0,70,0.00,,---,0.04,VWS V14.01,2013-08-09 00:59:00,
2013-08-08 21:00:00,71.1,60.4,29.03,East,90,0.0,0.0,69,0.00,,---,0.04,VWS V14.01,2013-08-09 01:00:00,
2013-08-08 21:01:00,71.1,60.4,29.03,East,90,0.0,0.0,69,0.00,,---,0.04,VWS V14.01,2013-08-09 01:01:00,
2013-08-08 21:02:00,70.9,60.6,29.03,East,90,0.0,0.0,70,0.00,,---,0.04,VWS V14.01,2013-08-09 01:02:00,
2013-08-08 21:03:00,70.9,60.6,29.03,East,90,0.0,0.0,70,0.00,,---,0.04,VWS V14.01,2013-08-09 01:03:00,
2013-08-08 21:04:00,70.9,60.6,29.03,East,90,0.0,0.0,70,0.00,,---,0.04,VWS V14.01,2013-08-09 01:04:00,
2013-08-08 21:05:00,70.9,60.6,29.03,East,90,0.0,0.0,70,0.00,,---,0.04,VWS V14.01,2013-08-09 01:05:00,
2013-08-08 21:06:00,70.9,60.6,29.03,East,90,0.0,0.0,70,0.00,,---,0.04,VWS V14.01,2013-08-09 01:06:00,
2013-08-08 21:07:00,70.9,60.6,29.03,East,90,0.0,0.0,70,0.00,,---,0.04,VWS V14.01,2013-08-09 01:07:00,
2013-08-08 21:08:00,70.9,60.6,29.03,East,90,0.0,0.0,70,0.00,,---,0.04,VWS V14.01,2013-08-09 01:08:00,
2013-08-08 21:09:00,70.9,60.6,29.03,East,90,0.0,0.0,70,0.00,,---,0.04,VWS V14.01,2013-08-09 01:09:00,
2013-08-08 21:10:00,70.9,60.6,29.03,East,90,0.0,0.0,70,0.00,,---,0.04,VWS V14.01,2013-08-09 01:10:00,
2013-08-08 21:11:00,70.7,60.5,29.03,East,90,0.0,0.0,70,0.00,,---,0.04,VWS V14.01,2013-08-09 01:11:00,
2013-08-08 21:12:00,70.7,60.5,29.03,East,90,0.0,0.0,70,0.00,,---,0.04,VWS V14.01,2013-08-09 01:12:00,
2013-08-08 21:13:00,70.7,60.8,29.03,East,90,0.0,0.0,71,0.00,,---,0.04,VWS V14.01,2013-08-09 01:13:00,
2013-08-08 21:14:00,70.7,60.8,29.03,East,90,0.0,0.0,71,0.00,,---,0.04,VWS V14.01,2013-08-09 01:14:00,
2013-08-08 21:15:00,70.7,60.5,29.03,East,90,0.0,0.0,70,0.00,,---,0.04,VWS V14.01,2013-08-09 01:15:00,
2013-08-08 21:16:00,70.7,60.5,29.03,East,90,0.0,0.0,70,0.00,,---,0.04,VWS V14.01,2013-08-09 01:16:00,
2013-08-08 21:17:00,70.7,60.8,29.03,East,90,0.0,0.0,71,0.00,,---,0.04,VWS V14.01,2013-08-09 01:17:00,
2013-08-08 21:18:00,70.7,60.8,29.03,East,90,0.0,0.0,71,0.00,,---,0.04,VWS V14.01,2013-08-09 01:18:00,
2013-08-08 21:19:00,70.5,60.7,29.03,East,90,0.0,0.0,71,0.00,,---,0.04,VWS V14.01,2013-08-09 01:19:00,
2013-08-08 21:20:00,70.5,60.7,29.03,East,90,0.0,0.0,71,0.00,,---,0.04,VWS V14.01,2013-08-09 01:20:00,
2013-08-08 21:21:00,70.5,60.7,29.03,East,90,0.0,0.0,71,0.00,,---,0.04,VWS V14.01,2013-08-09 01:21:00,
2013-08-08 21:22:00,70.3,60.5,29.03,East,90,0.0,0.0,71,0.00,,---,0.04,VWS V14.01,2013-08-09 01:22:00,
2013-08-08 21:23:00,70.3,60.5,29.03,East,90,0.0,0.0,71,0.00,,---,0.04,VWS V14.01,2013-08-09 01:23:00,
2013-08-08 21:24:00,70.3,60.5,29.03,East,90,0.0,0.0,71,0.00,,---,0.04,VWS V14.01,2013-08-09 01:24:00,
2013-08-08 21:25:00,70.3,60.5,29.03,East,90,0.0,0.0,71,0.00,,---,0.04,VWS V14.01,2013-08-09 01:25:00,
2013-08-08 21:26:00,70.3,60.5,29.03,East,90,0.0,0.0,71,0.00,,---,0.04,VWS V14.01,2013-08-09 01:26:00,
2013-08-08 21:27:00,70.3,60.5,29.03,East,90,0.0,0.0,71,0.00,,---,0.04,VWS V14.01,2013-08-09 01:27:00,
2013-08-08 21:28:00,70.3,60.5,29.03,East,90,0.0,0.0,71,0.00,,---,0.04,VWS V14.01,2013-08-09 01:28:00,
2013-08-08 21:29:00,70.2,60.3,29.03,East,90,0.0,0.0,71,0.00,,---,0.04,VWS V14.01,2013-08-09 01:29:00,
2013-08-08 21:30:00,70.2,60.3,29.03,East,90,0.0,0.0,71,0.00,,---,0.04,VWS V14.01,2013-08-09 01:30:00,
2013-08-08 21:31:00,70.2,60.3,29.03,East,90,0.0,0.0,71,0.00,,---,0.04,VWS V14.01,2013-08-09 01:31:00,
2013-08-08 21:32:00,70.0,60.2,29.03,East,90,0.0,0.0,71,0.00,,---,0.04,VWS V14.01,2013-08-09 01:32:00,
2013-08-08 21:33:00,70.0,60.2,29.03,East,90,0.0,0.0,71,0.00,,---,0.04,VWS V14.01,2013-08-09 01:33:00,
2013-08-08 21:34:00,70.0,60.2,29.03,East,90,0.0,0.0,71,0.00,,---,0.04,VWS V14.01,2013-08-09 01:34:00,
2013-08-08 21:35:00,70.0,60.5,29.03,East,90,0.0,0.0,72,0.00,,---,0.04,VWS V14.01,2013-08-09 01:35:00,
2013-08-08 21:36:00,70.0,60.5,29.03,East,90,0.9,0.9,72,0.00,,---,0.04,VWS V14.01,2013-08-09 01:36:00,
2013-08-08 21:37:00,69.8,60.0,29.03,East,90,0.0,0.0,71,0.00,,---,0.04,VWS V14.01,2013-08-09 01:37:00,
2013-08-08 21:38:00,69.8,60.0,29.03,East,90,0.0,0.0,71,0.00,,---,0.04,VWS V14.01,2013-08-09 01:38:00,
2013-08-08 21:39:00,69.8,60.0,29.03,East,90,0.0,0.0,71,0.00,,---,0.04,VWS V14.01,2013-08-09 01:39:00,
2013-08-08 21:40:00,69.8,60.0,29.03,East,90,0.0,0.0,71,0.00,,---,0.04,VWS V14.01,2013-08-09 01:40:00,
2013-08-08 21:41:00,69.8,60.0,29.03,East,90,0.0,0.0,71,0.00,,---,0.04,VWS V14.01,2013-08-09 01:41:00,
2013-08-08 21:42:00,69.8,60.0,29.03,East,90,0.0,0.0,71,0.00,,---,0.04,VWS V14.01,2013-08-09 01:42:00,
2013-08-08 21:43:00,69.8,60.0,29.03,East,90,0.0,0.0,71,0.00,,---,0.04,VWS V14.01,2013-08-09 01:43:00,
2013-08-08 21:44:00,69.6,59.8,29.03,East,90,0.0,0.0,71,0.00,,---,0.04,VWS V14.01,2013-08-09 01:44:00,
2013-08-08 21:45:00,69.6,60.2,29.03,East,90,0.0,0.0,72,0.00,,---,0.04,VWS V14.01,2013-08-09 01:45:00,
2013-08-08 21:46:00,69.6,60.2,29.03,East,90,0.0,0.0,72,0.00,,---,0.04,VWS V14.01,2013-08-09 01:46:00,
2013-08-08 21:47:00,69.4,60.0,29.03,East,90,0.0,0.0,72,0.00,,---,0.04,VWS V14.01,2013-08-09 01:47:00,
2013-08-08 21:48:00,69.4,60.0,29.03,East,90,0.0,0.0,72,0.00,,---,0.04,VWS V14.01,2013-08-09 01:48:00,
2013-08-08 21:49:00,69.4,60.0,29.03,East,90,0.0,0.0,72,0.00,,---,0.04,VWS V14.01,2013-08-09 01:49:00,
2013-08-08 21:50:00,69.4,60.0,29.03,East,90,0.0,0.0,72,0.00,,---,0.04,VWS V14.01,2013-08-09 01:50:00,
2013-08-08 21:51:00,69.3,59.9,29.03,East,90,0.0,0.0,72,0.00,,---,0.04,VWS V14.01,2013-08-09 01:51:00,
2013-08-08 21:52:00,69.3,59.9,29.03,East,90,0.0,0.0,72,0.00,,---,0.04,VWS V14.01,2013-08-09 01:52:00,
2013-08-08 21:53:00,69.3,59.9,29.03,East,90,0.0,0.0,72,0.00,,---,0.04,VWS V14.01,2013-08-09 01:53:00,
2013-08-08 21:54:00,69.3,59.9,29.03,East,90,0.0,0.0,72,0.00,,---,0.04,VWS V14.01,2013-08-09 01:54:00,
2013-08-08 21:55:00,69.3,59.9,29.03,East,90,0.0,0.0,72,0.00,,---,0.04,VWS V14.01,2013-08-09 01:55:00,
2013-08-08 21:56:00,69.3,59.9,29.03,East,90,0.0,0.0,72,0.00,,---,0.04,VWS V14.01,2013-08-09 01:56:00,
2013-08-08 21:57:00,69.3,59.9,29.03,East,90,0.0,0.0,72,0.00,,---,0.04,VWS V14.01,2013-08-09 01:57:00,
2013-08-08 21:58:00,69.1,59.7,29.03,East,90,0.0,0.0,72,0.00,,---,0.04,VWS V14.01,2013-08-09 01:58:00,
2013-08-08 21:59:00,69.1,59.7,29.03,East,90,0.0,0.0,72,0.00,,---,0.04,VWS V14.01,2013-08-09 01:59:00,
2013-08-08 22:00:00,69.1,59.7,29.03,East,90,0.0,0.0,72,0.00,,---,0.04,VWS V14.01,2013-08-09 02:00:00,
2013-08-08 22:01:00,68.9,59.5,29.03,East,90,0.0,0.0,72,0.00,,---,0.04,VWS V14.01,2013-08-09 02:01:00,
2013-08-08 22:02:00,68.9,59.5,29.03,East,90,0.0,0.0,72,0.00,,---,0.04,VWS V14.01,2013-08-09 02:02:00,
2013-08-08 22:03:00,68.9,59.1,29.03,East,90,0.0,0.0,71,0.00,,---,0.04,VWS V14.01,2013-08-09 02:03:00,
2013-08-08 22:04:00,68.9,59.1,29.03,East,90,0.0,0.0,71,0.00,,---,0.04,VWS V14.01,2013-08-09 02:04:00,
2013-08-08 22:05:00,68.7,59.0,29.03,East,90,0.0,0.0,71,0.00,,---,0.04,VWS V14.01,2013-08-09 02:05:00,
2013-08-08 22:06:00,68.7,59.0,29.03,East,90,0.0,0.0,71,0.00,,---,0.04,VWS V14.01,2013-08-09 02:06:00,
2013-08-08 22:07:00,68.7,59.0,29.03,East,90,0.0,0.0,71,0.00,,---,0.04,VWS V14.01,2013-08-09 02:07:00,
2013-08-08 22:08:00,68.7,59.3,29.03,East,90,0.0,0.0,72,0.00,,---,0.04,VWS V14.01,2013-08-09 02:08:00,
2013-08-08 22:09:00,68.7,59.3,29.03,East,90,0.0,0.0,72,0.00,,---,0.04,VWS V14.01,2013-08-09 02:09:00,
2013-08-08 22:10:00,68.5,59.2,29.03,East,90,0.0,0.0,72,0.00,,---,0.04,VWS V14.01,2013-08-09 02:10:00,
2013-08-08 22:11:00,68.5,59.2,29.03,East,90,0.0,0.0,72,0.00,,---,0.04,VWS V14.01,2013-08-09 02:11:00,
2013-08-08 22:12:00,68.5,59.2,29.03,East,90,0.0,0.0,72,0.00,,---,0.04,VWS V14.01,2013-08-09 02:12:00,
2013-08-08 22:13:00,68.5,59.2,29.03,East,90,0.0,0.0,72,0.00,,---,0.04,VWS V14.01,2013-08-09 02:13:00,
2013-08-08 22:14:00,68.5,59.2,29.03,East,90,0.0,0.0,72,0.00,,---,0.04,VWS V14.01,2013-08-09 02:14:00,
2013-08-08 22:15:00,68.4,59.0,29.03,East,90,0.0,0.0,72,0.00,,---,0.04,VWS V14.01,2013-08-09 02:15:00,
2013-08-08 22:16:00,68.4,59.0,29.03,East,90,0.0,0.0,72,0.00,,---,0.04,VWS V14.01,2013-08-09 02:16:00,
2013-08-08 22:17:00,68.4,59.0,29.03,East,90,0.0,0.0,72,0.00,,---,0.04,VWS V14.01,2013-08-09 02:17:00,
2013-08-08 22:18:00,68.4,59.0,29.03,East,90,0.0,0.0,72,0.00,,---,0.04,VWS V14.01,2013-08-09 02:18:00,
2013-08-08 22:19:00,68.4,59.0,29.03,East,90,0.0,0.0,72,0.00,,---,0.04,VWS V14.01,2013-08-09 02:19:00,
2013-08-08 22:20:00,68.4,59.0,29.03,East,90,0.0,0.0,72,0.00,,---,0.04,VWS V14.01,2013-08-09 02:20:00,
2013-08-08 22:21:00,68.2,58.8,29.03,East,90,0.0,0.0,72,0.00,,---,0.04,VWS V14.01,2013-08-09 02:21:00,
2013-08-08 22:22:00,68.2,58.8,29.03,East,90,0.0,0.0,72,0.00,,---,0.04,VWS V14.01,2013-08-09 02:22:00,
2013-08-08 22:23:00,68.2,58.8,29.03,East,90,0.0,0.0,72,0.00,,---,0.04,VWS V14.01,2013-08-09 02:23:00,
2013-08-08 22:24:00,68.2,58.8,29.03,East,90,0.0,0.0,72,0.00,,---,0.04,VWS V14.01,2013-08-09 02:24:00,
2013-08-08 22:25:00,68.2,58.8,29.03,East,90,0.0,0.0,72,0.00,,---,0.04,VWS V14.01,2013-08-09 02:25:00,
2013-08-08 22:26:00,68.2,58.8,29.03,East,90,0.0,0.0,72,0.00,,---,0.04,VWS V14.01,2013-08-09 02:26:00,
2013-08-08 22:27:00,68.0,58.7,29.03,ESE,112,0.0,0.0,72,0.00,,---,0.04,VWS V14.01,2013-08-09 02:27:00,
2013-08-08 22:28:00,68.0,58.7,29.03,ESE,112,1.6,1.6,72,0.00,,---,0.04,VWS V14.01,2013-08-09 02:28:00,
2013-08-08 22:29:00,68.0,58.7,29.03,ESE,112,1.6,1.6,72,0.00,,---,0.04,VWS V14.01,2013-08-09 02:29:00,
2013-08-08 22:30:00,68.0,58.7,29.03,ESE,112,0.0,1.6,72,0.00,,---,0.04,VWS V14.01,2013-08-09 02:30:00,
2013-08-08 22:31:00,68.0,58.7,29.03,ESE,112,0.0,0.0,72,0.00,,---,0.04,VWS V14.01,2013-08-09 02:31:00,
2013-08-08 22:32:00,67.8,58.5,29.03,ESE,112,0.0,0.0,72,0.00,,---,0.04,VWS V14.01,2013-08-09 02:32:00,
2013-08-08 22:33:00,67.8,58.5,29.03,ESE,112,0.0,0.0,72,0.00,,---,0.04,VWS V14.01,2013-08-09 02:33:00,
2013-08-08 22:34:00,67.8,58.5,29.03,ESE,112,0.0,0.0,72,0.00,,---,0.04,VWS V14.01,2013-08-09 02:34:00,
2013-08-08 22:35:00,67.8,58.5,29.03,ESE,112,0.0,0.0,72,0.00,,---,0.04,VWS V14.01,2013-08-09 02:35:00,
2013-08-08 22:36:00,67.8,58.5,29.03,ESE,112,0.0,0.0,72,0.00,,---,0.04,VWS V14.01,2013-08-09 02:36:00,
2013-08-08 22:37:00,67.8,58.9,29.03,ESE,112,0.0,0.0,73,0.00,,---,0.04,VWS V14.01,2013-08-09 02:37:00,
2013-08-08 22:38:00,67.8,58.9,29.03,ESE,112,0.0,0.0,73,0.00,,---,0.04,VWS V14.01,2013-08-09 02:38:00,
2013-08-08 22:39:00,67.6,58.3,29.03,ESE,112,0.0,0.0,72,0.00,,---,0.04,VWS V14.01,2013-08-09 02:39:00,
2013-08-08 22:40:00,67.6,58.3,29.03,ESE,112,0.0,0.0,72,0.00,,---,0.04,VWS V14.01,2013-08-09 02:40:00,
2013-08-08 22:41:00,67.6,58.3,29.03,ESE,112,0.0,0.0,72,0.00,,---,0.04,VWS V14.01,2013-08-09 02:41:00,
2013-08-08 22:42:00,67.6,58.3,29.03,ESE,112,0.0,0.0,72,0.00,,---,0.04,VWS V14.01,2013-08-09 02:42:00,
2013-08-08 22:43:00,67.5,58.5,29.03,East,90,0.0,0.0,73,0.00,,---,0.04,VWS V14.01,2013-08-09 02:43:00,
2013-08-08 22:44:00,67.5,58.5,29.03,East,90,0.0,0.0,73,0.00,,---,0.04,VWS V14.01,2013-08-09 02:44:00,
2013-08-08 22:45:00,67.5,58.1,29.03,East,90,0.0,0.0,72,0.00,,---,0.04,VWS V14.01,2013-08-09 02:45:00,
2013-08-08 22:46:00,67.5,58.1,29.03,East,90,0.0,0.0,72,0.00,,---,0.04,VWS V14.01,2013-08-09 02:46:00,
2013-08-08 22:47:00,67.5,58.1,29.03,East,90,0.0,0.0,72,0.00,,---,0.04,VWS V14.01,2013-08-09 02:47:00,
2013-08-08 22:48:00,67.6,58.3,29.03,East,90,0.0,0.0,72,0.00,,---,0.04,VWS V14.01,2013-08-09 02:48:00,
2013-08-08 22:49:00,67.6,58.3,29.03,East,90,0.0,0.0,72,0.00,,---,0.04,VWS V14.01,2013-08-09 02:49:00,
2013-08-08 22:50:00,67.5,58.1,29.03,East,90,0.0,0.0,72,0.00,,---,0.04,VWS V14.01,2013-08-09 02:50:00,
2013-08-08 22:51:00,67.5,58.1,29.03,East,90,0.0,0.0,72,0.00,,---,0.04,VWS V14.01,2013-08-09 02:51:00,
2013-08-08 22:52:00,67.5,58.1,29.03,East,90,0.0,0.0,72,0.00,,---,0.04,VWS V14.01,2013-08-09 02:52:00,
2013-08-08 22:53:00,67.5,58.5,29.03,East,90,0.0,0.0,73,0.00,,---,0.04,VWS V14.01,2013-08-09 02:53:00,
2013-08-08 22:54:00,67.5,58.5,29.03,East,90,0.0,0.0,73,0.00,,---,0.04,VWS V14.01,2013-08-09 02:54:00,
2013-08-08 22:55:00,67.5,58.5,29.03,East,90,0.0,0.0,73,0.00,,---,0.04,VWS V14.01,2013-08-09 02:55:00,
2013-08-08 22:56:00,67.5,58.5,29.03,East,90,0.0,0.0,73,0.00,,---,0.04,VWS V14.01,2013-08-09 02:56:00,
2013-08-08 22:57:00,67.5,58.5,29.03,East,90,0.0,0.0,73,0.00,,---,0.04,VWS V14.01,2013-08-09 02:57:00,
2013-08-08 22:58:00,67.3,58.3,29.03,East,90,0.0,0.0,73,0.00,,---,0.04,VWS V14.01,2013-08-09 02:58:00,
2013-08-08 22:59:00,67.3,58.3,29.03,East,90,0.0,0.0,73,0.00,,---,0.04,VWS V14.01,2013-08-09 02:59:00,
2013-08-08 23:00:00,67.3,58.3,29.03,East,90,0.0,0.0,73,0.00,,---,0.04,VWS V14.01,2013-08-09 03:00:00,
2013-08-08 23:01:00,67.3,58.3,29.03,East,90,0.0,0.0,73,0.00,,---,0.04,VWS V14.01,2013-08-09 03:01:00,
2013-08-08 23:02:00,67.3,58.3,29.03,East,90,0.0,0.0,73,0.00,,---,0.04,VWS V14.01,2013-08-09 03:02:00,
2013-08-08 23:03:00,67.3,58.3,29.03,East,90,0.0,0.0,73,0.00,,---,0.04,VWS V14.01,2013-08-09 03:03:00,
2013-08-08 23:04:00,67.3,58.3,29.03,East,90,0.0,0.0,73,0.00,,---,0.04,VWS V14.01,2013-08-09 03:04:00,
2013-08-08 23:05:00,67.1,58.2,29.03,East,90,0.0,0.0,73,0.00,,---,0.04,VWS V14.01,2013-08-09 03:05:00,
2013-08-08 23:06:00,67.1,58.2,29.03,East,90,0.0,0.0,73,0.00,,---,0.04,VWS V14.01,2013-08-09 03:06:00,
2013-08-08 23:07:00,67.1,58.2,29.03,East,90,0.0,0.0,73,0.00,,---,0.04,VWS V14.01,2013-08-09 03:07:00,
2013-08-08 23:08:00,67.1,58.2,29.03,East,90,0.0,0.0,73,0.00,,---,0.04,VWS V14.01,2013-08-09 03:08:00,
2013-08-08 23:09:00,67.1,58.2,29.03,East,90,0.0,0.0,73,0.00,,---,0.04,VWS V14.01,2013-08-09 03:09:00,
2013-08-08 23:10:00,67.1,58.2,29.03,East,90,0.0,0.0,73,0.00,,---,0.04,VWS V14.01,2013-08-09 03:10:00,
2013-08-08 23:11:00,66.9,58.0,29.03,East,90,0.0,0.0,73,0.00,,---,0.04,VWS V14.01,2013-08-09 03:11:00,
2013-08-08 23:12:00,66.9,58.0,29.03,East,90,0.0,0.0,73,0.00,,---,0.04,VWS V14.01,2013-08-09 03:12:00,
2013-08-08 23:13:00,66.9,58.0,29.03,East,90,0.0,0.0,73,0.00,,---,0.04,VWS V14.01,2013-08-09 03:13:00,
2013-08-08 23:14:00,66.9,58.0,29.03,East,90,0.0,0.0,73,0.00,,---,0.04,VWS V14.01,2013-08-09 03:14:00,
2013-08-08 23:15:00,66.7,57.8,29.03,East,90,0.0,0.0,73,0.00,,---,0.04,VWS V14.01,2013-08-09 03:15:00,
2013-08-08 23:16:00,66.7,57.8,29.03,East,90,0.0,0.0,73,0.00,,---,0.04,VWS V14.01,2013-08-09 03:16:00,
2013-08-08 23:17:00,66.7,57.8,29.03,East,90,0.0,0.0,73,0.00,,---,0.04,VWS V14.01,2013-08-09 03:17:00,
2013-08-08 23:18:00,66.7,57.8,29.03,East,90,0.0,0.0,73,0.00,,---,0.04,VWS V14.01,2013-08-09 03:18:00,
2013-08-08 23:19:00,66.7,57.8,29.03,East,90,0.0,0.0,73,0.00,,---,0.04,VWS V14.01,2013-08-09 03:19:00,
2013-08-08 23:20:00,66.7,57.8,29.03,East,90,0.0,0.0,73,0.00,,---,0.04,VWS V14.01,2013-08-09 03:20:00,
2013-08-08 23:21:00,66.7,57.8,29.03,East,90,0.0,0.0,73,0.00,,---,0.04,VWS V14.01,2013-08-09 03:21:00,
2013-08-08 23:22:00,66.6,57.7,29.03,East,90,0.0,0.0,73,0.00,,---,0.04,VWS V14.01,2013-08-09 03:22:00,
2013-08-08 23:23:00,66.6,57.7,29.03,East,90,0.0,0.0,73,0.00,,---,0.04,VWS V14.01,2013-08-09 03:23:00,
2013-08-08 23:24:00,66.6,57.7,29.03,East,90,0.0,0.0,73,0.00,,---,0.04,VWS V14.01,2013-08-09 03:24:00,
2013-08-08 23:25:00,66.6,57.7,29.03,East,90,0.0,0.0,73,0.00,,---,0.04,VWS V14.01,2013-08-09 03:25:00,
2013-08-08 23:26:00,66.6,57.7,29.03,East,90,0.0,0.0,73,0.00,,---,0.04,VWS V14.01,2013-08-09 03:26:00,
2013-08-08 23:27:00,66.6,57.7,29.03,East,90,0.0,0.0,73,0.00,,---,0.04,VWS V14.01,2013-08-09 03:27:00,
2013-08-08 23:28:00,66.6,57.7,29.03,East,90,0.0,0.0,73,0.00,,---,0.04,VWS V14.01,2013-08-09 03:28:00,
2013-08-08 23:29:00,66.4,57.5,29.03,East,90,0.0,0.0,73,0.00,,---,0.04,VWS V14.01,2013-08-09 03:29:00,
2013-08-08 23:30:00,66.4,57.5,29.03,East,90,0.0,0.0,73,0.00,,---,0.04,VWS V14.01,2013-08-09 03:30:00,
2013-08-08 23:31:00,66.4,57.5,29.03,East,90,0.0,0.0,73,0.00,,---,0.04,VWS V14.01,2013-08-09 03:31:00,
2013-08-08 23:32:00,66.4,57.5,29.03,East,90,0.0,0.0,73,0.00,,---,0.04,VWS V14.01,2013-08-09 03:32:00,
2013-08-08 23:33:00,66.4,57.5,29.03,East,90,0.0,0.0,73,0.00,,---,0.04,VWS V14.01,2013-08-09 03:33:00,
2013-08-08 23:34:00,66.4,57.5,29.03,East,90,0.0,0.0,73,0.00,,---,0.04,VWS V14.01,2013-08-09 03:34:00,
2013-08-08 23:35:00,66.4,57.5,29.03,East,90,0.0,0.0,73,0.00,,---,0.04,VWS V14.01,2013-08-09 03:35:00,
2013-08-08 23:36:00,66.2,57.3,29.03,East,90,0.0,0.0,73,0.00,,---,0.04,VWS V14.01,2013-08-09 03:36:00,
2013-08-08 23:37:00,66.2,57.3,29.03,East,90,0.0,0.0,73,0.00,,---,0.04,VWS V14.01,2013-08-09 03:37:00,
2013-08-08 23:38:00,66.2,57.3,29.03,East,90,0.0,0.0,73,0.00,,---,0.04,VWS V14.01,2013-08-09 03:38:00,
2013-08-08 23:39:00,66.2,57.3,29.03,East,90,0.0,0.0,73,0.00,,---,0.04,VWS V14.01,2013-08-09 03:39:00,
2013-08-08 23:40:00,66.2,57.3,29.03,East,90,0.0,0.0,73,0.00,,---,0.04,VWS V14.01,2013-08-09 03:40:00,
2013-08-08 23:41:00,66.2,57.3,29.03,East,90,0.0,0.0,73,0.00,,---,0.04,VWS V14.01,2013-08-09 03:41:00,
2013-08-08 23:42:00,66.2,57.3,29.03,East,90,0.0,0.0,73,0.00,,---,0.04,VWS V14.01,2013-08-09 03:42:00,
2013-08-08 23:43:00,66.2,57.3,29.03,East,90,0.0,0.0,73,0.00,,---,0.04,VWS V14.01,2013-08-09 03:43:00,
2013-08-08 23:44:00,66.2,57.3,29.03,East,90,0.0,0.0,73,0.00,,---,0.04,VWS V14.01,2013-08-09 03:44:00,
2013-08-08 23:45:00,66.2,57.3,29.03,East,90,0.0,0.0,73,0.00,,---,0.04,VWS V14.01,2013-08-09 03:45:00,
2013-08-08 23:46:00,66.2,57.3,29.03,East,90,0.0,0.0,73,0.00,,---,0.04,VWS V14.01,2013-08-09 03:46:00,
2013-08-08 23:47:00,66.0,57.5,29.03,East,90,0.0,0.0,74,0.00,,---,0.04,VWS V14.01,2013-08-09 03:47:00,
2013-08-08 23:48:00,66.0,57.5,29.03,East,90,0.0,0.0,74,0.00,,---,0.04,VWS V14.01,2013-08-09 03:48:00,
2013-08-08 23:49:00,66.0,57.5,29.03,East,90,0.0,0.0,74,0.00,,---,0.04,VWS V14.01,2013-08-09 03:49:00,
2013-08-08 23:50:00,66.0,57.5,29.03,East,90,0.0,0.0,74,0.00,,---,0.04,VWS V14.01,2013-08-09 03:50:00,
2013-08-08 23:51:00,66.0,57.5,29.03,ENE,68,0.0,0.0,74,0.00,,---,0.04,VWS V14.01,2013-08-09 03:51:00,
2013-08-08 23:52:00,66.0,57.5,29.00,ENE,68,0.0,0.0,74,0.00,,---,0.04,VWS V14.01,2013-08-09 03:52:00,
2013-08-08 23:53:00,66.0,57.5,29.00,ENE,68,0.0,0.0,74,0.00,,---,0.04,VWS V14.01,2013-08-09 03:53:00,
2013-08-08 23:54:00,66.0,57.5,29.00,ENE,68,0.0,0.0,74,0.00,,---,0.04,VWS V14.01,2013-08-09 03:54:00,
2013-08-08 23:55:00,66.0,57.5,29.00,ENE,68,0.0,0.0,74,0.00,,---,0.04,VWS V14.01,2013-08-09 03:55:00,
2013-08-08 23:56:00,66.0,57.5,29.00,ENE,68,0.0,0.0,74,0.00,,---,0.04,VWS V14.01,2013-08-09 03:56:00,
2013-08-08 23:57:00,65.8,57.3,29.00,ENE,68,0.0,0.0,74,0.00,,---,0.04,VWS V14.01,2013-08-09 03:57:00,
2013-08-08 23:58:00,65.8,57.3,29.00,ENE,68,0.0,0.0,74,0.00,,---,0.04,VWS V14.01,2013-08-09 03:58:00,
2013-08-08 23:59:00,66.0,57.5,29.00,ENE,68,0.0,0.0,74,0.00,,---,0.04,VWS V14.01,2013-08-09 03:59:00,